GFSSGP_sfc_30mbdewp_000.txt.gz
Dewpoint
49 36 33 38 40 38 36 36 36 36 33 29 29 28 29 34 33 39 56 56 58 61 64 68 68 67 64 62 60 60 58 59 57 57 59 62 59 58 58 57 56 58 59 57 57 58 56 56 58
47 38 35 39 34 35 34 35 35 36 30 30 29 28 28 31 42 50 54 56 57 60 63 67 68 67 64 62 60 59 58 59 57 58 61 61 60 58 59 58 56 55 56 56 56 57 56 55 55
49 34 34 32 35 33 34 37 36 31 29 27 27 27 29 33 38 50 55 56 56 60 61 66 69 66 64 61 60 59 57 59 58 62 61 61 60 57 57 56 55 55 55 55 55 56 56 56 58
36 32 30 33 30 33 34 41 37 32 29 26 26 29 37 39 39 52 56 55 55 57 64 68 69 66 64 61 60 59 58 58 57 58 61 62 60 57 57 54 54 55 55 56 55 56 56 56 57
36 29 27 23 29 31 33 45 33 33 32 28 26 29 39 45 52 54 55 54 55 56 65 67 69 66 63 61 61 59 58 58 56 58 60 59 60 58 57 58 57 57 58 57 56 56 56 57 56
33 26 23 23 24 27 29 35 35 33 32 26 26 27 42 47 51 54 54 54 55 55 63 67 67 65 63 62 61 60 59 58 57 59 59 58 55 58 58 58 60 58 59 57 55 55 56 57 57
34 28 23 20 20 24 28 35 34 34 33 28 28 29 43 46 51 54 54 54 54 55 59 64 65 65 64 63 61 61 60 59 58 59 58 57 57 59 60 61 61 61 58 56 54 51 53 56 57
36 31 23 23 21 24 31 34 34 32 31 27 29 30 38 46 52 54 53 54 55 54 55 59 62 62 61 60 62 61 62 60 60 60 60 59 59 60 61 61 61 60 58 55 50 49 51 55 57
37 30 23 25 25 27 33 32 32 31 30 27 28 36 48 52 53 53 53 54 54 53 53 53 57 59 58 57 61 62 62 61 61 60 60 59 58 59 59 59 60 59 58 55 50 49 52 53 54
36 31 24 24 26 32 34 34 32 30 31 30 30 41 52 53 52 53 53 53 53 53 53 53 54 55 55 53 60 58 60 61 60 59 59 58 56 56 58 60 60 59 58 56 52 50 50 51 47
36 34 32 26 31 34 33 32 35 30 30 32 29 38 47 53 52 52 52 52 53 54 54 54 54 55 54 50 59 57 57 58 57 57 56 57 55 56 57 59 59 59 60 58 55 54 54 50 46
35 34 30 28 32 32 31 33 32 32 31 32 32 38 46 51 52 51 50 49 50 52 54 55 55 56 55 52 50 54 55 56 55 56 54 55 54 53 55 55 57 56 56 57 54 51 50 46 43
34 31 30 30 29 34 31 30 32 32 33 32 32 33 43 47 48 49 49 48 46 49 51 53 55 55 56 54 50 50 53 54 54 54 54 54 54 53 52 52 53 52 52 52 51 49 47 46 43
31 32 30 31 31 32 29 30 30 31 33 32 32 32 35 42 45 46 47 46 45 45 48 51 55 56 57 57 55 51 51 53 53 54 54 53 54 54 52 51 51 52 51 51 51 49 47 47 48
31 29 32 30 31 29 29 27 27 29 32 32 31 31 31 34 36 39 44 46 46 45 46 48 51 57 58 57 57 56 54 53 53 53 54 54 54 54 54 51 51 52 52 52 52 51 50 48 48
30 30 29 29 30 28 28 24 24 28 29 29 30 31 31 32 33 35 37 41 47 47 46 47 48 53 58 58 58 58 57 55 55 54 53 54 55 55 55 54 51 52 53 53 53 52 51 50 50
29 23 25 24 29 28 28 26 28 29 28 28 28 28 29 29 30 33 35 37 41 45 47 48 48 49 55 58 58 58 58 57 57 56 55 54 54 55 55 55 54 52 52 53 53 53 52 52 51
24 23 23 22 29 28 27 26 26 25 25 26 25 25 24 25 25 26 28 30 33 39 42 46 49 49 50 55 58 59 59 59 58 58 57 56 55 55 55 55 56 54 52 53 54 53 53 52 52
27 24 20 21 28 26 24 24 24 22 22 24 21 25 25 25 29 31 34 36 36 34 35 41 44 49 51 53 56 58 58 59 59 59 58 58 57 56 56 56 56 56 55 53 54 54 53 53 53
26 23 22 25 27 27 24 25 22 21 20 21 25 28 31 30 31 33 35 39 40 41 41 39 40 45 49 53 55 57 58 58 59 59 59 59 58 58 57 56 57 57 57 56 54 54 54 54 54
26 25 26 27 27 29 27 25 21 22 25 26 29 31 32 33 34 36 38 40 43 44 43 43 42 42 47 50 54 55 56 57 57 57 58 59 59 59 59 58 58 58 58 57 57 55 54 54 55
24 28 28 28 26 24 26 21 21 24 27 28 31 33 33 33 35 37 39 40 42 44 45 44 41 41 42 47 51 53 53 54 56 56 57 58 59 59 59 59 59 59 59 59 59 58 56 55 54
30 30 27 26 25 24 23 22 20 25 27 28 30 33 34 34 34 37 39 40 43 44 42 41 42 42 43 42 43 46 52 54 55 56 55 55 56 58 59 59 59 59 60 60 59 59 58 57 56
29 26 26 25 24 22 20 20 19 22 26 30 32 33 34 34 34 37 39 41 42 43 42 41 39 39 40 43 47 48 47 47 49 51 52 53 53 54 58 59 59 60 60 60 60 60 60 59 57
26 25 24 24 23 21 19 19 20 21 28 30 32 33 35 35 34 37 39 40 41 41 41 41 41 40 40 40 40 40 42 47 51 53 53 54 54 54 55 56 59 59 60 60 61 61 61 60 59
23 26 27 25 23 20 20 20 22 21 25 28 32 34 35 35 34 37 39 40 40 41 42 41 41 41 41 41 40 40 40 40 41 42 43 47 50 52 54 56 57 58 59 59 60 61 61 60 60
27 28 26 26 25 23 23 24 23 21 23 24 30 34 35 35 34 36 39 39 40 41 41 40 40 41 41 40 41 41 41 40 40 40 41 42 42 43 44 46 49 53 56 58 57 58 59 59 59
20 21 22 24 20 19 21 20 20 20 21 24 30 32 34 35 35 37 38 39 40 40 40 40 40 40 41 41 41 41 41 42 41 41 41 41 41 40 41 41 42 44 47 50 54 56 57 57 57
24 22 21 20 20 19 18 19 23 23 23 22 30 34 34 34 36 37 38 39 39 39 39 39 39 39 40 41 41 42 42 43 43 43 43 43 43 42 42 41 41 41 42 44 46 49 52 55 56
27 25 23 22 21 21 19 19 26 26 29 31 33 35 34 36 37 38 38 38 38 39 39 38 39 39 41 42 43 43 43 43 43 43 44 44 44 44 44 43 43 43 42 42 44 45 47 49 51

GFSSGP_sfc_30mbdewp_003.txt.gz
Dewpoint
52 45 40 36 38 39 36 37 38 40 33 29 29 28 30 33 31 26 55 59 64 65 67 68 69 68 65 63 62 61 59 59 57 58 61 62 61 60 58 58 58 60 59 58 58 58 58 57 62
53 45 35 37 34 35 35 36 38 39 33 30 28 28 29 31 46 52 54 56 62 65 67 69 69 68 64 62 62 61 60 59 58 59 64 63 62 60 60 59 57 56 58 57 58 57 55 55 56
47 45 31 33 35 32 34 39 39 38 29 27 27 28 32 32 47 52 55 56 60 64 66 69 69 67 65 63 61 60 58 60 59 61 62 62 61 59 58 57 55 57 56 56 56 57 56 56 55
39 31 29 31 30 33 34 37 40 37 29 27 25 30 37 47 45 54 56 56 60 61 65 69 70 67 65 64 62 61 59 59 58 61 63 62 61 59 57 55 55 56 56 56 55 57 57 55 56
36 30 26 24 24 28 30 39 37 37 32 28 26 31 38 50 55 55 55 56 57 64 66 69 69 67 65 63 62 61 60 59 58 62 62 61 60 57 58 58 57 57 58 57 56 56 57 57 57
33 29 21 21 23 24 25 37 36 37 33 26 26 35 41 51 53 54 55 55 57 64 67 69 69 67 65 64 63 61 60 59 57 59 61 60 58 59 59 58 58 58 60 59 57 56 57 58 57
34 32 25 23 22 22 22 33 39 35 33 29 28 34 44 48 53 55 54 54 55 65 67 68 67 65 65 64 63 62 62 59 59 60 60 59 58 61 59 60 61 60 61 58 56 54 54 57 57
36 32 25 23 21 23 28 33 33 32 29 28 29 33 39 45 53 55 54 54 54 63 65 66 66 65 64 65 63 63 62 60 60 61 60 60 59 61 62 62 62 62 60 58 56 52 51 53 57
37 33 24 23 25 26 34 33 34 31 30 28 34 39 45 51 53 53 53 54 54 54 61 64 64 64 62 60 63 63 61 60 61 61 61 60 59 60 62 62 62 61 60 58 55 50 51 55 57
36 33 30 26 30 27 33 32 32 33 31 31 40 51 52 52 53 52 52 53 54 54 54 59 62 62 61 59 61 61 62 62 62 61 61 60 59 58 60 61 62 61 60 59 56 51 51 55 52
37 34 35 34 34 31 31 31 33 33 31 32 30 45 52 52 52 53 53 54 54 55 54 54 58 60 60 57 61 60 60 61 61 60 60 59 58 58 59 60 61 60 60 59 58 54 52 52 51
38 37 36 35 34 31 33 32 30 32 33 33 32 41 52 52 51 53 53 53 54 55 55 55 56 56 57 55 60 58 57 59 59 59 58 58 57 56 57 59 59 59 59 59 58 56 53 52 48
39 37 36 34 31 30 33 32 29 30 32 34 36 42 47 51 52 53 52 52 51 53 55 56 57 57 56 55 56 57 57 58 57 57 57 57 56 55 55 56 56 57 57 57 57 55 53 51 48
35 33 32 32 32 31 32 31 30 30 31 33 32 37 43 47 50 51 52 51 50 49 53 55 57 57 58 56 53 52 54 55 56 56 56 55 55 55 53 53 54 54 55 54 54 53 52 48 48
36 31 31 32 32 31 29 27 27 28 30 31 32 32 34 41 45 46 47 49 49 48 49 53 56 57 58 58 56 52 51 53 54 54 55 55 55 55 54 53 52 52 53 51 51 51 50 49 47
31 31 29 31 30 31 28 25 27 29 29 30 30 29 31 32 35 39 41 46 48 48 46 50 54 57 58 59 59 57 54 53 53 53 53 55 55 55 55 54 53 52 53 53 52 52 51 51 49
31 27 27 27 29 29 27 26 27 28 29 28 28 28 26 27 29 31 33 34 37 47 48 47 50 55 58 58 59 59 58 55 54 54 53 53 54 55 55 55 55 53 52 53 53 53 53 52 52
26 27 26 23 26 28 27 27 28 28 24 25 25 25 29 31 33 36 39 40 40 39 40 48 49 51 58 59 59 59 59 58 57 56 55 55 54 55 55 55 55 55 53 53 54 53 53 53 52
28 26 23 24 28 27 27 26 26 25 22 25 27 29 31 33 35 38 41 43 44 43 42 42 43 50 52 57 58 58 58 59 59 58 58 57 56 55 55 55 56 56 55 53 53 53 53 53 53
26 25 24 25 28 26 25 27 24 20 23 29 32 32 33 35 37 39 40 43 44 45 44 43 43 43 50 52 56 58 59 59 59 60 60 59 59 58 56 56 56 56 56 56 54 53 53 53 54
27 25 28 28 28 28 28 26 20 24 28 31 32 33 35 36 37 39 40 41 42 42 43 44 43 42 44 52 56 56 58 58 58 58 59 60 60 59 59 58 57 57 57 56 57 55 54 53 54
25 28 28 28 26 24 28 22 21 25 28 31 32 33 33 35 37 40 40 41 42 42 41 40 41 43 46 46 47 52 53 54 55 56 57 57 59 59 59 59 59 58 58 58 58 58 57 55 54
29 30 28 26 25 24 24 21 21 27 28 30 33 34 33 34 37 39 41 42 43 43 41 40 40 41 41 41 45 47 48 50 52 53 53 54 55 56 59 59 59 60 60 59 59 59 59 59 56
30 27 26 26 25 22 23 22 21 26 28 30 32 34 33 34 37 40 41 42 42 42 42 42 41 41 41 41 40 40 40 43 45 48 48 49 51 53 55 58 60 60 60 60 60 60 60 60 60
26 26 24 23 22 20 20 19 20 25 30 30 33 34 34 34 37 39 40 40 41 41 41 42 41 41 41 41 41 40 40 40 41 41 43 43 45 48 47 50 53 58 60 60 60 60 61 60 60
23 25 27 25 24 23 20 18 19 24 31 33 34 35 34 34 37 39 39 40 41 41 41 40 41 41 41 41 41 41 41 42 41 41 41 42 42 42 43 42 43 45 50 57 60 61 61 60 60
26 26 28 25 26 23 25 25 22 27 30 33 34 35 34 34 36 39 39 40 40 40 40 40 40 40 41 42 42 42 43 43 43 43 43 43 43 43 43 43 42 42 42 43 46 50 55 57 57
21 22 23 25 20 19 21 21 21 23 26 30 34 34 35 35 37 38 39 39 39 40 39 39 40 41 42 43 43 43 44 45 45 45 44 44 45 45 44 44 43 43 43 43 43 44 45 47 49
26 23 20 22 22 20 18 20 24 22 23 26 32 35 35 35 37 38 38 39 39 39 40 41 42 43 44 44 44 44 45 45 45 44 44 44 44 44 44 43 44 44 44 44 44 44 44 44 45
28 26 24 21 22 22 20 20 26 29 25 30 34 35 35 36 38 38 38 38 39 41 42 43 44 44 43 43 43 43 44 44 42 42 42 41 41 42 42 42 43 43 42 43 43 43 44 44 45

GFSSGP_sfc_30mbdewp_006.txt.gz
Dewpoint
55 50 40 38 36 38 34 37 39 39 36 30 29 29 29 32 28 20 54 58 63 64 67 68 69 69 67 65 63 62 60 58 56 59 59 62 61 60 59 59 60 61 60 57 57 56 59 59 64
56 45 36 39 33 34 33 37 38 40 39 30 29 31 29 30 47 53 55 63 64 66 67 68 70 68 65 64 63 61 59 59 58 58 63 62 61 61 60 59 57 57 57 57 59 56 55 56 59
45 42 31 33 35 31 33 39 37 39 32 28 27 31 31 31 46 53 55 63 64 66 67 69 70 67 65 63 63 61 60 59 59 59 63 63 61 60 59 58 56 57 57 57 58 57 55 55 55
39 32 30 30 30 32 34 34 33 38 34 27 27 30 37 47 47 52 56 61 64 65 68 70 70 68 66 63 62 61 59 60 59 63 64 63 61 60 58 56 56 57 56 56 56 57 57 55 55
36 28 24 24 24 27 27 26 32 37 36 31 26 31 37 50 54 55 56 61 61 64 67 70 70 68 66 64 63 61 59 60 58 60 62 62 62 59 57 57 56 57 57 57 56 56 57 55 57
33 28 21 20 22 23 23 25 28 36 37 30 27 34 38 50 54 55 56 58 61 63 67 69 70 68 66 64 63 62 60 60 59 60 61 61 60 59 58 59 58 58 60 59 58 56 56 58 57
33 31 26 24 22 22 23 32 33 35 35 29 29 33 43 51 53 55 55 56 63 66 68 69 69 68 66 65 65 63 61 61 60 58 60 60 59 60 60 59 60 60 60 60 58 56 56 56 58
35 32 27 23 20 21 27 32 34 31 31 28 33 32 35 46 53 55 54 54 62 65 66 68 67 66 65 65 65 63 63 62 60 60 61 60 60 60 61 62 61 61 61 60 58 57 54 54 57
37 32 29 24 23 26 29 29 34 35 31 30 38 38 43 47 54 54 53 54 57 64 65 66 65 64 64 64 65 63 63 62 60 61 61 60 60 60 61 62 61 62 61 60 59 56 52 52 54
36 33 32 31 27 32 33 31 32 32 32 31 37 50 51 52 53 52 52 53 54 60 63 65 65 64 63 62 62 63 62 61 61 61 61 60 59 58 60 61 61 61 61 61 59 57 54 54 56
37 34 35 35 35 36 33 31 32 30 31 32 32 42 51 52 52 52 52 53 54 54 56 62 63 63 62 60 60 61 61 60 60 61 60 60 59 58 58 59 60 62 61 60 60 58 56 53 53
38 37 36 36 37 36 31 32 32 31 30 33 33 36 51 51 51 52 52 53 54 55 55 55 61 62 61 59 59 60 60 60 60 60 60 59 58 57 57 58 59 60 59 59 58 57 56 53 52
39 39 39 38 37 34 31 30 31 31 31 32 33 40 48 50 50 52 53 54 53 54 55 55 56 59 59 58 59 59 58 59 59 59 59 59 58 57 56 57 59 59 59 58 57 57 56 55 52
39 37 35 33 32 32 31 31 31 31 31 30 32 39 46 49 49 51 52 52 52 52 54 56 56 56 57 56 57 58 58 57 58 58 58 58 58 57 56 55 57 57 57 57 57 56 55 54 52
35 34 35 32 32 31 31 29 27 29 29 28 29 32 36 43 48 50 51 52 52 51 51 54 56 57 57 56 54 55 56 56 57 57 57 57 56 56 56 55 54 54 54 55 55 54 53 52 51
30 31 29 30 31 31 30 27 28 29 29 28 28 30 29 30 31 33 34 39 46 50 49 50 54 57 57 57 57 54 52 53 54 55 55 55 55 55 55 55 54 53 53 53 52 51 51 51 50
31 28 27 27 29 29 29 27 28 29 28 27 28 26 30 33 35 38 40 40 39 39 47 48 52 55 57 58 58 57 54 52 52 53 54 54 54 55 55 55 55 54 53 52 52 52 52 51 51
30 28 27 26 26 29 27 28 28 28 24 24 25 29 32 34 37 40 43 44 43 43 42 45 49 53 57 57 59 59 58 57 55 54 54 53 53 54 55 55 55 55 54 53 53 52 52 52 52
30 27 25 25 26 26 27 27 27 27 25 25 29 31 34 36 38 40 42 43 44 45 43 42 43 45 53 58 58 58 58 58 58 57 56 56 55 54 54 55 55 55 55 54 54 53 52 52 53
30 27 24 26 28 27 25 25 26 22 26 29 31 33 35 37 38 39 40 41 42 42 44 43 43 44 50 55 57 58 58 59 59 59 59 58 58 57 56 55 55 55 55 55 55 54 53 53 53
29 27 26 27 28 28 27 26 22 25 30 32 33 34 36 37 38 39 40 42 42 40 40 41 43 46 47 53 56 57 58 58 57 58 58 59 60 60 59 58 57 56 56 56 56 56 54 54 55
27 28 28 27 26 23 27 21 21 26 29 31 32 33 35 37 39 41 41 41 41 41 41 41 41 41 41 46 47 49 50 50 53 54 56 55 56 58 59 59 59 59 58 57 57 57 57 56 54
27 30 28 26 25 24 24 24 22 25 27 30 32 33 34 37 39 40 41 41 42 42 42 41 41 41 41 40 41 41 41 46 48 47 45 46 49 51 53 55 58 59 59 59 58 58 58 58 57
31 27 27 27 25 22 23 23 21 24 26 30 33 33 34 37 40 40 41 41 41 41 42 42 41 41 41 41 41 41 41 41 41 41 42 43 45 47 46 46 48 54 58 59 60 60 60 60 60
27 26 24 23 23 20 22 22 22 24 28 29 33 33 33 37 39 40 39 40 40 40 40 41 41 41 41 42 42 43 43 43 42 42 42 43 43 43 43 43 43 43 44 47 52 57 60 60 59
25 26 24 22 22 22 21 19 20 25 29 32 34 34 34 36 38 39 39 40 40 40 40 40 41 41 42 43 43 44 44 44 44 44 44 44 43 44 43 43 43 43 43 43 44 46 48 51 54
24 25 28 26 26 24 24 25 23 31 32 33 34 34 34 35 37 39 39 40 39 40 39 40 42 43 44 44 44 44 45 44 44 43 44 43 43 42 42 43 43 43 44 43 43 43 44 45 46
26 26 24 25 22 19 21 21 22 28 31 34 34 34 34 34 37 39 39 39 39 40 41 43 43 43 43 43 43 43 44 43 42 42 41 41 41 41 41 41 41 42 43 43 43 43 43 43 44
24 22 21 24 23 20 19 20 24 24 31 33 34 35 35 34 37 38 39 39 40 42 43 43 42 40 39 40 41 40 42 41 41 39 39 38 38 37 37 38 39 40 41 39 39 40 40 40 42
28 26 23 20 20 22 20 20 25 27 28 31 33 35 36 36 37 38 38 41 42 42 42 40 38 36 36 38 38 37 40 37 35 33 33 34 33 33 34 36 36 35 34 36 38 39 39 40 37

GFSSGP_sfc_30mbdewp_009.txt.gz
Dewpoint
60 52 37 40 34 38 34 36 40 38 38 32 30 29 29 32 26 21 53 60 63 63 66 68 69 69 67 66 65 63 61 59 56 58 56 63 61 61 60 60 60 61 59 55 57 56 61 58 62
57 44 37 39 33 31 31 36 37 39 41 34 29 31 28 28 46 51 54 59 64 65 67 68 69 69 68 66 64 63 60 59 57 58 61 63 60 59 59 57 57 56 56 57 58 56 56 56 62
43 35 31 34 34 31 31 37 38 35 38 29 27 31 30 30 44 50 55 62 64 66 67 67 70 69 67 65 64 62 60 60 58 59 63 64 62 60 60 58 57 57 56 57 58 57 56 55 56
37 31 29 27 29 33 34 32 28 28 37 30 27 29 36 44 45 52 57 64 64 66 67 68 70 68 66 65 64 62 61 59 59 60 61 65 62 60 59 57 56 57 57 57 57 58 57 56 56
34 28 22 24 24 26 29 26 28 31 36 33 27 27 35 45 54 55 59 63 63 65 67 69 70 68 66 65 64 62 59 60 60 62 63 62 61 59 57 57 56 57 57 57 56 56 58 57 55
34 28 21 16 21 23 24 24 31 31 36 33 27 32 35 48 54 55 57 61 63 64 67 69 70 69 67 65 64 62 60 60 58 58 60 60 62 60 57 59 58 57 58 58 58 56 56 57 58
33 30 26 23 23 21 23 30 31 34 35 34 32 31 40 49 54 55 56 60 62 63 66 69 69 69 68 66 65 64 62 61 60 59 61 61 61 59 59 59 59 59 59 61 60 59 57 56 57
35 33 29 26 20 19 25 32 32 32 31 29 36 30 31 44 53 55 55 56 62 64 66 68 69 68 67 66 66 65 63 62 63 61 61 61 60 60 61 61 61 60 61 61 61 59 58 56 55
36 33 31 29 23 23 30 33 33 33 32 33 37 39 44 47 54 54 53 53 59 64 66 67 67 67 66 65 65 65 64 63 62 61 61 61 60 59 60 61 62 61 61 62 61 60 59 57 55
36 34 34 33 26 29 34 34 33 31 31 32 33 47 50 51 53 52 52 52 54 61 64 66 66 65 64 64 64 64 63 63 61 60 61 61 60 59 59 60 62 61 61 61 61 60 59 58 54
36 34 35 35 34 37 36 35 33 31 30 32 32 33 48 51 53 52 52 52 53 57 62 64 65 64 63 63 62 63 62 61 60 60 60 60 59 58 58 58 59 61 61 61 61 60 59 57 54
37 37 36 36 37 38 36 34 33 31 30 32 33 33 45 49 51 52 51 52 53 54 56 62 64 63 63 62 60 61 61 60 59 59 60 59 59 58 57 57 57 58 60 60 59 58 58 56 54
40 39 39 39 39 37 35 32 31 31 32 33 32 33 40 49 50 52 52 52 53 53 55 55 61 62 62 61 59 59 59 60 59 59 59 59 59 58 57 57 57 58 59 58 58 57 57 56 55
41 40 39 37 36 33 32 31 32 31 32 31 30 30 38 47 50 51 51 52 53 53 53 55 55 60 61 60 59 59 59 58 59 59 59 59 59 58 57 56 56 57 58 58 57 57 56 56 55
38 35 33 33 34 33 32 30 29 31 30 29 28 29 32 37 45 48 51 50 52 52 53 53 55 56 58 59 58 59 58 58 58 58 58 58 58 58 57 56 55 55 56 56 56 56 55 55 54
31 31 30 31 31 31 31 26 30 31 29 28 29 28 29 32 34 37 39 38 38 42 50 51 53 56 56 56 56 56 57 57 57 57 57 57 57 57 56 56 55 55 54 54 53 53 52 52 52
31 30 28 28 29 29 29 26 28 30 28 27 27 28 32 35 38 41 43 44 43 43 42 43 50 54 56 57 57 56 54 54 54 55 55 55 56 56 55 55 55 55 54 53 53 53 52 51 51
33 29 29 27 27 28 27 27 28 29 26 25 26 31 34 36 38 41 42 43 44 44 43 43 48 52 56 57 58 58 57 54 53 53 53 53 54 54 55 55 55 55 54 54 53 53 53 52 52
34 29 26 27 27 26 26 27 27 28 27 25 29 32 35 36 39 40 41 41 41 42 44 44 45 47 53 57 57 57 57 58 58 57 56 55 54 54 53 54 54 54 54 54 54 53 53 53 53
32 29 29 28 29 27 26 26 27 26 25 27 30 33 35 37 38 40 41 41 40 40 40 41 43 47 51 56 57 58 58 58 59 59 59 59 58 57 56 55 55 55 55 55 55 54 54 53 53
33 31 31 29 28 27 27 26 27 25 28 32 33 35 37 37 38 40 40 41 41 40 40 41 41 41 45 52 55 56 56 55 53 54 54 54 56 57 59 59 58 57 57 56 56 56 55 54 55
38 32 30 28 27 24 27 23 24 24 29 32 33 35 37 39 40 40 40 41 41 41 41 41 41 41 41 42 43 45 45 45 48 49 48 47 49 49 48 50 53 56 59 58 57 57 57 56 55
36 29 28 28 25 24 24 23 24 25 28 30 32 33 36 39 39 40 41 41 41 42 41 41 42 42 42 42 42 42 42 42 43 44 43 44 44 46 45 44 44 45 49 52 55 57 58 58 57
30 28 27 27 25 23 24 23 22 23 25 29 32 33 36 39 40 40 41 41 40 41 41 42 42 42 43 43 44 43 43 43 43 43 43 43 43 44 43 43 43 43 43 43 45 46 49 53 56
29 27 25 24 24 22 23 23 23 24 26 28 32 33 36 39 39 39 40 40 40 40 40 42 42 43 44 44 44 44 44 44 43 43 42 41 41 41 42 42 42 42 43 43 44 44 45 46 47
27 27 25 19 21 20 23 19 20 27 28 30 33 33 35 38 39 39 40 40 40 40 41 42 43 43 43 44 44 44 43 43 42 42 42 41 41 41 40 41 41 41 42 43 43 43 44 44 45
25 25 28 26 26 25 23 24 25 31 31 32 33 33 34 36 38 39 39 40 39 40 42 43 42 42 42 42 42 43 42 41 40 40 40 39 38 37 37 38 38 39 40 41 41 39 40 41 42
26 27 24 25 23 22 21 22 23 26 30 33 33 33 34 36 38 39 39 39 40 42 43 41 40 39 39 39 39 40 40 38 38 37 35 35 35 35 34 34 36 37 37 34 34 37 39 39 39
22 23 23 25 24 20 19 20 24 24 30 33 34 34 34 35 38 39 39 40 42 42 41 39 37 36 36 37 36 37 34 32 31 29 29 30 30 30 30 29 30 28 28 30 35 32 33 37 36
27 23 22 21 21 21 20 20 25 29 29 34 34 35 35 35 38 38 39 41 42 41 38 36 34 33 34 33 33 31 28 25 24 25 25 25 24 25 25 24 24 21 23 27 30 26 33 30 30

GFSSGP_sfc_30mbdewp_012.txt.gz
Dewpoint
60 46 37 40 33 36 33 35 39 37 38 34 30 29 29 31 25 24 51 58 61 63 64 69 70 69 69 67 66 64 62 59 57 58 56 59 60 61 60 61 60 60 58 54 56 56 56 56 60
49 40 38 38 32 30 29 36 37 36 38 40 30 30 29 28 44 47 52 58 63 63 65 68 69 69 68 67 66 64 62 60 57 58 58 63 62 57 57 57 57 57 56 56 58 56 55 56 59
39 34 30 35 34 29 29 36 38 32 31 35 27 30 29 29 40 47 55 59 64 65 67 67 69 69 68 67 65 64 62 60 58 58 59 64 62 61 60 58 58 57 57 56 58 57 58 56 56
36 29 28 24 28 32 34 34 28 28 33 35 27 27 35 38 43 51 57 62 63 65 67 67 69 70 68 67 65 64 61 61 59 59 61 65 64 60 61 58 57 57 57 57 57 58 58 57 57
33 27 21 21 23 26 28 26 26 31 32 36 28 27 32 42 54 53 61 63 62 65 66 67 69 69 67 67 65 63 61 60 59 60 61 63 64 61 58 58 57 57 57 57 57 56 58 58 57
35 28 24 22 18 22 23 25 30 32 34 36 28 29 33 47 53 55 61 62 63 64 66 67 70 69 68 66 65 64 61 60 59 59 61 61 61 63 58 59 58 58 58 58 58 57 56 56 58
34 31 28 24 25 23 22 31 29 31 32 32 30 29 34 44 53 55 59 61 63 64 66 67 70 69 68 67 66 64 62 61 60 59 59 61 61 61 60 59 60 59 59 59 61 60 59 57 56
35 33 30 28 24 23 23 33 33 32 32 33 34 29 30 42 53 55 56 59 61 63 65 67 68 69 68 67 66 66 65 63 63 62 61 61 61 60 61 61 61 60 60 61 61 61 60 59 58
35 33 31 31 26 23 29 34 35 34 33 32 34 37 41 49 53 54 54 54 59 62 64 66 67 68 67 66 65 66 65 64 63 63 62 61 60 60 59 60 61 62 61 60 62 62 61 60 60
36 34 34 33 28 27 33 36 36 33 31 30 32 40 48 50 53 52 52 52 54 59 63 65 66 67 66 66 65 65 65 64 63 62 60 61 60 59 59 59 60 61 62 61 61 60 61 61 59
36 35 36 35 34 33 37 37 36 33 31 31 29 32 36 47 51 52 51 52 52 55 61 64 65 65 65 65 63 63 63 62 61 61 60 60 60 59 58 58 58 58 59 60 60 60 60 59 58
36 37 36 37 37 38 37 37 35 33 32 33 33 34 34 41 47 50 52 52 52 54 56 62 64 64 64 63 62 62 62 61 60 60 59 59 59 58 58 57 57 57 57 58 58 59 59 58 57
39 39 40 39 40 39 38 35 33 32 33 33 33 32 32 38 47 51 52 53 52 52 54 56 62 63 63 62 62 60 60 61 60 59 59 59 58 58 58 57 57 57 57 57 57 57 57 57 56
41 41 40 40 39 37 35 35 33 33 33 32 31 30 30 35 46 50 50 50 52 53 53 54 55 61 62 62 61 60 59 59 59 59 59 58 58 58 58 57 57 56 56 57 57 57 57 57 56
41 39 37 36 34 34 34 31 31 32 31 30 29 29 30 31 37 40 43 43 42 43 48 53 54 56 60 61 61 60 59 59 58 58 58 58 58 58 58 57 57 56 56 56 56 56 56 56 55
37 32 34 34 32 31 31 24 27 30 31 29 28 28 33 37 40 42 43 43 42 42 42 42 52 55 56 58 59 59 59 59 58 58 58 57 58 57 57 57 57 56 55 55 55 54 54 53 53
31 34 30 32 30 30 30 27 25 30 28 28 26 30 35 37 39 41 42 44 44 43 43 45 48 52 56 56 56 57 56 57 57 57 56 56 56 56 56 56 56 56 55 54 54 53 53 52 53
34 31 31 32 29 28 27 27 28 29 27 27 26 32 35 37 39 41 41 41 42 44 45 46 48 49 55 57 57 57 56 54 54 53 53 53 54 54 55 55 55 55 54 54 54 53 54 53 53
36 32 32 29 28 27 26 26 27 28 28 27 27 33 36 37 40 41 40 40 40 41 41 43 47 51 55 56 56 57 57 57 58 58 58 57 56 55 54 54 54 54 54 54 54 54 54 54 54
33 31 30 31 29 27 27 27 28 28 27 26 27 33 36 37 39 40 40 40 40 40 40 41 42 45 51 56 57 57 58 58 56 54 53 54 55 56 57 56 56 56 56 56 55 55 55 55 55
35 35 35 34 31 28 27 25 26 26 27 30 32 35 37 37 38 39 40 40 41 41 41 41 41 41 42 46 49 50 50 48 47 47 46 47 47 45 45 46 48 50 54 55 56 57 56 55 55
38 37 34 32 29 25 27 23 25 25 27 30 33 36 37 39 40 40 40 40 41 41 41 42 42 42 42 43 43 43 43 43 44 45 44 43 44 44 42 42 43 43 45 44 47 48 52 54 53
40 36 35 32 27 25 25 23 24 24 26 30 33 35 37 39 39 40 40 41 41 42 42 42 43 43 44 44 44 43 43 43 43 43 41 41 42 43 42 41 42 42 43 43 44 43 44 45 47
36 31 27 27 25 24 24 23 22 23 24 29 32 34 37 39 40 40 41 40 40 41 42 43 43 44 44 44 44 44 42 41 40 40 40 40 41 41 40 40 41 41 42 43 43 44 43 44 45
33 29 26 24 24 23 24 23 23 24 25 27 31 33 37 39 40 40 39 40 40 41 42 43 43 43 44 43 43 42 42 41 40 39 39 37 37 37 37 37 38 39 40 41 42 43 42 43 44
33 28 25 19 21 21 24 21 19 27 31 29 32 33 37 39 39 39 40 40 40 42 42 42 42 41 42 42 41 40 39 38 37 36 36 35 35 36 34 35 36 37 37 38 36 37 39 40 41
28 29 28 26 26 25 25 23 26 30 31 31 32 33 36 38 39 39 39 39 41 42 42 41 39 39 39 39 39 36 34 32 31 31 32 30 31 29 30 32 31 31 30 28 30 34 34 33 37
27 28 26 26 23 22 23 22 23 23 27 32 32 33 35 37 38 39 39 40 42 42 40 38 38 37 36 36 35 32 29 28 27 26 24 25 26 26 26 25 24 24 21 24 24 33 24 28 36
24 25 25 26 25 21 19 19 24 24 26 31 33 33 35 37 38 39 39 41 42 40 37 35 35 34 32 33 30 25 21 21 22 21 22 22 22 22 22 20 21 19 19 20 21 27 20 27 28
24 24 24 23 22 22 21 22 25 28 30 32 34 34 35 36 38 39 40 42 40 37 34 32 31 30 29 30 24 19 18 18 16 17 19 19 18 18 18 17 18 16 16 17 21 18 17 25 22

GFSSGP_sfc_30mbdewp_015.txt.gz
Dewpoint
54 42 39 40 32 36 31 34 39 36 38 38 36 30 29 30 27 28 50 58 61 62 63 68 70 69 69 68 66 65 63 61 59 58 56 57 59 60 60 61 59 59 57 55 56 57 56 57 56
45 36 39 38 30 28 28 36 37 36 33 36 33 32 30 28 40 45 51 58 61 62 64 68 71 70 69 68 67 65 63 60 58 58 57 59 61 58 56 57 56 58 55 55 57 57 55 57 56
37 36 30 34 34 27 28 36 34 30 30 32 30 29 29 29 36 45 54 59 63 63 64 68 70 69 68 68 67 65 63 62 59 58 59 63 63 60 59 58 58 57 58 56 57 58 56 57 57
34 30 28 21 25 32 34 35 29 29 34 36 29 27 33 37 42 50 56 60 63 64 65 67 70 69 69 68 66 65 63 61 60 58 59 63 64 62 60 59 58 57 58 58 57 57 58 59 57
33 28 22 20 20 25 28 28 27 31 32 33 30 29 31 41 54 53 60 61 62 64 66 66 69 69 69 67 66 65 63 61 59 59 61 61 65 63 59 58 58 57 58 57 57 57 56 58 58
37 29 27 27 23 22 24 25 30 31 33 35 29 29 32 46 53 54 62 62 63 64 66 66 68 70 69 68 66 65 63 61 60 59 61 63 63 61 60 59 58 58 58 58 58 58 58 57 56
36 33 31 26 27 27 22 32 30 31 31 31 31 30 32 43 53 56 61 62 63 64 65 66 66 69 69 68 67 66 64 62 61 60 60 60 61 61 60 60 60 60 60 58 60 61 61 60 59
35 34 30 29 29 27 23 32 34 33 31 34 33 30 31 41 52 55 57 61 62 63 64 65 66 69 68 67 67 66 65 64 63 63 62 61 61 60 61 61 62 61 60 60 61 61 61 61 61
35 33 32 31 28 29 27 34 36 35 34 33 33 37 40 49 53 54 54 56 60 62 63 65 66 68 68 67 66 66 65 65 64 63 63 61 61 60 60 60 60 61 62 61 60 61 61 62 61
36 34 34 34 30 29 30 36 37 36 33 32 31 35 42 48 52 52 52 52 55 59 62 64 66 67 67 67 66 66 65 64 63 62 61 61 61 60 59 59 59 61 61 62 62 61 61 62 60
37 36 36 36 34 32 35 37 38 35 33 32 31 32 34 40 45 50 52 52 52 54 60 63 65 66 66 67 66 65 65 64 64 62 61 60 60 60 60 59 59 59 58 58 58 58 59 59 59
37 37 37 37 37 38 37 38 37 35 34 34 34 34 34 33 35 43 50 52 52 53 54 60 64 65 65 66 65 65 64 63 63 62 61 60 59 59 59 59 59 58 58 58 58 57 57 58 58
38 38 39 39 39 40 40 39 37 36 35 35 34 34 33 32 34 45 51 52 53 52 53 55 60 63 64 64 64 64 63 62 62 62 61 60 59 58 59 58 58 58 58 58 57 57 57 57 57
41 40 40 40 40 39 37 37 35 37 35 34 32 31 30 31 37 49 50 51 51 52 52 54 55 60 63 63 63 63 62 61 61 60 60 59 59 58 58 58 58 57 58 57 57 57 57 57 57
41 39 39 38 37 36 35 33 33 34 34 32 31 29 31 35 39 40 42 40 41 41 43 44 50 56 60 62 62 62 61 61 60 59 59 59 59 59 58 58 57 57 57 57 57 56 56 56 56
39 37 37 37 34 33 31 32 29 30 32 31 29 30 36 39 41 42 43 44 44 44 44 46 46 54 57 59 60 60 60 60 60 59 59 58 58 58 58 57 57 57 57 56 56 55 54 54 54
34 36 34 37 35 34 30 27 29 29 29 28 27 32 36 38 40 41 42 43 44 44 46 49 49 51 56 57 58 58 58 58 58 58 57 57 57 57 57 56 56 56 56 55 55 55 55 54 54
33 34 31 32 31 29 28 28 29 29 29 28 27 33 36 38 39 40 41 41 42 43 44 48 51 54 56 57 57 57 57 57 56 56 57 56 56 55 55 55 56 56 56 56 56 55 55 55 55
34 33 33 35 30 27 27 27 28 29 29 28 27 33 36 38 40 40 40 40 41 41 42 44 50 54 57 57 57 57 57 55 52 51 51 51 53 54 53 53 52 53 54 54 55 55 54 54 55
35 33 32 32 30 29 31 29 28 29 29 28 27 34 36 38 39 40 40 41 41 41 42 42 43 46 53 57 58 57 52 49 47 46 45 44 42 42 41 42 43 43 45 44 45 48 49 50 51
36 34 33 35 33 30 27 26 26 27 27 29 30 36 37 37 38 39 40 41 42 42 42 43 43 43 44 46 47 46 46 46 45 43 42 43 42 40 39 40 40 41 42 41 43 43 44 42 42
38 36 36 35 36 33 27 25 26 26 26 30 33 36 37 38 40 40 40 40 42 42 44 44 44 44 44 45 44 44 44 42 43 42 41 40 40 40 37 38 39 39 40 40 40 40 41 40 40
39 39 38 36 33 26 25 24 25 25 24 29 33 36 38 39 40 40 40 41 42 43 44 44 45 45 45 44 44 43 42 42 41 39 38 38 37 38 34 35 37 36 37 39 39 38 39 40 40
32 30 30 28 26 24 25 24 23 22 23 28 32 36 38 39 40 40 41 41 42 43 44 45 44 43 43 43 42 41 40 38 36 36 33 33 32 33 30 31 31 32 32 34 33 35 37 38 39
35 36 32 27 24 24 24 23 23 25 26 28 31 34 38 39 40 40 40 40 42 43 43 43 43 42 41 40 39 38 37 35 32 30 27 25 24 27 26 27 25 26 26 25 27 30 36 35 35
38 36 28 23 22 22 24 22 20 25 31 31 32 34 38 39 40 40 40 40 42 42 42 41 40 40 39 37 34 32 31 29 26 25 23 22 22 23 23 22 21 21 20 18 21 25 34 26 31
36 36 30 26 25 25 25 25 26 28 30 31 31 34 38 39 39 40 40 40 42 42 40 39 38 37 38 34 29 25 23 21 20 20 20 20 19 16 18 19 18 18 17 17 19 20 24 21 23
35 33 33 27 23 21 24 23 24 23 24 31 32 34 37 39 39 40 39 41 42 40 38 37 36 34 33 28 23 19 18 17 17 16 16 17 16 17 16 15 15 16 14 15 15 17 19 17 20
33 32 29 27 26 23 19 19 24 24 26 28 32 34 37 38 39 39 39 42 40 37 35 34 31 31 29 23 18 15 15 14 13 13 14 15 15 15 14 12 13 12 12 12 13 13 13 16 20
29 30 27 25 23 23 22 22 25 27 27 30 33 34 36 38 39 39 41 41 37 34 31 30 28 28 25 19 14 13 12 12 11 11 12 13 13 13 12 12 11 11 11 12 11 12 15 18 20

GFSSGP_sfc_30mbdewp_018.txt.gz
Dewpoint
51 40 40 40 31 31 23 28 38 35 37 35 33 33 31 30 29 29 52 57 57 58 58 67 71 70 69 67 67 66 65 62 60 58 56 57 59 59 58 60 58 59 56 56 57 59 58 58 57
46 36 40 38 22 21 19 33 37 36 32 32 33 33 31 30 34 41 47 56 58 58 58 65 71 70 70 68 67 65 64 62 59 58 57 58 61 59 60 57 56 58 57 55 57 58 58 56 58
41 35 31 28 27 19 23 35 33 30 32 33 34 30 29 30 34 41 52 56 59 59 59 63 71 70 69 68 67 65 64 63 60 58 59 60 63 59 58 58 58 57 58 57 57 57 57 58 58
39 35 30 23 16 27 32 35 27 31 34 35 33 31 31 38 40 48 54 57 57 58 59 66 71 70 69 69 67 66 64 63 61 59 58 60 64 62 60 59 58 57 58 58 57 57 57 58 59
38 33 29 25 25 19 23 27 27 31 32 34 35 34 32 42 50 51 56 57 56 58 60 63 69 70 69 69 67 66 64 62 61 59 60 61 62 64 61 59 58 57 57 58 58 58 57 56 58
37 33 28 28 29 29 28 25 30 31 32 33 32 31 35 45 49 53 58 57 57 59 61 60 67 69 70 68 67 66 64 62 61 59 58 62 63 62 61 60 59 59 59 57 59 58 59 58 58
38 34 29 30 29 31 23 29 28 30 31 32 32 31 33 40 51 55 57 58 59 60 61 60 61 65 69 69 68 66 65 63 61 60 60 61 61 61 60 60 60 60 61 60 59 61 61 61 61
38 35 31 30 29 31 27 26 35 32 30 33 32 31 32 42 48 54 57 57 59 60 61 60 61 62 65 65 67 67 66 65 63 63 62 62 61 60 60 61 61 61 61 61 60 60 61 62 62
38 33 30 30 31 32 28 34 37 37 35 32 32 33 37 44 50 52 53 55 57 59 60 61 61 62 63 63 64 66 66 65 64 63 62 62 58 58 58 58 59 60 60 60 60 60 61 62 61
38 34 32 34 33 32 33 36 38 37 34 33 30 32 34 36 40 44 47 49 53 55 58 60 62 62 63 63 63 64 62 61 60 59 58 56 55 57 58 59 59 60 61 61 61 60 61 62 56
40 35 36 36 35 34 36 37 38 38 35 33 31 31 32 34 34 36 41 47 48 51 54 58 60 62 62 63 63 62 62 61 60 60 59 57 55 55 57 57 57 57 58 57 56 56 56 55 55
38 39 37 37 38 38 37 38 38 39 38 38 38 38 35 33 33 33 37 44 49 50 51 54 58 60 61 62 63 62 61 61 61 60 59 58 56 55 55 55 56 56 56 55 56 55 55 55 55
40 38 38 38 38 38 39 39 39 39 39 39 39 37 35 33 32 33 44 48 49 51 52 53 55 58 60 62 62 62 61 61 60 61 60 59 57 56 55 55 56 56 55 56 56 56 56 56 56
40 40 39 39 39 39 39 38 38 37 37 37 34 34 34 32 34 39 45 48 49 50 51 51 53 54 57 60 61 61 61 60 60 60 60 59 59 58 58 57 57 57 56 56 56 56 56 56 56
41 40 40 39 40 38 38 36 35 36 31 30 30 32 33 37 38 40 42 42 42 42 42 43 44 49 55 58 59 61 61 61 60 60 60 59 59 59 59 58 58 57 57 57 57 57 57 56 56
41 41 37 37 39 39 36 32 33 33 29 30 29 29 35 38 39 40 41 42 43 44 46 48 49 46 52 57 58 59 60 60 59 59 59 59 58 58 58 58 57 57 57 57 57 57 57 57 56
40 36 36 34 38 37 35 32 32 30 30 29 29 30 35 37 38 40 41 42 44 45 48 50 51 51 55 57 57 58 58 57 57 57 57 57 57 57 57 57 58 58 58 57 56 55 55 55 55
34 35 31 34 34 33 34 32 31 31 30 29 29 31 34 36 38 40 41 43 44 46 50 51 55 55 56 56 56 57 58 58 58 57 57 57 56 56 56 53 50 51 51 50 49 50 50 50 50
34 31 33 34 34 32 32 33 31 32 32 29 29 30 34 36 39 40 41 41 42 44 46 51 54 55 55 56 56 55 51 49 46 45 42 41 41 40 41 41 40 40 40 40 40 40 40 40 41
34 33 32 33 32 31 33 33 34 33 30 29 29 31 34 37 37 39 39 40 40 41 42 44 49 55 56 57 55 49 46 44 44 43 41 40 38 38 37 38 37 38 38 38 38 39 39 38 38
36 33 32 32 33 35 32 31 30 28 28 28 28 32 35 36 36 37 39 41 42 42 42 43 44 47 46 46 45 45 45 44 42 41 40 39 37 35 36 36 36 36 37 36 37 36 37 35 35
35 35 34 36 37 33 32 27 29 27 28 29 29 34 35 36 37 38 39 41 43 44 45 45 44 44 45 45 44 43 42 40 40 38 38 36 35 32 30 30 31 31 31 31 30 29 31 30 31
33 38 36 37 37 34 32 29 27 27 25 27 31 34 35 37 37 39 40 42 43 45 45 44 43 43 42 42 41 39 39 38 37 35 33 32 31 29 25 24 25 25 24 25 25 25 25 28 28
39 37 34 30 29 30 30 27 25 22 23 27 31 35 36 37 38 40 42 42 44 45 45 43 41 41 41 40 38 38 36 33 32 30 26 25 22 23 21 19 18 19 20 20 19 21 24 30 27
37 35 33 31 30 26 25 25 25 25 26 28 31 35 36 38 39 40 41 41 42 44 44 42 40 38 37 36 34 33 31 29 25 23 20 18 16 17 16 16 14 15 16 15 17 21 25 28 25
36 35 29 24 24 25 25 24 22 25 28 29 30 35 37 38 39 39 40 42 43 43 41 40 38 37 34 31 28 26 25 22 19 17 15 13 12 12 15 14 13 13 13 13 13 16 21 20 19
38 35 31 26 26 23 24 25 27 28 29 30 29 35 37 38 39 39 41 42 42 41 40 38 38 36 32 27 23 20 17 15 14 12 11 12 12 10 11 11 10 11 11 11 12 13 13 14 15
39 38 33 28 23 21 22 24 22 24 25 30 30 34 37 38 39 39 40 42 41 39 38 36 35 31 27 23 19 16 12 10 9 9 10 10 9 9 9 8 8 8 8 8 9 9 10 11 14
36 37 36 30 26 22 19 20 25 24 26 27 30 33 37 38 39 39 40 42 39 37 36 33 32 29 24 19 15 13 10 8 7 7 8 8 8 8 7 7 7 7 7 7 7 8 9 12 14
37 36 36 30 26 25 22 21 24 27 28 29 31 34 37 38 39 39 41 40 37 35 33 30 29 26 21 16 12 10 9 8 7 7 8 8 7 7 8 8 7 7 7 8 8 8 11 14 15

GFSSGP_sfc_30mbdewp_021.txt.gz
Dewpoint
52 45 40 39 29 25 21 22 33 36 37 34 34 33 33 32 31 31 50 53 53 54 58 68 70 71 69 67 66 67 65 62 60 59 56 56 58 59 58 59 58 60 56 56 58 60 59 58 60
49 43 37 34 22 19 16 23 31 35 34 33 33 33 33 31 32 42 48 53 53 54 57 62 71 70 69 68 68 67 65 63 60 58 58 58 60 60 60 57 57 58 58 56 57 58 59 59 60
46 39 33 30 24 16 21 28 29 33 34 34 34 32 30 32 35 41 50 54 54 54 56 67 71 70 70 68 67 66 65 63 60 58 59 61 63 63 57 58 58 58 58 58 58 57 58 58 59
42 37 32 29 26 21 24 32 32 30 34 34 35 33 32 40 41 48 52 53 53 54 56 69 71 70 70 69 68 66 65 64 61 60 59 60 62 64 61 59 58 57 58 58 57 57 57 57 59
42 35 29 28 28 25 15 25 27 30 32 33 35 35 34 43 48 49 52 53 53 54 57 65 71 70 69 69 68 66 65 63 61 60 59 61 62 64 62 60 58 58 58 58 58 57 58 58 57
38 35 29 25 28 30 28 21 25 30 32 32 33 33 37 44 48 51 53 52 54 55 57 61 69 70 70 69 67 66 65 63 62 59 60 62 63 61 62 61 59 59 60 59 58 59 60 60 59
38 33 30 26 25 30 31 23 25 29 30 32 33 32 36 41 46 52 54 53 55 57 57 58 60 66 69 69 67 67 65 63 62 61 60 61 61 61 60 60 60 61 61 61 60 60 62 62 62
39 35 32 30 28 27 32 26 25 31 30 33 32 32 34 41 46 52 54 53 54 57 57 57 58 61 64 65 67 66 66 65 64 63 63 62 61 60 60 60 61 61 61 61 61 60 60 61 62
41 34 31 29 29 28 31 31 32 36 34 33 31 32 35 36 44 48 51 52 53 55 57 57 58 59 61 61 64 65 65 65 64 63 62 61 57 56 57 57 57 59 60 60 60 60 60 61 62
40 34 31 31 31 30 32 34 36 36 34 33 33 31 33 33 35 36 40 45 51 52 55 57 58 58 60 60 62 62 61 62 62 60 58 59 54 54 56 58 59 60 60 61 61 60 61 61 57
41 36 34 33 33 34 33 35 36 37 35 35 33 33 35 35 34 32 34 39 44 49 52 55 57 58 59 60 60 60 59 59 58 57 56 55 53 52 54 55 56 58 58 58 57 58 59 56 54
39 38 36 35 36 37 36 35 36 36 37 38 38 38 38 37 31 32 32 35 42 46 49 52 54 57 58 59 60 59 59 59 58 57 57 56 55 54 54 53 54 55 55 55 56 55 55 55 55
40 38 37 37 36 37 37 36 36 37 38 38 38 38 38 37 34 31 34 41 44 47 49 51 52 55 56 58 59 59 58 59 58 59 58 57 56 55 54 54 55 55 55 55 55 56 56 56 56
42 39 38 37 37 37 37 36 36 36 37 36 35 34 34 35 34 35 39 43 46 48 50 51 52 52 54 56 58 59 59 58 59 58 59 59 58 57 57 57 57 57 57 56 56 56 57 57 56
43 40 38 37 37 36 37 36 35 36 36 33 27 27 29 33 37 38 41 41 42 43 43 43 44 47 52 55 57 59 59 59 59 59 59 59 59 59 59 58 58 58 57 57 57 57 57 57 57
39 43 39 36 36 37 37 34 34 33 33 29 27 27 31 36 37 39 40 41 42 43 45 48 49 45 47 54 57 58 59 59 59 59 58 58 58 58 58 58 57 57 57 58 57 57 55 53 53
40 36 38 37 35 35 36 34 33 33 32 29 28 27 32 36 37 39 40 42 43 45 47 50 50 50 51 56 57 57 57 57 57 57 57 58 58 58 58 57 55 52 53 51 50 47 47 47 47
35 36 37 36 33 35 34 33 33 33 30 31 29 26 31 34 36 39 41 43 45 49 50 53 54 54 55 56 56 56 57 56 53 50 49 46 44 45 46 44 41 41 42 40 40 39 40 40 39
36 35 34 33 32 32 32 32 31 31 31 31 30 28 30 34 38 39 41 42 44 48 51 53 53 54 55 55 55 52 50 47 45 42 40 40 39 39 39 39 38 38 38 37 38 38 39 39 39
36 34 32 30 32 33 32 30 31 32 32 34 31 28 30 36 37 38 39 39 40 42 46 51 53 55 55 52 50 48 46 44 43 42 40 37 36 36 35 36 36 36 36 36 35 35 35 35 34
37 35 30 29 32 33 32 31 31 33 34 33 30 29 32 35 36 37 39 41 41 42 43 45 46 46 47 47 46 45 45 43 40 39 38 36 34 30 30 31 30 30 30 30 30 29 30 29 30
37 34 32 30 33 30 34 25 27 28 29 28 28 29 33 35 35 37 39 41 43 44 44 44 44 44 44 44 44 42 40 38 38 37 36 34 33 29 24 24 25 25 24 24 25 23 24 25 27
34 34 32 33 32 34 34 31 27 28 26 28 28 30 34 35 35 38 40 42 44 45 44 43 42 41 41 40 39 38 37 36 35 33 32 29 28 25 22 19 19 19 20 21 21 21 22 24 27
39 34 35 34 33 31 31 30 24 26 25 25 28 32 35 35 36 39 42 43 45 45 43 41 40 39 38 38 37 36 34 33 32 29 26 24 22 21 19 17 15 15 17 18 17 19 22 26 30
38 36 33 30 30 25 26 28 25 23 25 26 29 33 35 36 38 40 41 42 43 43 42 39 38 36 35 34 33 32 31 29 26 23 21 19 17 16 16 14 13 13 15 15 16 20 23 24 26
39 36 26 23 23 22 25 23 23 25 27 27 31 34 35 36 38 39 40 42 43 43 40 38 37 34 32 30 28 27 27 24 21 18 17 15 14 12 12 12 11 10 11 11 13 17 20 19 18
38 32 32 26 25 23 25 26 24 27 29 29 29 34 35 36 38 38 41 42 42 41 40 39 36 33 30 27 25 22 19 18 17 14 14 13 11 8 8 10 9 9 9 9 11 13 12 13 14
38 34 31 27 22 20 22 22 22 24 25 28 28 33 35 37 38 39 40 41 41 40 38 37 34 31 27 25 22 19 15 13 12 12 10 10 8 7 8 7 7 7 7 8 9 10 11 11 12
37 35 35 30 27 21 20 19 25 24 26 27 29 33 36 37 38 39 40 41 40 39 37 35 32 28 25 23 20 17 14 12 11 10 8 7 6 6 6 6 7 7 7 7 8 9 9 9 13
39 36 34 28 27 25 23 21 24 27 29 29 30 33 36 38 38 39 40 41 39 37 35 33 31 27 24 20 17 15 14 13 11 9 7 6 6 6 7 7 8 8 8 9 9 9 9 10 13

GFSSGP_sfc_30mbdewp_024.txt.gz
Dewpoint
56 49 44 40 34 30 25 24 24 36 36 34 33 33 33 34 32 38 51 52 55 62 68 71 71 70 69 68 67 66 64 62 61 59 56 56 57 59 59 58 58 59 57 57 58 60 60 61 61
56 51 42 38 27 20 22 21 30 33 33 34 34 33 33 32 42 48 52 52 54 57 68 69 71 70 69 68 67 67 65 63 61 58 57 57 61 60 60 57 58 58 59 58 58 58 59 59 60
53 44 37 35 32 22 18 29 32 30 32 34 35 34 32 36 44 48 53 53 53 54 63 67 71 71 69 68 68 66 65 63 61 58 59 61 62 63 57 58 59 59 58 58 58 58 58 58 59
45 41 36 30 29 30 20 23 32 28 32 34 34 34 40 46 46 50 53 53 53 54 69 71 71 71 70 69 67 66 65 64 61 60 59 60 62 64 60 60 58 58 58 58 58 58 58 57 57
44 40 33 30 29 30 21 17 28 27 32 33 34 34 40 45 48 51 52 52 53 57 68 71 71 71 70 69 68 66 65 63 61 60 60 62 62 64 62 60 59 58 58 58 59 57 57 59 59
40 38 32 29 27 27 28 28 21 24 29 33 33 32 41 47 50 52 52 52 54 56 64 69 71 70 70 70 68 67 65 63 62 59 60 62 62 62 63 62 60 59 60 60 58 59 60 61 61
41 37 34 31 29 28 31 24 22 25 30 31 32 31 41 43 50 52 52 52 55 57 59 64 68 70 70 70 68 67 66 64 62 61 60 62 61 61 61 61 60 61 61 61 61 59 59 61 62
43 39 34 32 31 31 30 28 23 26 31 35 33 31 37 42 49 53 53 53 55 57 57 60 61 65 66 69 68 67 66 65 64 63 63 62 61 61 61 61 61 61 61 60 60 60 59 59 61
45 39 36 33 32 32 30 30 31 35 34 34 34 32 36 40 47 50 51 52 53 56 57 57 59 61 64 66 67 67 66 65 64 63 62 62 59 58 59 60 60 60 59 59 60 60 60 61 62
44 40 37 35 33 31 31 32 35 36 35 34 35 34 34 35 36 36 43 50 52 53 56 57 58 59 61 61 65 65 64 64 64 62 61 61 59 57 58 58 58 58 60 60 61 61 61 62 60
44 41 39 35 34 34 33 34 34 35 35 36 35 38 39 38 37 35 34 37 49 52 54 56 58 58 60 60 64 63 62 63 62 61 59 59 54 53 56 57 58 58 59 59 59 60 61 60 59
42 42 40 38 37 36 35 36 36 35 36 38 38 39 39 38 38 36 33 33 38 49 51 55 56 58 58 60 60 60 60 59 58 57 57 56 56 55 54 54 55 56 56 58 57 57 56 56 56
43 42 39 38 37 37 37 37 37 36 37 38 38 38 38 38 38 36 33 39 42 46 49 51 54 55 58 58 60 60 59 59 59 59 58 57 57 56 56 56 56 57 57 56 56 57 57 57 57
42 43 42 40 37 36 36 36 37 37 37 37 37 37 35 36 36 35 36 41 44 47 50 51 52 53 55 58 59 59 59 59 59 60 59 59 59 59 59 58 58 59 58 58 57 57 57 58 57
38 39 42 41 38 37 37 35 36 37 37 36 36 34 29 32 36 37 41 42 42 44 43 43 45 47 53 54 59 59 60 60 59 59 59 59 59 59 59 59 59 59 58 58 58 57 57 57 56
40 39 38 40 41 37 37 34 37 37 36 35 35 29 30 35 37 39 41 42 43 43 44 49 48 44 45 54 58 59 60 59 59 59 58 58 58 58 58 58 53 54 57 55 52 48 45 47 47
39 36 36 39 40 37 35 34 36 37 35 34 32 30 31 36 37 40 41 42 43 45 49 51 49 47 49 57 58 58 58 58 57 56 52 48 46 49 50 45 41 42 44 42 41 41 42 41 41
34 37 36 37 40 38 36 34 36 36 34 31 31 30 32 36 37 40 41 44 48 50 53 53 55 56 57 57 57 55 49 46 45 44 42 41 41 40 41 41 40 40 40 40 39 38 40 39 39
35 35 35 35 37 36 36 33 34 35 35 34 32 32 31 36 39 40 43 45 50 53 54 55 55 56 56 56 55 50 47 44 43 41 39 37 37 38 37 38 37 37 37 37 35 35 34 33 34
36 37 37 37 36 36 34 33 34 33 33 32 32 32 31 37 38 40 41 42 46 51 53 54 55 53 51 51 49 47 45 44 42 40 38 34 32 31 32 32 32 31 31 32 30 29 30 31 30
32 36 37 37 34 34 32 31 32 32 31 32 33 34 34 37 37 38 40 42 43 46 47 48 48 48 48 47 45 44 45 43 41 40 37 34 29 26 26 26 26 27 27 26 25 26 25 25 28
30 35 38 39 35 32 33 28 30 31 31 32 33 33 35 36 37 39 41 43 44 44 45 45 46 46 47 46 46 44 40 38 38 36 36 33 28 24 22 23 23 23 24 23 23 23 23 25 27
32 36 39 39 37 36 35 32 32 31 29 31 31 29 35 36 37 40 42 44 45 45 44 43 42 41 41 41 40 39 38 36 35 33 30 27 26 23 20 20 20 20 21 21 20 20 22 26 27
35 36 39 41 36 32 32 33 29 28 28 28 29 30 35 35 38 41 44 45 45 45 43 41 39 39 39 38 37 36 34 33 30 26 25 23 23 22 18 18 16 17 18 19 19 21 21 24 25
34 35 30 30 31 30 31 30 30 25 26 28 29 33 35 36 39 42 44 45 44 43 41 39 38 36 35 34 32 31 29 26 22 21 20 18 17 17 15 15 14 14 15 15 15 19 19 23 21
36 34 32 26 27 24 27 28 27 27 27 29 31 35 36 37 40 41 43 44 44 42 39 37 35 32 30 28 27 26 24 22 19 17 17 15 14 13 13 13 12 12 12 12 13 15 18 17 16
35 31 37 28 23 24 25 26 24 29 29 29 32 35 36 37 40 41 43 44 43 41 39 36 33 30 28 25 22 19 17 16 15 14 14 13 12 9 10 11 10 10 10 11 11 13 13 13 13
39 39 33 30 22 22 25 25 23 26 28 28 33 35 36 38 39 40 42 43 42 40 39 35 32 28 26 23 20 16 14 13 13 12 10 10 8 9 9 9 9 9 10 10 10 12 13 11 12
39 38 35 31 28 24 22 22 26 25 28 28 31 35 36 37 39 40 42 42 40 39 37 33 29 26 24 22 18 16 14 13 12 10 9 8 8 8 8 9 9 9 10 10 10 10 10 10 11
40 36 34 27 28 27 23 22 26 27 28 30 29 35 37 38 39 40 41 40 39 38 35 31 28 26 23 19 17 16 15 13 11 9 9 9 8 9 9 10 11 11 11 12 11 10 10 11 13

GFSSGP_sfc_30mbdewp_027.txt.gz
Dewpoint
58 54 52 40 31 32 27 25 25 33 34 34 34 33 32 35 34 37 52 63 67 69 71 71 71 70 69 68 67 65 64 62 61 58 57 56 58 59 59 58 58 57 57 58 58 60 60 62 62
60 55 43 37 28 21 21 28 29 29 32 34 35 34 33 36 46 51 51 56 67 68 71 71 71 70 69 68 66 65 64 62 61 58 57 57 61 59 59 58 59 59 58 58 58 58 59 59 60
55 53 39 35 33 27 19 25 31 30 31 34 35 35 35 41 48 51 53 54 67 69 70 71 72 71 70 68 67 66 65 62 61 58 59 60 62 62 56 59 59 58 58 58 57 57 57 59 59
48 42 38 31 28 29 29 22 29 28 30 34 34 34 44 46 48 52 53 53 60 65 68 71 72 71 70 69 68 66 65 63 61 59 59 60 62 64 60 60 58 59 59 58 58 58 58 57 56
46 42 34 32 31 31 30 20 27 26 30 33 33 33 42 48 51 53 52 54 62 68 69 71 72 71 71 69 67 66 65 64 61 60 60 63 63 64 62 61 59 59 59 59 59 58 57 59 60
43 40 34 30 30 31 30 26 22 23 25 30 33 33 42 50 51 52 52 53 66 68 70 71 71 71 71 69 68 66 65 63 61 60 62 63 63 65 63 61 60 60 60 60 60 58 60 61 62
45 40 35 33 32 32 32 24 22 24 30 32 33 33 41 47 51 53 52 54 61 66 69 70 70 70 70 70 68 67 65 63 62 59 60 62 62 61 61 63 61 61 61 61 61 61 59 60 61
46 41 38 36 33 33 33 27 22 25 28 35 34 33 38 44 51 54 53 53 56 63 65 68 69 70 69 69 68 68 66 65 64 63 62 62 61 61 61 62 62 61 61 61 59 60 60 60 60
51 43 38 38 35 33 34 30 31 34 34 35 35 34 37 45 51 53 52 53 55 57 61 64 66 67 67 69 68 68 66 65 64 63 62 61 60 60 60 61 60 62 61 60 60 60 61 62 62
48 43 41 39 37 34 34 32 34 36 36 36 36 37 38 45 48 50 51 51 53 56 57 60 62 63 64 67 67 67 66 65 64 63 61 61 61 59 58 59 60 60 60 60 61 61 62 62 61
48 44 42 40 39 38 35 35 35 34 34 37 36 37 39 39 38 37 36 49 51 54 56 57 59 61 62 64 66 66 64 64 63 63 62 61 60 58 57 58 58 58 58 59 59 59 60 60 60
45 46 46 43 43 41 37 36 35 35 35 37 38 38 39 39 39 38 37 34 41 52 54 57 58 58 60 64 64 63 63 62 62 62 61 60 56 54 54 55 56 57 58 57 58 58 57 57 57
43 43 44 44 42 41 39 37 36 37 38 38 37 37 38 38 39 39 36 38 42 51 53 55 57 58 59 61 62 61 61 61 59 58 57 57 56 56 57 57 57 57 57 57 57 57 58 58 58
39 41 42 45 43 40 37 36 37 37 38 37 37 37 37 37 35 37 36 39 44 47 51 54 54 56 58 59 60 60 60 59 59 59 59 59 59 59 59 59 59 59 59 58 58 57 57 56 55
41 38 37 38 43 43 42 36 36 38 38 37 37 37 37 34 36 37 41 42 43 43 45 47 49 52 55 58 59 60 60 60 59 59 59 59 59 59 59 58 55 57 56 51 48 43 44 44 44
39 40 36 37 40 42 40 36 37 37 37 37 37 37 34 35 37 40 41 42 43 43 44 48 46 44 48 55 59 60 60 59 58 57 53 50 51 56 52 43 42 44 44 42 41 41 40 40 40
39 34 37 37 40 41 40 38 37 38 37 36 36 34 32 36 39 40 41 42 43 44 49 49 49 46 50 58 57 54 51 48 45 44 42 41 41 42 41 40 40 40 40 39 38 38 38 36 36
30 34 35 37 37 39 40 39 37 36 36 36 35 34 31 36 39 40 42 45 48 51 52 53 52 55 57 52 48 45 43 42 41 39 38 39 38 38 38 37 35 36 37 34 33 32 31 33 32
33 33 34 36 38 37 37 38 38 37 36 35 35 31 32 37 40 42 45 49 52 54 54 55 56 56 56 51 47 44 42 40 39 36 34 33 34 32 32 32 31 30 32 29 28 30 28 28 29
35 34 34 36 38 38 37 38 37 36 35 36 35 34 35 39 40 42 44 48 52 53 54 55 54 53 52 50 47 44 42 40 39 35 30 28 27 28 27 27 27 26 27 25 24 25 24 28 29
33 33 33 32 36 38 37 36 37 36 35 35 35 35 36 38 40 41 42 46 48 49 49 49 48 48 46 45 44 43 42 40 38 36 32 26 23 23 24 23 24 24 25 22 22 23 23 25 28
29 31 30 31 34 32 36 33 35 34 33 32 32 32 36 38 39 41 43 44 45 45 47 47 47 46 45 45 44 42 40 38 38 36 32 27 22 20 21 20 21 22 22 20 21 22 23 24 24
30 31 32 32 33 36 35 34 34 31 32 32 32 33 37 38 39 42 43 44 45 44 43 42 42 43 43 43 41 39 37 36 35 30 28 25 21 19 19 18 18 18 20 19 18 20 18 21 26
33 32 32 33 33 30 34 36 31 31 31 31 32 34 36 38 41 43 45 45 43 42 40 39 39 38 38 38 37 35 32 28 25 23 21 21 21 18 17 15 15 15 16 16 17 19 17 20 21
32 31 23 24 25 25 32 34 35 30 27 30 30 35 36 39 43 44 44 43 42 40 39 37 36 34 33 32 30 27 24 22 20 19 17 16 15 14 13 13 12 13 13 13 14 16 17 17 17
31 30 23 18 18 22 35 32 30 35 29 30 34 35 38 41 43 44 44 43 41 40 38 35 33 30 28 27 25 23 21 19 17 16 15 14 12 12 12 11 10 10 11 11 12 14 16 15 13
29 29 29 30 31 29 31 29 26 28 30 33 35 36 39 41 43 44 44 43 41 38 35 33 30 28 25 22 19 18 17 15 14 13 13 12 10 9 9 9 9 10 11 11 11 13 12 13 13
32 32 27 30 23 26 26 22 23 26 28 33 34 35 39 41 42 43 44 43 41 38 35 31 28 26 22 18 15 14 13 13 12 11 9 8 8 8 9 9 9 10 11 11 11 12 13 11 12
34 33 32 32 27 28 24 24 26 27 28 33 35 36 39 40 41 43 43 42 40 37 33 30 27 24 21 17 15 14 13 12 11 9 9 8 8 9 9 10 11 11 12 12 12 12 11 11 13
37 34 34 26 31 31 23 22 27 28 28 32 35 36 39 40 41 42 42 40 39 36 31 27 26 23 19 17 16 15 13 11 9 9 9 10 9 10 10 12 12 13 13 14 13 11 11 12 15

GFSSGP_sfc_30mbdewp_030.txt.gz
Dewpoint
63 58 52 40 32 31 26 27 27 30 33 34 34 33 34 36 34 34 53 60 68 71 71 71 71 70 69 68 66 65 63 62 60 58 56 57 59 58 58 58 58 56 58 58 59 61 61 62 62
65 55 43 37 30 22 20 27 29 29 31 33 35 33 33 41 48 50 56 67 69 70 71 71 71 71 69 68 66 65 64 63 60 57 57 57 57 59 59 58 58 59 58 58 58 58 60 60 60
54 53 39 34 32 28 21 24 29 31 31 34 34 36 39 42 50 51 54 66 68 70 71 71 71 71 70 68 66 65 64 63 60 58 57 59 62 61 58 60 59 58 58 58 58 57 58 59 59
50 43 37 32 28 31 30 30 29 28 29 33 34 38 44 47 48 52 57 67 68 69 70 71 71 71 70 69 67 66 64 63 61 58 60 60 62 62 57 60 59 60 59 58 58 57 57 57 57
46 41 35 32 32 31 31 31 27 27 29 31 33 35 43 49 52 53 56 66 66 68 70 71 72 71 70 69 67 66 65 63 61 59 60 61 62 64 61 61 60 60 59 59 59 58 57 58 60
45 40 34 29 29 31 32 32 25 23 28 31 32 38 42 50 52 52 53 60 65 67 69 71 72 71 71 69 67 67 66 64 60 60 62 64 64 64 63 61 61 60 60 60 60 59 59 60 61
45 39 35 33 31 32 33 34 26 24 29 32 33 37 41 47 51 52 53 63 67 69 70 70 71 71 71 69 68 67 66 64 61 61 62 63 62 65 64 63 62 61 61 61 61 61 60 60 60
46 42 38 36 35 33 35 31 22 26 27 35 34 36 38 43 51 53 54 62 66 68 69 70 70 70 70 70 68 68 66 65 64 62 62 63 62 61 62 64 63 61 61 62 61 59 60 60 60
50 43 38 37 36 35 35 34 32 31 33 35 35 34 35 43 52 52 52 56 62 65 67 69 69 69 69 69 68 68 67 65 64 63 62 61 61 60 61 62 61 62 62 62 60 60 61 62 62
49 45 42 41 39 36 36 34 34 35 36 36 36 37 42 47 51 52 52 52 56 60 63 66 68 68 68 68 68 67 67 65 64 63 62 62 61 59 57 59 60 61 62 61 61 61 62 63 62
48 45 44 42 41 40 39 38 36 34 34 36 36 37 38 42 47 50 51 52 53 56 59 62 64 65 65 66 67 67 66 65 64 63 62 61 61 60 59 58 59 60 59 59 59 59 59 59 59
41 46 46 46 45 44 42 39 37 35 34 37 38 38 38 38 39 39 39 42 49 53 56 59 61 62 63 65 66 66 65 64 63 63 62 61 60 57 56 56 57 57 57 57 57 57 57 57 57
41 43 44 45 46 45 44 42 39 38 37 38 38 38 37 37 38 39 39 37 37 48 54 57 59 60 61 64 65 64 63 63 62 62 62 60 58 56 57 57 57 57 57 57 57 57 56 54 52
39 38 40 43 43 44 43 42 40 39 38 38 38 37 37 37 38 37 37 39 43 46 52 56 58 59 60 63 63 62 62 62 61 60 58 58 59 59 59 58 58 57 56 55 47 45 45 44 43
41 38 38 38 38 38 43 42 42 40 38 37 37 37 37 38 37 36 37 40 44 46 50 54 56 57 59 60 61 60 60 60 60 60 59 59 59 59 50 44 44 45 43 42 41 41 40 38 38
39 38 35 36 37 39 41 39 41 40 37 37 37 37 37 38 36 38 41 42 43 43 46 47 49 53 57 59 60 60 60 57 52 46 45 46 45 45 42 41 41 42 40 39 38 36 34 33 33
37 33 34 36 36 39 40 38 41 41 38 37 37 37 37 36 37 40 41 42 42 44 47 48 46 46 56 57 55 50 47 45 43 42 41 40 40 40 38 37 37 38 34 32 33 31 30 31 28
30 31 34 33 38 37 37 38 40 40 38 37 37 37 36 34 37 40 42 44 46 48 50 50 48 56 51 48 45 43 41 40 39 38 37 36 35 35 34 31 31 33 29 27 27 27 27 30 28
33 32 31 34 36 37 37 37 36 39 40 38 37 36 35 34 39 41 45 49 52 53 53 54 55 52 49 47 44 42 39 37 34 33 31 31 29 29 29 28 27 29 25 24 25 25 25 26 29
36 34 32 32 33 34 37 37 38 38 37 39 38 36 35 36 39 43 48 51 53 54 55 56 55 52 50 46 43 41 39 36 33 29 26 25 25 24 24 25 25 25 23 21 22 24 22 25 29
32 33 32 31 33 32 29 31 35 37 39 38 37 37 36 37 39 43 48 51 52 52 53 52 51 49 46 43 41 39 37 36 32 28 25 22 22 22 21 22 22 22 22 20 21 23 21 20 26
29 33 33 31 29 27 34 27 33 35 36 37 37 36 36 38 41 43 48 49 50 49 49 48 47 45 44 43 40 38 36 34 35 31 26 21 20 20 19 20 20 20 20 18 19 22 19 21 22
30 30 29 30 27 28 28 28 31 36 35 36 37 35 35 38 40 43 46 47 47 46 46 46 45 45 44 43 40 39 37 36 33 28 23 20 18 18 17 16 16 16 18 17 17 18 16 20 22
34 32 31 31 30 26 26 27 26 33 34 34 35 34 35 39 40 43 45 44 43 43 43 43 43 42 41 40 38 36 33 29 26 24 22 20 18 16 15 14 14 14 14 15 15 16 16 17 18
29 30 23 22 22 19 23 26 25 33 35 34 33 33 36 39 42 44 43 42 40 40 39 39 39 38 36 35 32 29 26 23 20 19 18 15 13 13 12 12 11 11 13 13 13 15 15 16 14
30 29 24 16 18 15 29 28 29 34 32 33 33 34 38 41 43 43 43 41 39 38 36 35 34 32 30 28 24 22 21 20 18 16 14 13 12 11 11 10 10 10 11 12 12 14 14 14 13
29 28 27 26 25 26 26 31 31 33 32 33 33 37 39 42 43 43 42 40 39 36 34 32 30 27 25 22 20 18 17 16 14 13 12 11 10 9 9 10 10 11 12 12 12 13 12 13 13
28 29 25 27 18 19 27 26 17 26 30 34 35 37 40 43 43 43 41 40 38 35 32 29 27 24 21 18 16 15 14 12 11 10 8 8 8 9 9 10 11 12 12 13 13 13 13 12 13
30 28 28 24 25 23 25 27 28 26 30 33 35 38 41 43 43 43 42 40 37 33 30 27 24 20 17 15 14 13 12 11 10 9 8 8 9 9 10 11 12 12 13 13 14 13 12 11 13
31 29 28 23 19 24 28 24 29 27 33 34 35 39 41 42 43 43 41 39 35 31 28 26 22 18 16 15 14 13 11 10 9 9 10 10 10 10 11 12 13 13 14 15 14 13 13 12 15

GFSSGP_sfc_30mbdewp_033.txt.gz
Dewpoint
64 61 48 39 31 29 24 26 28 28 33 34 34 33 34 36 33 32 55 63 67 69 71 71 71 70 69 66 65 65 63 61 60 59 57 57 57 57 57 57 57 56 58 57 60 61 62 63 62
61 54 42 37 30 25 21 27 29 29 30 33 34 33 34 40 48 51 57 64 69 70 71 71 71 71 69 67 66 65 63 62 60 57 57 57 57 58 58 58 58 59 58 58 58 58 60 60 60
55 49 37 33 31 26 22 25 28 30 31 33 34 39 40 43 50 51 53 67 70 70 71 71 71 71 69 67 66 65 64 63 60 57 57 58 58 59 58 59 58 58 57 57 57 57 58 59 60
49 43 37 32 28 32 29 30 31 30 29 33 35 38 44 47 48 52 63 68 69 70 70 71 72 71 70 69 66 65 64 63 61 58 58 60 63 62 59 60 60 60 59 58 57 57 57 56 57
45 41 33 33 31 31 31 31 31 29 28 28 32 34 43 48 52 55 65 67 67 69 70 71 72 71 71 68 67 66 65 63 61 58 60 61 62 64 58 61 61 61 60 59 58 58 58 58 60
45 40 33 29 29 32 32 32 31 25 25 31 32 39 42 48 52 54 65 66 67 68 70 70 72 71 71 69 68 67 65 64 61 59 61 63 63 64 62 62 61 61 60 59 59 59 59 59 60
45 39 34 33 30 30 31 34 32 30 25 31 33 35 41 46 51 53 60 64 66 67 69 70 71 71 71 70 69 68 66 65 61 61 63 64 64 65 64 63 62 61 61 61 61 61 61 60 60
47 42 38 36 33 31 34 34 27 25 27 34 35 35 36 42 50 53 55 64 66 67 69 70 71 71 71 69 69 68 67 66 63 62 64 64 62 63 64 65 64 62 61 62 62 60 59 60 61
47 43 38 36 36 34 35 34 34 34 31 34 35 37 36 44 52 52 56 62 65 67 68 69 70 70 70 69 69 68 67 66 64 62 62 63 62 61 61 62 63 63 62 62 62 61 61 62 62
49 44 40 40 38 36 36 35 36 35 35 35 36 38 45 50 53 51 52 58 61 64 66 68 69 69 69 69 68 68 67 65 64 63 62 61 60 59 59 59 60 62 62 63 62 62 63 63 62
48 44 43 44 42 41 39 38 39 37 36 36 36 37 39 47 51 52 52 52 57 61 63 66 68 68 68 68 67 67 66 65 64 63 62 61 61 60 59 58 58 59 60 59 59 58 57 57 58
40 43 46 46 46 45 44 41 39 37 35 36 38 38 38 38 45 48 50 51 52 54 59 62 65 66 66 66 67 67 66 65 64 63 62 61 60 59 57 57 57 57 57 57 57 57 57 57 56
40 42 43 44 46 46 46 45 44 42 41 40 39 38 38 38 38 39 40 41 41 47 54 59 62 63 64 65 66 66 65 64 64 63 62 61 60 57 55 56 57 58 58 57 55 51 47 44 44
39 39 39 39 40 42 42 42 43 42 41 40 39 38 38 38 38 38 38 37 38 37 45 57 60 61 62 63 65 64 64 63 63 62 61 60 57 58 58 55 52 46 46 43 43 42 40 39 37
41 39 39 38 38 37 40 38 40 43 43 41 39 38 38 38 38 38 38 37 38 42 47 55 58 60 61 62 64 63 63 62 60 59 59 59 59 50 45 44 43 42 41 40 37 36 34 32 30
39 38 34 35 36 38 38 32 39 42 43 41 40 38 38 38 38 38 38 38 41 45 47 53 57 58 60 61 61 61 60 57 50 49 48 47 44 43 42 41 40 37 34 34 32 29 28 27 25
36 31 34 34 36 37 38 35 37 40 41 40 39 38 38 38 38 37 39 42 43 44 47 49 53 56 58 59 56 51 47 46 43 42 42 41 39 37 36 36 35 31 28 27 28 27 28 26 24
27 30 32 32 35 36 35 35 39 39 41 40 40 39 38 38 37 37 39 41 42 44 48 48 51 55 54 49 45 43 41 40 40 38 36 35 34 31 30 30 29 27 24 23 22 23 25 30 25
34 32 31 33 34 33 34 35 37 39 38 38 39 40 39 37 37 38 41 45 48 50 50 49 53 50 49 47 44 42 39 36 33 31 30 28 28 27 26 26 25 24 21 21 22 22 21 24 27
35 33 31 33 33 32 31 31 33 31 32 38 38 39 39 38 37 39 43 49 51 52 53 54 51 49 48 46 42 39 36 32 29 27 25 24 23 23 23 23 23 21 20 20 21 20 18 21 27
31 31 29 30 32 32 31 26 23 27 33 37 39 39 38 38 37 39 44 50 52 53 54 54 50 48 45 41 38 35 32 29 26 23 22 21 21 21 21 21 21 20 20 18 21 19 17 17 23
28 32 31 31 31 26 30 20 25 26 30 35 37 39 38 37 37 40 46 50 52 53 53 51 48 45 42 40 37 36 33 30 30 24 21 19 19 18 19 19 19 19 19 17 19 19 17 21 19
29 31 31 32 31 29 26 24 23 26 26 32 37 38 38 37 38 41 46 50 51 50 50 48 45 44 42 40 38 37 35 32 27 21 18 17 17 17 16 16 15 16 17 16 16 15 15 19 19
33 32 32 34 29 23 24 26 19 19 27 32 36 37 38 37 39 42 48 48 47 46 47 46 45 43 41 40 38 36 32 28 24 22 19 16 16 15 14 13 13 13 14 14 14 15 15 16 15
29 31 23 22 23 19 22 23 22 22 29 34 35 35 36 37 41 44 46 46 44 44 44 44 43 41 39 37 35 32 29 26 23 20 18 15 13 12 11 11 10 11 13 13 14 14 15 16 13
29 29 23 16 17 19 22 20 21 26 26 24 26 34 35 38 42 44 46 44 43 42 42 41 39 36 34 31 28 25 23 22 20 18 15 13 11 11 11 10 10 11 12 12 13 14 15 14 13
31 28 28 24 27 24 23 23 20 24 27 31 34 32 34 39 42 44 43 42 40 39 38 37 34 31 28 25 22 20 19 17 15 13 12 11 11 10 10 10 11 12 13 13 13 14 13 13 13
29 30 25 27 16 16 19 23 17 18 18 15 26 33 37 41 43 42 41 39 37 35 33 31 29 26 22 19 18 16 14 13 11 9 8 8 9 9 10 11 12 13 13 14 14 14 14 13 13
30 29 28 23 23 17 17 17 30 25 19 18 30 36 40 42 42 41 39 37 34 32 29 26 24 20 18 16 15 13 11 10 9 8 8 9 9 10 11 12 13 13 14 14 14 14 13 13 13
31 29 29 21 19 20 26 21 29 30 29 32 36 39 42 43 41 40 38 35 33 30 27 23 19 17 16 15 13 12 10 10 9 9 10 10 10 11 12 13 13 14 14 14 13 13 13 15 15

GFSSGP_sfc_30mbdewp_036.txt.gz
Dewpoint
63 57 44 37 31 28 23 22 29 28 32 33 33 33 33 35 34 33 55 62 65 67 71 71 70 69 68 67 66 64 63 62 60 59 59 60 60 59 56 56 57 57 58 57 61 62 63 64 62
60 53 40 36 27 25 23 26 29 29 30 31 34 37 34 39 48 50 57 63 67 70 71 71 71 70 68 66 66 65 63 61 60 58 57 57 56 57 57 58 58 59 58 57 58 59 61 61 60
54 44 35 31 30 25 23 23 29 30 31 31 35 39 39 42 50 51 55 65 69 70 71 71 72 71 69 67 66 65 64 62 60 57 58 58 57 58 59 58 58 58 57 57 57 57 58 59 60
49 42 37 31 27 31 28 27 31 31 30 32 35 37 44 47 49 51 63 69 69 70 70 71 72 71 70 67 66 65 64 63 61 58 58 59 62 61 59 60 60 60 58 58 57 57 56 56 57
44 40 33 32 29 31 31 32 31 31 28 28 31 34 41 48 52 60 66 69 68 69 70 71 72 71 70 68 67 66 65 64 61 59 58 60 62 64 60 61 61 61 59 59 58 57 58 58 60
44 39 32 29 30 32 32 33 32 29 26 27 32 38 41 47 53 61 66 67 68 69 70 70 72 71 71 69 68 67 66 64 62 58 60 61 62 64 62 62 62 61 60 59 59 59 59 59 60
44 38 34 32 30 30 31 33 31 31 29 27 33 35 40 45 52 58 65 66 67 69 69 70 71 71 71 69 69 68 66 65 62 59 61 63 64 64 63 63 62 62 61 61 62 61 60 61 60
47 40 37 35 32 32 33 34 32 24 24 33 36 34 36 42 51 54 60 64 65 67 69 69 70 71 70 69 69 68 67 66 63 62 64 64 62 65 65 64 64 63 62 62 62 62 60 60 61
46 42 38 37 35 34 35 34 35 35 32 34 35 37 37 45 53 54 57 62 65 66 68 69 70 70 70 69 69 68 68 67 64 63 64 64 61 60 61 62 64 63 63 62 63 62 62 63 63
48 43 40 40 38 36 36 36 36 36 36 36 36 37 45 50 52 51 54 57 62 64 66 68 68 68 69 69 68 68 67 66 65 63 62 62 61 60 59 59 59 62 63 63 63 62 62 60 59
47 43 43 43 44 44 41 40 40 38 38 37 36 37 42 50 52 52 52 56 59 62 65 67 67 67 68 68 67 67 66 65 64 63 62 61 60 60 59 58 58 58 59 59 58 58 57 57 57
39 43 45 46 46 46 45 44 43 41 39 37 38 39 38 38 48 51 52 52 53 57 62 65 67 67 67 68 67 67 66 65 64 63 62 60 60 59 58 56 56 57 57 57 57 57 55 47 43
40 42 42 42 41 43 45 44 45 45 44 44 44 42 40 38 38 41 46 45 48 51 54 61 65 67 67 67 67 66 66 65 64 63 62 61 60 58 55 56 58 58 57 54 46 44 42 39 37
40 40 40 40 39 39 39 40 42 43 44 43 42 40 41 40 38 38 38 38 39 39 41 55 62 65 65 66 66 66 65 65 64 63 62 62 59 57 59 53 45 43 43 42 41 38 35 31 29
41 39 39 39 38 38 38 37 38 40 42 43 43 43 41 40 39 38 38 38 38 38 39 45 59 63 63 64 65 65 64 64 63 62 61 59 59 53 47 44 41 40 39 36 31 30 30 24 24
38 38 35 35 37 37 37 32 35 37 38 41 42 42 42 41 39 39 39 38 38 39 43 49 57 61 61 62 63 63 63 60 57 56 56 53 47 44 43 40 36 31 29 29 28 25 27 23 22
33 30 33 33 36 36 37 34 38 39 38 39 41 42 41 40 39 39 39 38 40 42 45 49 56 59 60 61 61 57 52 49 46 45 43 41 40 39 38 33 29 26 24 23 24 23 28 23 20
27 30 31 31 34 34 34 35 36 37 37 37 39 40 40 40 39 39 38 39 42 44 47 48 55 58 58 52 47 44 44 42 41 39 37 35 32 31 30 26 24 23 21 20 20 20 23 26 24
33 33 31 32 34 33 33 32 33 34 36 38 39 39 40 40 40 39 38 40 42 45 48 50 54 54 51 48 46 44 42 37 34 32 30 29 28 27 25 24 21 21 20 20 18 21 17 22 27
33 31 29 29 32 32 31 30 31 32 32 35 35 37 39 40 39 38 39 44 47 47 49 51 51 50 50 49 45 41 40 32 29 27 25 25 24 24 22 21 20 20 18 19 18 15 15 20 26
31 30 29 27 29 30 30 24 19 22 26 30 30 32 37 39 39 38 40 44 49 50 51 52 50 49 46 42 37 32 30 26 24 23 22 22 22 21 20 20 19 19 19 19 18 17 17 15 19
28 30 31 30 29 24 29 18 20 22 22 23 26 33 37 39 39 39 39 45 50 51 53 51 49 46 42 40 38 36 34 28 25 22 21 19 19 19 19 18 18 18 17 16 18 17 18 18 16
28 31 30 31 30 29 27 24 20 22 21 24 31 33 36 39 39 38 40 44 50 52 52 49 46 43 41 39 37 35 32 27 23 20 17 16 16 16 16 16 15 15 16 15 15 14 15 18 17
33 31 31 32 31 23 24 24 19 18 17 20 26 31 36 39 39 39 42 48 50 51 49 46 44 42 40 39 37 34 28 23 20 18 16 15 16 15 13 13 13 14 14 14 15 15 14 15 14
31 30 22 21 21 17 22 23 21 20 21 24 26 30 36 38 38 41 44 48 49 49 47 45 43 41 39 38 35 30 25 22 20 18 16 14 12 12 11 11 11 13 13 13 15 15 14 15 13
30 28 20 14 15 17 22 21 19 24 24 24 24 27 32 36 39 43 46 48 48 47 46 44 42 39 37 34 31 27 25 23 21 18 15 13 11 11 11 11 12 12 13 13 14 15 15 15 13
30 27 28 24 22 21 22 24 24 23 21 23 29 29 26 33 40 43 46 47 46 45 44 42 39 35 32 28 26 23 22 19 16 13 13 12 11 10 11 12 12 13 13 14 14 15 14 14 14
31 31 26 26 17 15 18 20 17 21 21 20 18 20 31 37 41 45 46 44 43 41 39 36 33 30 26 23 21 18 16 13 11 11 9 9 10 10 12 12 13 13 14 14 14 14 14 13 14
31 29 30 27 25 16 13 12 23 26 31 32 32 20 29 37 42 43 42 39 37 35 34 30 26 24 20 18 15 13 11 9 9 8 9 9 10 11 12 13 13 14 14 14 13 13 13 14 16
29 30 29 24 20 22 19 15 27 30 30 34 35 34 39 42 42 40 37 35 34 32 29 26 22 19 17 15 13 11 10 9 9 9 10 10 11 12 13 13 13 13 14 14 12 12 14 16 17

GFSSGP_sfc_30mbdewp_039.txt.gz
Dewpoint
61 56 43 38 31 29 24 19 30 29 31 34 33 33 34 35 37 36 57 63 64 66 70 70 71 70 68 67 66 65 63 62 60 60 61 62 63 60 56 57 57 58 58 58 61 63 65 64 63
58 51 40 36 27 25 24 25 29 30 31 32 34 37 35 38 48 51 56 62 66 68 70 69 71 70 68 67 66 64 63 61 60 58 58 57 57 57 57 58 58 58 57 58 58 60 61 61 61
51 42 36 30 29 24 23 25 30 31 32 31 35 39 37 40 49 51 57 64 67 69 70 70 71 70 68 67 66 65 63 61 59 58 57 57 57 58 58 58 58 58 57 57 57 58 59 60 59
48 42 37 31 27 30 27 27 30 31 31 31 35 38 44 46 50 52 62 67 68 69 70 71 71 71 69 68 66 65 64 62 59 58 59 59 60 59 60 60 60 60 58 57 57 56 56 57 58
44 40 33 31 29 30 32 32 32 31 30 28 31 33 40 48 53 61 65 68 67 68 70 70 72 71 69 67 67 65 65 64 61 59 59 59 62 63 61 62 61 61 59 59 58 57 58 58 60
43 39 33 30 30 32 32 33 32 31 29 27 32 36 40 48 54 64 67 68 68 69 70 70 71 71 70 68 67 66 65 64 62 59 59 60 62 64 62 62 62 62 60 59 60 60 60 60 60
43 38 34 31 30 30 31 32 31 30 31 30 34 34 39 45 53 64 66 67 68 69 69 70 69 70 71 69 68 68 66 65 63 59 61 62 64 63 65 63 62 62 61 61 62 61 61 60 61
45 40 36 35 32 31 33 34 34 30 25 32 36 33 35 43 53 63 65 65 67 68 69 69 70 69 69 69 69 68 67 66 64 61 63 64 61 65 65 63 63 63 62 62 62 62 62 61 62
46 42 37 35 34 33 36 34 35 35 34 36 35 36 39 49 54 59 62 63 64 66 68 69 70 70 70 69 68 68 68 67 64 63 64 63 62 61 61 62 64 64 63 63 63 63 63 64 62
47 43 39 41 38 36 37 37 36 36 37 37 37 37 45 51 53 53 55 58 62 64 66 68 69 69 70 69 69 68 67 66 64 61 63 63 62 60 59 59 59 60 62 62 62 61 60 58 58
47 41 42 43 44 46 44 43 41 38 38 38 37 38 39 48 52 52 53 55 57 62 65 67 67 67 68 68 68 68 67 66 64 62 61 61 60 60 59 59 59 59 59 59 58 58 58 57 52
40 43 45 45 45 44 44 45 45 42 41 40 38 40 41 41 40 51 52 52 56 59 62 66 67 66 67 67 67 68 66 66 64 63 62 61 60 60 59 57 57 57 58 58 58 54 45 42 38
41 41 42 43 40 40 44 43 44 44 46 45 45 45 44 43 41 39 44 51 52 53 57 63 66 66 66 67 66 67 66 65 64 63 62 61 60 59 56 57 58 57 55 48 45 42 38 33 29
39 40 40 40 40 39 39 40 42 41 44 45 45 45 44 42 42 41 40 39 41 41 44 54 63 67 66 66 66 67 66 66 65 63 63 62 61 58 59 49 46 44 42 40 39 34 31 26 23
41 39 39 39 39 38 38 36 37 39 40 41 43 43 44 44 43 42 41 40 40 40 40 42 55 64 66 66 66 66 65 65 64 63 63 62 59 58 49 44 41 40 37 31 29 30 27 23 21
36 35 33 35 37 38 36 28 34 35 37 38 39 40 41 41 41 42 41 40 40 40 40 42 52 61 64 65 65 65 65 64 64 62 61 59 53 48 44 39 34 31 29 29 25 26 27 22 21
32 26 32 33 36 36 37 34 36 40 38 38 39 40 42 42 42 42 41 40 40 40 41 44 53 59 62 64 64 64 63 60 56 53 49 46 44 43 38 33 28 25 25 25 23 25 27 21 20
26 29 31 32 31 34 32 33 34 35 35 35 36 38 39 40 41 41 41 40 40 42 44 47 54 60 61 62 57 53 51 49 47 45 41 39 37 34 31 28 24 24 23 21 23 20 23 21 22
32 32 30 30 32 31 30 31 32 33 33 34 34 34 36 39 40 41 41 40 40 42 46 49 56 59 57 54 53 50 47 44 41 36 33 32 31 28 26 24 22 23 20 18 17 21 19 20 24
31 30 28 29 30 31 30 29 29 30 30 29 29 31 34 35 39 40 40 40 41 42 47 51 56 56 54 54 51 48 46 43 39 31 30 29 27 25 23 22 21 21 20 18 17 18 18 19 25
31 30 28 27 29 30 28 24 19 20 24 26 29 30 31 33 35 38 40 40 43 45 47 51 53 52 51 45 43 40 39 35 30 26 27 26 23 22 22 21 20 21 21 19 19 20 20 16 22
28 30 30 30 29 23 27 18 19 19 19 19 21 25 29 31 32 36 39 40 44 47 50 51 51 49 45 43 43 43 43 37 30 26 24 22 21 21 20 20 19 19 20 18 17 18 18 19 15
28 30 29 30 29 28 26 25 21 22 21 21 22 24 26 29 31 36 39 40 44 50 52 51 48 46 43 43 44 44 40 32 24 20 19 18 19 18 18 18 19 18 18 17 17 17 17 17 17
32 31 30 32 31 22 23 25 18 18 18 19 20 21 29 33 34 37 39 42 47 51 52 49 46 43 42 41 39 37 31 24 19 18 17 16 16 16 16 16 17 17 17 17 17 17 17 16 17
31 31 21 18 20 16 20 24 20 20 21 21 21 23 26 31 37 39 41 44 48 51 50 47 45 42 40 38 36 31 25 21 19 17 16 15 13 14 14 15 14 15 17 17 18 19 19 19 16
30 28 20 12 14 16 22 20 19 23 24 24 25 25 24 29 35 39 42 46 48 50 48 46 43 40 39 36 30 26 25 23 21 18 16 14 13 13 14 14 14 15 16 16 17 18 18 18 17
29 27 28 22 21 20 17 19 20 20 20 24 24 25 28 28 32 37 44 47 49 49 47 45 42 39 36 32 27 25 23 21 18 16 14 13 13 12 13 15 14 15 15 15 17 16 15 15 15
31 30 25 26 16 15 17 18 16 18 17 21 31 33 33 27 31 40 45 47 48 48 45 42 38 35 31 28 24 22 18 16 15 13 12 12 12 13 14 14 15 15 15 15 14 14 15 14 16
30 28 30 29 27 18 14 13 17 16 20 32 33 35 37 29 34 42 46 46 45 42 40 36 32 29 25 22 19 16 13 12 11 11 11 11 12 13 13 14 14 14 14 14 12 12 14 16 17
28 27 28 24 22 25 22 18 19 27 33 32 33 38 41 40 42 44 41 39 39 36 34 32 27 24 20 17 15 12 11 10 10 10 11 12 12 13 14 14 13 13 13 13 11 12 15 17 18

GFSSGP_sfc_30mbdewp_042.txt.gz
Dewpoint
55 52 46 40 31 28 24 20 27 29 29 34 33 33 35 35 38 35 56 61 62 63 66 69 70 69 68 67 66 66 65 63 62 64 63 66 64 61 57 57 58 59 57 60 62 64 66 65 64
54 46 42 35 27 24 22 24 22 30 31 32 33 34 35 36 44 51 54 61 62 64 66 67 71 70 68 67 66 64 63 61 60 60 60 60 59 57 58 58 59 58 57 58 59 61 62 62 62
52 43 36 31 27 23 23 26 25 31 31 31 35 37 37 39 48 49 56 61 62 64 65 67 71 69 68 67 65 64 62 61 59 58 58 57 58 57 58 58 59 59 57 57 58 58 59 59 58
47 41 36 29 24 27 27 26 30 31 31 32 34 36 41 46 49 52 58 62 62 64 64 70 71 70 69 67 66 64 63 61 59 59 58 59 59 60 60 60 60 59 58 57 57 56 57 58 59
46 39 30 28 25 26 29 30 31 30 30 29 29 33 38 47 51 55 60 63 62 64 64 68 71 70 69 67 66 65 64 62 59 59 60 61 62 61 62 62 61 61 59 59 58 58 59 59 60
39 37 27 24 24 26 30 30 30 29 30 29 28 29 35 49 52 58 61 62 63 65 65 66 70 71 69 68 67 66 65 64 61 59 60 60 62 64 62 63 62 62 60 60 60 61 61 61 61
35 33 25 24 23 25 28 31 30 29 29 28 31 29 36 44 53 60 62 63 64 65 65 65 67 69 69 69 68 67 66 65 62 60 61 62 63 63 63 64 63 62 61 61 62 62 61 60 61
40 34 26 29 25 25 29 31 31 30 28 30 33 26 31 44 55 60 62 62 63 64 64 64 65 66 66 67 68 68 67 66 64 61 63 63 62 64 65 64 63 63 62 62 63 63 62 62 63
47 32 26 27 27 27 34 31 32 34 32 35 34 35 40 46 54 59 59 60 61 63 63 63 65 65 65 66 68 68 67 66 64 62 64 62 58 61 62 63 64 64 63 63 63 63 64 63 62
40 34 29 31 33 32 33 34 33 35 34 33 35 37 42 47 52 54 55 56 59 61 63 63 64 65 65 65 67 66 65 64 62 58 59 58 56 56 57 59 59 61 62 61 61 60 59 58 57
40 36 34 39 38 42 40 40 39 35 33 35 34 36 40 43 48 50 51 51 55 58 61 63 64 67 66 66 66 66 65 63 62 59 57 57 56 54 54 56 56 57 58 58 58 58 58 54 49
38 39 39 40 43 43 42 41 41 38 34 37 40 40 41 41 42 45 50 50 51 55 59 62 63 66 67 67 66 65 65 64 63 61 57 57 56 57 57 56 57 57 57 58 58 52 46 43 41
37 36 38 38 41 39 38 38 39 39 40 42 43 43 43 42 42 43 41 47 51 52 56 59 63 64 66 66 66 65 65 63 63 61 59 58 58 57 57 56 57 57 56 52 49 43 39 39 36
37 38 38 38 38 37 37 36 36 35 36 36 37 39 40 41 41 42 42 42 41 48 49 54 61 63 65 66 66 66 64 63 63 61 59 59 59 59 57 55 50 46 44 42 42 40 37 33 27
40 37 35 35 35 36 37 33 33 34 34 34 35 35 36 37 39 41 42 42 41 40 41 42 51 60 63 65 65 66 63 63 63 61 61 61 61 59 55 50 47 44 41 37 35 33 29 26 24
34 34 29 32 35 34 35 25 27 32 34 34 34 34 34 36 36 38 41 43 43 43 42 42 42 49 59 63 65 64 63 63 63 63 62 62 60 56 49 43 39 37 36 33 28 28 27 25 23
30 24 28 29 34 34 34 30 31 38 35 34 33 35 36 37 36 36 36 39 42 41 41 42 44 46 54 60 62 63 62 62 63 63 62 60 57 51 44 39 33 31 30 29 24 27 24 22 21
23 26 26 26 29 31 30 29 31 33 33 32 33 35 36 37 38 40 40 40 40 41 41 42 44 49 55 59 61 62 62 63 62 60 57 53 50 43 35 33 29 27 27 25 24 23 22 20 20
29 28 28 27 29 28 25 24 25 26 26 27 28 29 30 32 35 38 40 41 43 42 42 44 46 51 56 58 59 61 59 57 56 54 49 46 41 35 30 30 27 26 24 20 19 20 21 20 21
30 28 26 26 27 27 25 24 24 25 25 26 25 24 23 24 26 31 36 39 41 42 43 45 48 53 57 58 57 57 55 52 48 44 41 40 33 30 27 26 25 23 21 20 19 19 19 19 22
29 27 26 25 26 27 26 23 21 20 21 22 23 24 24 24 24 25 26 34 40 42 43 45 49 55 57 56 57 52 48 43 38 37 36 32 28 25 26 25 24 22 21 21 20 21 20 18 20
26 28 29 28 26 23 27 19 19 20 20 21 21 21 23 25 26 27 26 27 36 41 45 46 50 54 56 54 51 49 51 47 39 36 33 30 27 25 23 22 22 21 20 20 18 18 17 18 16
27 29 28 28 27 26 25 25 16 17 18 18 20 20 21 23 24 26 28 29 32 41 46 48 51 53 52 51 52 52 50 46 37 31 26 25 23 22 21 20 20 19 18 18 18 18 17 15 16
31 30 29 28 29 22 19 23 13 8 9 14 18 19 20 21 25 27 28 32 33 40 49 51 51 51 50 51 51 53 48 39 31 25 24 24 23 20 19 18 19 18 18 18 18 18 18 16 17
31 30 21 20 21 16 17 18 18 14 19 20 19 18 21 23 25 29 32 35 37 41 50 51 50 49 49 50 51 48 42 38 33 23 23 20 18 18 18 17 16 17 19 19 19 20 21 20 17
31 26 19 13 12 7 19 16 13 17 22 22 21 19 25 27 28 26 33 38 40 44 50 50 49 47 47 47 46 43 37 28 22 20 18 18 18 18 17 15 15 16 16 17 18 19 18 19 17
27 27 27 23 21 18 13 13 15 15 16 17 19 26 29 29 30 30 30 38 41 46 49 49 48 46 45 44 41 34 27 23 20 18 18 17 16 15 15 15 15 16 16 15 18 15 13 14 14
29 28 24 26 16 13 14 14 14 15 16 18 20 27 28 32 35 31 29 38 44 47 49 49 47 44 42 38 35 29 23 20 18 17 17 16 14 14 15 15 15 15 15 14 13 12 13 12 14
29 29 28 26 25 17 16 15 17 15 15 16 28 28 31 36 38 33 32 41 46 49 49 47 44 41 37 34 28 23 19 17 17 17 16 15 13 13 13 13 13 13 13 11 10 10 12 13 16
25 26 26 24 23 25 23 20 21 20 21 29 28 26 31 39 41 40 40 45 47 47 46 43 39 37 33 27 23 18 17 16 16 15 14 13 12 12 12 12 12 12 11 10 8 9 13 15 17

GFSSGP_sfc_30mbdewp_045.txt.gz
Dewpoint
58 49 44 39 31 29 24 23 21 24 24 27 33 33 34 36 36 37 54 58 59 63 66 69 71 70 68 67 67 67 66 65 65 65 65 66 64 60 58 59 59 58 58 61 64 65 67 67 65
53 45 41 35 28 24 23 23 21 21 28 31 32 34 34 35 41 52 55 58 59 62 66 67 70 69 68 67 67 66 64 62 62 63 65 64 60 58 58 59 59 58 58 58 60 63 63 63 62
52 44 36 32 28 23 21 25 23 26 30 32 32 36 37 38 45 50 55 58 59 62 64 67 70 69 68 67 65 64 62 61 60 60 59 59 58 57 58 59 59 58 57 57 58 59 59 58 58
46 40 35 30 26 25 23 25 23 28 29 32 34 35 39 45 47 51 57 58 59 61 63 70 70 69 68 67 65 63 62 61 59 59 59 58 59 59 59 61 60 58 58 57 56 57 58 59 61
45 37 30 26 23 23 24 26 26 27 28 29 31 33 38 46 50 54 57 58 59 60 65 68 70 69 68 67 65 64 63 60 60 59 60 60 61 61 62 62 61 59 59 59 59 59 59 60 60
36 34 27 24 23 24 23 27 29 28 28 29 29 32 36 49 50 55 58 57 59 60 63 67 70 70 69 67 66 65 64 62 60 60 61 62 62 63 63 63 62 60 60 60 61 61 61 61 61
37 32 26 23 21 20 22 28 28 28 27 27 29 29 35 43 53 56 58 58 59 60 61 65 67 68 69 68 68 67 65 64 61 61 61 62 63 63 63 63 63 61 61 61 62 62 61 60 61
38 33 27 25 20 20 22 27 29 27 27 29 31 28 28 46 54 56 57 58 59 61 60 62 65 66 66 67 68 68 67 66 63 62 64 63 63 64 65 64 63 62 62 62 63 63 63 63 63
44 34 27 26 21 21 26 28 30 30 29 29 29 31 40 45 54 56 56 57 58 60 59 60 62 64 64 65 67 68 67 66 64 61 64 62 59 62 63 63 64 64 63 63 63 63 63 62 62
40 31 27 23 22 24 28 30 29 31 30 28 31 33 39 44 50 52 53 55 57 59 59 59 61 62 64 66 67 66 65 64 61 57 61 58 56 58 60 60 62 62 62 62 61 60 59 58 57
39 33 29 29 36 35 33 31 34 32 32 29 29 32 38 42 45 49 50 51 54 57 59 59 61 61 61 63 68 65 65 63 62 57 57 55 54 56 55 57 56 58 58 58 59 59 57 52 50
35 35 33 34 37 40 39 37 34 33 34 32 33 38 39 39 40 44 47 47 48 52 57 60 60 61 61 63 63 64 64 63 62 59 55 55 54 52 54 55 56 57 56 56 57 52 49 47 44
36 36 34 35 37 38 39 37 36 36 37 37 36 38 40 41 40 40 42 46 47 49 53 57 59 61 63 63 63 61 63 63 61 60 56 55 55 55 55 55 55 55 56 54 51 48 45 44 41
35 36 35 35 35 36 36 35 34 33 34 34 35 36 37 40 40 40 41 41 44 47 50 54 58 59 62 64 65 63 61 63 62 60 58 56 56 56 56 56 55 52 50 48 47 45 42 39 34
38 36 34 33 34 34 35 33 32 33 33 32 32 32 32 34 36 38 40 42 42 41 47 48 53 57 59 62 65 66 62 62 62 61 58 58 58 59 58 55 53 50 47 44 42 38 35 30 29
34 33 28 29 31 31 32 27 26 30 30 31 31 31 31 32 32 34 37 40 42 42 41 42 43 52 57 59 64 65 63 62 63 62 59 59 60 59 55 53 48 45 43 40 36 32 31 29 26
29 25 26 25 30 31 32 29 28 32 33 30 30 30 30 31 32 32 34 37 41 42 43 42 43 44 49 57 60 63 62 60 63 62 60 60 60 58 52 48 42 41 38 35 29 30 26 25 24
23 25 24 23 27 29 28 27 28 30 30 31 32 32 32 31 33 35 33 34 35 39 41 41 43 45 46 52 59 60 59 61 62 62 61 61 59 54 47 42 38 36 33 30 29 27 25 23 22
28 26 25 25 26 26 25 24 24 24 24 25 26 27 27 29 32 34 36 38 38 38 40 41 42 44 47 52 56 58 59 62 63 63 61 59 55 47 43 38 35 32 30 27 25 24 24 24 23
29 27 25 25 25 26 24 23 24 24 24 24 24 24 25 25 27 28 31 36 38 39 42 42 42 44 49 53 56 57 60 58 57 56 56 52 47 42 37 34 32 28 25 23 23 24 23 23 22
28 26 25 24 25 25 25 23 21 22 24 25 25 25 25 25 24 23 23 29 37 39 40 42 42 46 51 54 57 58 54 50 46 47 45 42 41 37 34 32 29 27 27 26 25 25 24 22 21
25 26 26 26 26 23 26 21 21 19 19 20 21 21 22 23 23 24 24 23 28 37 42 43 44 47 52 56 56 56 53 49 44 44 42 39 35 34 31 29 27 26 25 24 22 21 19 20 19
27 28 27 27 26 26 25 23 19 15 12 14 17 19 19 20 21 22 24 27 27 30 41 45 46 48 54 55 56 54 51 51 43 40 37 35 33 28 26 26 26 25 24 21 22 20 18 17 18
31 29 28 27 27 24 22 21 16 8 8 11 11 16 19 19 20 21 24 27 29 33 39 47 47 51 54 56 53 52 53 44 38 35 35 34 31 27 25 24 24 22 23 22 21 21 20 19 20
31 28 23 23 22 17 14 14 16 13 14 15 15 17 16 18 20 22 24 27 29 32 35 47 49 50 53 52 52 52 52 42 38 36 35 30 27 24 23 22 21 22 22 21 21 24 25 23 21
29 28 21 16 13 12 15 14 12 13 18 19 19 20 19 19 23 28 29 28 31 36 37 46 49 50 50 51 52 54 46 42 39 34 28 25 25 23 21 20 20 19 19 19 22 23 21 22 20
29 28 27 23 21 18 13 10 12 14 15 16 17 19 21 23 27 31 33 32 32 37 39 46 49 49 49 51 52 47 44 38 32 26 24 22 22 20 20 19 17 17 17 17 20 18 15 15 16
28 27 24 26 17 13 11 13 14 16 17 18 18 19 22 26 30 33 32 32 30 38 41 48 48 48 49 50 47 42 33 26 22 22 21 21 21 19 19 18 17 16 16 15 14 14 14 13 14
28 27 26 23 23 16 15 15 17 18 18 17 19 19 25 27 31 36 33 31 33 40 44 47 48 47 47 45 38 32 26 21 20 19 18 18 18 18 17 16 15 14 14 12 11 11 11 13 15
26 26 26 24 20 24 23 21 22 22 21 21 21 24 26 25 34 38 37 37 40 44 48 48 46 45 42 37 32 26 21 20 19 19 18 18 17 15 14 13 12 12 11 10 9 9 11 14 15

GFSSGP_sfc_30mbdewp_048.txt.gz
Dewpoint
61 54 47 43 36 32 28 28 25 22 23 24 30 32 32 34 41 46 58 58 66 68 70 71 71 70 69 67 67 67 67 66 67 67 67 65 63 59 60 59 59 58 61 64 66 66 67 66 65
58 52 44 40 33 29 27 28 24 20 28 31 31 31 32 36 51 53 57 59 64 67 69 70 71 70 69 68 67 66 65 65 65 65 66 64 60 59 59 59 58 58 59 61 64 64 64 63 62
57 51 40 36 32 29 26 25 24 22 29 30 30 30 33 42 49 53 58 59 63 66 67 69 70 70 68 67 67 65 63 62 63 63 64 61 59 58 58 60 58 58 57 59 60 60 60 59 59
48 45 39 31 29 29 28 27 25 28 28 30 32 33 40 48 47 56 57 59 61 64 68 70 70 69 68 67 65 63 62 61 61 59 59 58 58 58 60 60 58 58 57 57 58 59 59 61 61
44 43 33 28 27 29 28 25 26 26 27 29 31 31 42 49 53 56 57 58 60 67 69 69 70 69 68 66 64 63 62 60 60 60 59 61 61 61 62 61 59 59 58 58 59 60 60 61 61
39 38 31 30 28 26 25 24 26 28 28 28 28 29 43 50 53 56 57 57 60 68 67 69 70 69 68 66 65 64 62 61 61 61 61 62 62 63 63 63 60 60 60 61 61 61 61 61 61
39 34 30 28 27 24 24 24 26 27 27 28 28 27 41 48 55 57 57 57 59 66 67 68 69 69 68 67 67 66 64 62 62 62 62 63 64 64 64 63 62 61 61 62 62 62 61 61 62
39 37 33 29 25 24 24 22 28 28 27 29 30 28 37 52 55 57 56 58 59 61 66 67 67 68 68 68 67 67 66 64 63 63 64 63 62 63 65 64 63 62 62 63 63 63 63 63 63
39 35 32 31 28 26 24 25 29 29 29 28 29 30 41 50 55 56 56 57 59 60 61 64 67 66 66 67 68 67 67 65 63 63 64 62 61 64 65 63 63 63 63 63 63 63 63 63 62
40 38 37 33 28 28 30 27 28 29 28 28 30 31 42 44 52 55 55 56 58 59 59 61 65 65 65 66 67 67 66 65 63 61 63 62 60 63 63 63 64 63 63 62 62 61 60 60 60
39 38 34 30 29 36 36 34 31 31 30 32 29 30 37 42 45 51 53 55 57 59 59 58 62 64 64 66 67 66 65 64 62 57 61 60 58 59 60 60 61 61 61 60 61 59 58 50 49
36 37 36 36 35 37 38 37 37 33 33 34 34 34 38 39 42 45 49 50 54 57 59 59 60 61 65 67 67 66 65 64 62 57 58 56 56 55 54 58 57 58 57 59 57 51 48 47 45
34 34 35 35 35 35 38 38 38 38 37 36 36 36 38 39 40 41 45 47 48 53 57 59 60 60 62 63 66 65 65 64 62 61 56 56 55 53 54 57 57 57 55 54 51 48 46 43 39
35 35 36 36 34 35 34 35 36 35 35 35 36 36 37 38 40 41 41 41 43 47 55 59 59 60 62 63 63 63 64 63 62 61 57 56 56 56 56 56 55 54 51 50 49 46 41 38 31
38 36 37 36 35 35 35 33 34 35 35 34 33 33 34 35 37 40 41 41 42 42 49 55 58 59 62 63 64 65 64 63 62 61 58 56 57 58 58 55 53 51 48 46 41 38 33 31 30
37 36 33 31 33 33 33 30 31 33 33 33 33 32 32 33 34 34 37 39 41 43 43 49 55 58 60 62 65 65 65 63 63 61 59 57 60 59 56 54 52 47 45 41 36 34 32 29 27
32 27 29 29 31 30 30 29 31 31 31 32 31 31 31 31 32 32 33 35 38 43 43 44 48 53 57 61 65 65 65 63 63 62 60 59 60 58 54 50 45 44 40 35 32 28 27 26 25
25 27 26 24 29 30 29 29 29 29 28 30 33 32 31 31 31 32 32 33 36 38 43 43 45 44 49 58 64 65 64 63 63 62 61 60 60 55 51 44 42 38 34 31 31 27 26 25 24
28 27 26 25 26 25 25 25 25 26 26 25 27 28 29 31 33 33 33 35 34 35 39 43 44 44 45 47 58 62 61 62 63 63 61 61 59 51 44 41 37 35 33 30 27 27 27 24 23
27 27 27 26 25 25 24 24 25 25 24 24 24 24 25 27 28 29 31 35 36 38 38 38 43 45 46 47 54 59 60 59 59 61 61 58 51 46 41 37 33 30 26 24 25 27 24 25 23
28 27 26 25 26 26 25 23 23 24 25 26 26 25 25 25 25 26 26 29 34 36 39 40 43 43 47 50 56 55 54 52 52 50 47 46 43 41 41 38 32 28 28 27 27 26 26 24 22
26 27 26 26 25 23 26 22 22 20 20 22 23 25 26 26 26 26 26 26 27 35 38 40 43 43 47 52 56 56 56 55 50 47 46 43 41 40 39 37 32 30 28 26 24 24 22 24 21
26 29 27 27 26 25 25 23 23 20 17 15 18 21 22 23 24 24 25 26 27 29 38 39 42 43 47 53 56 56 53 48 47 44 42 40 40 39 36 31 29 27 25 22 22 21 19 20 21
30 28 28 28 27 23 24 22 20 16 14 13 13 17 19 20 21 22 24 27 29 31 31 38 44 45 49 55 57 54 50 46 43 39 39 38 36 31 28 27 26 25 25 23 23 22 21 21 20
30 26 24 24 22 17 18 22 20 17 16 17 16 16 18 17 18 21 26 29 28 28 33 33 43 46 52 56 56 53 47 44 41 39 38 34 31 29 29 27 25 25 25 23 25 26 25 24 23
29 28 23 18 18 19 21 15 14 16 16 18 19 19 20 20 21 22 31 33 33 34 33 35 44 48 54 55 53 52 43 41 39 39 36 33 30 29 28 26 25 23 23 24 26 26 25 24 25
29 27 28 24 21 18 16 12 12 12 12 14 17 19 20 21 22 29 33 33 33 35 35 36 46 50 54 53 53 46 42 39 38 35 33 31 28 25 24 22 20 20 20 21 24 22 18 17 17
28 28 24 25 16 15 15 13 13 16 18 19 18 18 20 22 26 30 35 36 34 34 38 38 49 50 51 52 47 43 41 38 33 29 29 27 22 22 21 21 19 18 17 17 18 16 14 14 15
29 28 26 25 23 18 16 16 19 20 22 22 22 22 22 26 27 32 37 38 37 35 40 42 49 49 51 49 40 31 28 27 26 25 23 22 21 21 20 20 17 16 15 14 13 12 13 13 15
29 27 27 22 19 23 25 21 23 23 23 24 25 25 25 27 27 36 38 39 39 39 43 47 49 49 42 34 29 24 23 21 20 19 19 20 19 18 17 16 15 14 12 10 9 10 12 14 15

GFSSGP_sfc_30mbdewp_051.txt.gz
Dewpoint
61 58 54 44 35 36 31 31 33 29 23 30 31 31 32 37 40 43 60 67 69 70 71 72 71 70 69 69 69 69 68 68 68 67 66 64 62 61 60 59 59 62 64 65 62 63 66 66 65
60 56 48 41 34 30 29 31 30 27 30 30 30 29 31 47 52 56 63 68 69 70 71 71 71 70 69 68 68 67 67 67 67 67 66 63 61 60 60 58 58 61 63 65 65 65 65 64 63
58 55 43 38 33 30 29 29 27 27 29 29 29 31 33 46 53 56 61 67 69 70 71 71 70 70 69 68 67 66 65 65 65 66 64 62 60 59 59 59 58 58 61 63 63 62 61 60 60
51 47 42 34 32 31 29 27 29 28 28 30 32 33 45 51 53 57 63 67 68 68 70 71 70 70 69 68 66 64 62 63 63 65 62 59 59 60 60 58 58 58 59 60 60 60 61 61 61
46 45 37 33 30 31 31 31 29 27 27 29 31 31 45 54 57 57 62 66 66 68 70 70 70 70 68 66 65 63 61 61 61 61 59 59 60 62 61 59 59 58 58 59 60 60 60 61 61
39 41 36 33 31 29 29 29 27 27 28 28 29 29 46 55 56 56 59 65 67 68 68 69 70 69 68 66 65 64 62 61 61 61 61 62 62 63 63 60 60 60 60 61 61 61 61 61 61
38 36 34 32 31 30 30 30 26 27 28 28 29 27 46 51 56 57 59 67 68 67 68 69 69 68 67 66 66 64 63 63 63 63 63 64 64 64 64 62 60 61 61 62 62 61 61 61 62
39 39 34 32 29 28 28 26 26 28 28 29 30 27 48 54 57 57 57 67 67 67 68 68 68 68 67 67 67 65 64 64 64 64 64 63 63 65 65 64 62 61 62 63 63 62 62 62 62
40 36 35 35 34 31 30 30 29 29 28 29 30 39 51 55 57 56 58 62 66 67 67 67 68 68 68 67 67 67 65 64 63 64 63 62 62 65 65 64 63 63 63 63 63 63 63 63 62
38 36 36 36 34 32 32 35 33 29 28 28 29 42 47 54 55 55 57 58 61 65 66 67 67 67 67 67 67 67 66 64 63 63 63 62 61 65 64 64 63 64 63 63 63 62 61 60 60
38 36 39 38 37 35 37 35 37 32 30 29 28 32 42 50 53 55 56 57 58 61 64 66 66 66 66 66 67 67 66 64 62 61 62 62 60 64 63 63 63 63 62 62 63 61 59 51 58
38 38 37 37 38 37 37 39 38 38 34 37 35 35 38 42 48 52 55 56 58 59 59 66 66 65 65 66 66 66 65 64 62 59 61 60 59 61 61 60 61 60 61 59 59 58 49 47 43
35 36 37 37 36 35 36 37 38 38 39 39 38 37 36 39 40 43 48 51 56 59 59 61 64 64 65 66 66 65 65 64 63 58 59 58 57 58 57 57 57 58 58 58 54 48 46 40 34
38 36 36 37 37 36 35 34 35 36 37 36 35 35 36 37 40 41 41 42 47 56 59 59 62 63 65 66 66 66 65 64 62 59 58 57 56 53 53 56 57 55 54 52 49 47 41 33 30
39 36 37 37 37 36 35 33 34 36 37 36 36 35 34 34 36 39 40 41 42 43 57 59 59 62 64 64 65 65 65 64 62 61 57 56 55 54 56 55 54 51 49 46 39 36 32 30 28
36 37 34 35 34 36 35 30 33 35 35 35 35 35 35 34 34 34 36 38 41 42 49 59 59 60 63 63 64 65 64 64 62 61 57 56 56 58 56 54 52 50 47 41 37 33 30 28 27
33 29 31 33 32 33 34 31 33 33 32 32 33 34 34 34 33 33 34 35 36 40 42 52 58 59 62 63 64 64 65 63 63 61 58 57 59 57 55 52 48 45 39 35 31 28 28 25 24
28 30 28 27 30 30 30 30 31 32 30 29 30 33 33 33 33 33 33 34 35 36 40 43 51 58 61 63 64 64 64 64 63 61 59 59 59 55 52 47 44 39 34 33 29 25 26 25 22
31 28 27 28 28 25 26 28 27 27 27 26 27 27 29 31 33 34 33 33 33 35 37 41 44 52 57 63 64 63 63 64 63 62 61 60 56 53 49 46 40 35 32 30 28 27 25 21 23
32 28 27 28 27 26 25 25 26 26 26 26 26 26 27 28 29 30 31 32 34 34 35 38 44 45 51 59 63 63 63 62 62 63 61 60 54 49 46 42 37 34 31 27 26 25 25 24 22
29 28 28 26 27 26 25 21 23 25 26 26 26 26 25 25 26 28 28 29 30 34 36 38 40 44 44 48 58 57 56 55 58 57 55 53 50 46 43 39 35 29 28 26 26 26 26 23 22
27 28 28 27 26 22 26 19 23 20 18 21 24 26 26 26 26 26 26 26 27 28 34 37 40 43 45 50 56 58 59 59 57 53 48 46 45 45 42 39 33 32 30 27 26 26 25 25 20
28 29 28 27 26 25 24 20 19 24 19 18 16 18 25 26 27 26 27 27 27 28 29 35 39 41 45 49 55 57 58 54 50 47 45 45 43 42 41 37 34 33 32 27 23 21 22 23 22
30 28 28 28 26 21 22 21 16 18 17 15 17 17 21 23 22 25 25 27 29 30 30 34 38 41 44 49 56 57 54 51 48 44 44 43 43 41 35 33 34 32 30 28 24 21 20 20 20
29 26 22 21 21 15 23 23 20 22 20 19 18 17 19 18 18 20 29 32 32 32 33 33 35 38 44 50 56 54 52 51 48 44 43 42 36 34 31 30 32 31 30 27 26 24 24 23 20
29 26 21 15 20 20 22 20 18 18 20 18 19 18 19 20 21 21 32 33 33 33 34 34 34 37 46 55 55 51 49 48 46 44 41 41 34 32 31 31 31 29 28 28 27 26 25 24 23
29 26 28 23 22 19 18 16 14 16 18 17 18 19 20 21 22 26 33 35 34 34 35 35 35 40 52 54 50 46 46 45 44 41 38 37 34 30 29 29 29 29 28 27 25 24 20 20 20
28 29 24 23 10 10 16 15 13 18 21 22 22 24 24 25 25 30 36 36 35 35 38 37 37 43 54 53 46 43 44 43 41 37 33 31 27 26 27 26 25 24 24 23 22 18 16 15 17
29 28 26 24 22 17 16 15 19 20 22 23 25 27 27 26 26 27 36 37 37 37 39 40 42 50 52 46 42 42 40 38 36 34 29 26 25 25 24 23 22 20 18 17 15 16 14 13 15
30 28 26 20 16 23 23 21 23 22 24 27 27 33 33 34 29 28 37 37 37 39 41 42 49 50 41 37 38 35 34 31 32 29 25 23 22 22 21 21 20 16 14 13 15 15 12 14 15

GFSSGP_sfc_30mbdewp_054.txt.gz
Dewpoint
60 57 54 44 34 35 31 31 33 29 28 30 31 31 35 41 40 37 61 66 70 71 71 72 72 72 71 70 69 69 68 67 66 65 65 63 63 62 60 61 62 62 62 62 60 63 66 66 65
59 54 46 41 34 28 27 32 28 29 30 30 30 29 34 46 53 62 63 69 70 70 71 71 71 71 70 69 69 68 68 68 67 66 65 63 62 61 60 58 61 62 64 63 63 66 66 65 64
57 55 41 37 34 29 25 29 29 28 29 29 28 31 41 46 54 61 66 69 70 70 71 71 71 70 69 69 69 68 68 68 68 67 64 62 62 60 59 59 59 63 65 65 65 64 63 62 61
50 48 42 36 34 32 31 30 29 28 28 30 31 35 47 52 56 61 68 69 69 70 70 71 71 70 69 69 67 67 67 66 66 66 63 62 60 60 58 58 58 62 63 63 62 61 61 61 61
46 44 37 35 33 33 33 32 31 30 28 29 31 33 46 54 57 67 68 69 68 70 70 71 70 70 69 68 66 65 65 64 66 64 62 59 60 60 59 59 58 59 61 61 61 62 62 61 62
40 42 36 29 30 31 31 31 30 28 28 29 30 39 46 56 61 65 68 67 68 69 70 70 70 70 69 67 65 64 64 63 64 62 59 60 62 62 59 60 58 59 60 61 61 61 61 61 62
38 38 37 33 31 31 30 32 29 28 27 28 29 33 49 55 57 63 66 67 68 69 69 69 69 69 68 66 66 64 64 63 62 63 63 63 64 63 61 60 60 61 61 61 61 61 61 61 62
39 38 34 33 32 30 31 28 27 26 26 30 29 40 49 53 57 63 66 67 67 67 68 69 68 68 67 66 66 64 64 64 63 64 64 65 65 65 64 62 62 61 62 62 62 61 61 62 62
40 36 34 32 31 30 31 32 31 30 28 28 31 42 49 55 57 63 66 66 66 67 68 68 67 67 66 66 66 65 64 65 65 64 64 63 64 65 65 63 63 63 63 63 63 63 63 63 62
39 36 36 37 36 34 33 35 34 31 28 28 38 48 55 56 56 58 64 65 65 65 67 67 67 67 67 66 66 65 64 64 64 64 63 62 62 65 64 63 63 64 64 64 63 63 63 62 60
39 37 37 38 39 38 37 37 38 34 29 30 34 49 51 55 56 57 61 64 65 66 66 67 66 67 66 66 67 66 65 63 62 63 62 62 61 65 64 63 63 64 63 63 64 62 60 54 58
38 38 37 37 38 38 36 38 38 38 35 38 39 37 37 48 52 55 58 60 62 65 65 66 66 66 66 66 66 66 65 63 62 61 62 61 60 64 62 63 62 62 61 60 60 59 52 46 46
37 37 37 38 38 37 36 37 38 38 39 39 38 37 37 37 42 48 54 57 59 62 65 66 66 65 65 66 65 65 65 64 62 59 60 61 59 62 62 61 61 60 60 59 58 55 46 38 32
38 36 36 37 37 37 36 35 35 36 38 37 37 36 36 36 37 40 42 49 55 59 61 65 66 65 65 66 65 65 65 64 63 60 58 59 59 61 60 59 58 58 58 57 55 48 41 32 29
39 37 37 37 37 36 36 34 34 36 36 36 35 36 36 35 35 36 38 41 42 52 59 62 65 65 64 65 65 65 65 64 63 61 58 58 57 58 58 57 56 56 54 52 46 37 32 30 27
37 36 33 35 35 35 35 31 34 35 35 35 35 35 35 35 35 35 35 37 39 42 47 60 63 64 64 65 66 66 65 64 63 61 58 57 56 55 55 55 55 51 49 43 37 33 30 28 26
33 30 31 32 34 34 34 32 32 34 34 32 33 33 33 34 35 35 35 35 35 37 41 54 60 63 64 65 65 65 65 64 63 61 58 57 56 56 55 55 53 49 44 39 35 31 29 26 24
31 30 30 29 28 32 31 33 33 32 32 32 32 31 31 33 34 35 35 35 35 35 37 42 58 61 63 64 64 65 64 64 63 61 58 56 57 56 55 53 49 44 39 34 30 28 26 25 22
31 30 28 28 29 26 25 25 27 29 29 28 28 28 28 29 32 34 34 33 34 34 34 38 44 59 62 63 63 64 63 63 63 62 59 58 58 56 54 50 44 39 36 33 28 26 23 20 23
34 32 30 29 28 26 26 25 26 26 26 26 26 26 27 27 28 30 32 33 33 33 33 35 40 48 60 63 63 63 63 64 63 62 61 59 57 54 52 47 41 36 34 30 27 26 25 22 22
32 29 28 27 27 27 25 20 20 23 25 26 26 27 27 27 26 27 29 29 30 31 34 35 36 43 55 61 62 60 59 58 60 61 61 60 56 53 51 45 40 35 32 30 27 27 25 22 21
27 28 28 27 26 21 26 15 21 21 22 22 23 25 26 27 26 26 27 27 28 29 31 34 37 40 46 57 61 60 59 59 60 60 57 55 52 52 49 44 41 37 34 29 28 28 29 25 20
28 28 27 27 26 24 24 22 17 22 18 19 17 17 19 26 27 27 27 27 27 27 28 30 33 38 44 51 60 60 59 59 55 54 54 51 49 50 46 43 39 37 35 31 29 29 28 25 23
30 28 28 28 25 18 21 22 14 17 17 15 17 19 19 22 25 26 27 28 28 30 30 30 33 38 41 47 55 59 59 55 53 51 50 47 47 48 45 39 39 38 34 33 30 26 24 22 22
28 24 20 18 19 11 23 23 19 21 21 22 21 20 19 21 21 25 29 31 32 32 33 33 32 31 37 43 51 56 57 55 53 51 49 47 44 42 41 40 38 36 33 29 27 26 25 22 19
27 24 18 9 16 20 22 19 16 21 20 18 19 22 24 25 24 23 31 32 32 32 32 34 34 34 34 40 50 56 55 54 52 50 48 47 44 40 38 37 36 33 30 30 30 28 26 24 21
29 25 27 23 20 19 19 18 15 21 21 22 25 26 27 28 28 27 30 34 34 33 33 34 35 36 36 40 53 53 52 51 49 46 46 42 40 38 37 35 32 30 30 29 29 27 24 22 20
27 29 24 22 9 6 14 16 11 18 21 22 26 27 30 34 33 30 30 35 35 35 34 37 39 39 38 49 50 49 49 48 46 44 43 40 37 35 35 32 29 29 28 27 25 20 19 18 18
29 27 26 23 20 14 13 10 19 19 23 25 27 29 34 36 35 34 35 32 36 36 35 35 40 43 49 49 46 46 46 45 44 43 40 36 33 32 29 26 26 26 24 22 20 19 16 15 16
30 28 25 20 16 22 22 16 24 24 24 26 27 32 36 37 36 36 33 35 38 38 41 43 46 49 47 44 43 43 42 42 40 39 35 32 30 28 26 24 23 23 22 16 16 16 19 22 20

GFSSGP_sfc_30mbdewp_057.txt.gz
Dewpoint
60 56 53 43 34 35 31 29 33 29 29 28 30 32 34 38 38 35 61 67 69 70 71 72 72 72 72 71 71 71 70 69 67 66 65 65 63 63 63 64 64 62 59 63 62 66 66 65 65
59 53 45 40 32 27 27 32 28 29 30 30 30 32 40 42 54 61 64 69 70 70 71 72 72 72 71 70 69 69 68 67 66 66 64 64 63 62 60 61 61 61 60 61 62 64 66 66 64
55 52 42 37 34 27 23 29 29 29 29 30 29 33 40 45 54 61 64 70 70 70 71 71 72 71 70 70 69 68 68 68 67 66 64 64 62 61 59 60 61 64 64 64 65 66 65 64 62
50 47 41 36 32 33 29 30 29 30 30 29 31 41 47 52 57 61 69 70 69 70 71 71 71 71 70 70 69 69 69 69 68 66 64 63 61 60 59 59 62 63 65 64 64 63 62 61 61
47 44 38 36 34 35 34 33 32 31 30 30 29 35 45 55 60 67 69 69 69 70 70 71 70 70 69 69 68 68 67 67 68 65 64 61 60 59 59 59 61 63 63 63 63 63 62 62 62
43 42 36 32 33 33 32 32 31 29 28 28 29 42 47 57 65 67 69 69 69 69 70 70 70 70 69 67 68 67 66 66 67 64 63 60 61 59 59 59 59 61 62 62 62 62 62 62 62
40 40 37 32 30 29 31 32 30 29 29 27 29 41 49 56 65 68 68 68 69 69 69 70 70 70 69 68 66 66 66 66 66 64 62 63 63 61 60 59 59 60 61 62 61 61 61 61 62
39 38 35 35 30 28 31 30 29 27 28 29 33 40 49 55 63 66 67 68 69 69 69 69 69 69 68 67 66 65 65 64 65 64 63 64 64 63 61 62 62 61 61 62 62 61 61 62 62
40 36 34 32 33 32 32 32 33 32 29 29 30 41 48 56 65 65 66 66 67 67 68 68 68 67 66 66 66 65 65 64 64 65 64 64 64 65 63 62 62 63 62 62 62 62 62 63 62
38 35 35 36 34 33 33 35 36 34 32 28 37 49 55 58 64 64 64 64 64 66 67 67 67 66 66 65 65 64 64 65 64 64 64 64 64 65 64 62 63 63 63 64 63 63 64 62 60
39 35 36 38 38 38 37 37 38 36 32 31 35 40 49 56 61 63 64 64 65 65 65 66 66 66 65 65 65 64 64 63 63 63 63 62 62 64 64 63 63 63 64 63 64 63 60 57 58
37 38 38 38 38 38 37 37 37 37 36 37 39 38 37 47 55 60 63 64 65 65 66 66 66 66 65 65 65 65 63 63 62 62 62 61 60 63 63 62 62 62 62 61 62 60 55 50 50
38 38 38 38 38 38 37 36 37 38 38 40 39 38 37 37 39 49 57 62 65 65 65 66 66 66 65 65 65 65 64 63 62 61 62 61 60 62 63 62 62 61 60 59 59 57 47 39 34
38 37 37 36 36 37 36 36 36 36 38 38 38 37 37 36 36 38 45 53 60 64 65 66 66 65 65 65 65 65 65 64 62 60 60 61 60 61 62 61 61 60 59 59 58 53 41 31 28
39 37 37 37 37 36 36 34 35 36 36 35 35 36 36 36 36 35 36 41 51 59 63 65 65 65 65 65 65 65 65 64 63 61 58 60 60 60 61 60 59 58 58 57 53 43 33 30 27
38 37 35 36 37 36 35 29 33 35 35 35 35 35 35 36 36 36 35 36 39 43 57 62 66 65 65 65 65 65 64 64 63 62 59 58 58 59 59 59 58 56 55 52 44 36 31 29 27
34 32 33 34 35 34 35 32 33 34 34 34 34 34 33 33 34 35 36 36 36 39 41 58 64 65 65 65 65 65 65 64 64 63 60 58 57 57 58 57 57 53 50 45 37 32 31 28 25
31 31 30 30 28 31 32 33 34 35 33 33 34 34 33 33 33 33 35 36 36 36 38 42 60 63 65 64 65 65 65 65 64 62 60 58 57 56 56 55 54 50 45 40 34 31 27 26 22
32 31 29 29 29 27 26 26 27 28 28 28 30 32 32 31 32 32 33 35 35 35 35 38 48 60 63 64 64 64 63 64 64 63 61 58 57 56 55 54 51 47 43 38 33 28 26 22 23
33 31 30 30 29 27 26 26 26 27 27 27 27 27 28 28 28 29 30 32 33 34 34 35 41 56 61 63 64 63 64 64 64 63 61 58 58 57 55 53 49 45 40 34 29 29 24 22 23
33 32 30 28 27 27 25 22 22 23 24 25 26 27 27 27 27 27 28 29 31 32 33 34 35 43 58 62 63 62 61 60 61 62 62 59 58 57 55 52 48 43 40 35 32 29 27 22 20
30 28 28 27 26 23 26 18 20 19 20 22 23 23 25 26 27 28 27 27 28 29 30 32 34 37 50 60 62 61 60 59 61 62 62 60 57 56 55 52 47 43 43 39 36 32 29 25 20
28 28 27 27 25 24 24 21 15 19 18 18 19 19 20 22 25 27 27 27 28 28 28 29 31 35 41 51 60 61 59 59 59 59 60 56 54 56 53 50 44 42 42 41 37 36 32 28 25
30 27 27 28 24 17 21 20 10 15 17 16 21 19 22 23 23 24 29 28 28 29 29 29 30 32 36 45 57 61 60 58 56 56 56 54 52 52 51 48 47 45 43 39 39 37 33 27 26
27 25 18 14 17 10 23 22 17 21 23 23 21 24 27 29 30 29 24 31 32 32 32 32 32 31 35 41 48 56 59 57 56 56 56 52 51 49 48 46 45 44 42 39 35 31 27 26 24
27 24 15 5 12 18 22 19 17 21 20 20 26 28 31 33 32 31 29 31 33 33 33 34 33 33 34 35 41 50 56 57 55 54 54 52 51 48 45 45 43 42 37 34 32 30 27 25 22
28 25 25 22 19 19 19 18 14 21 22 26 27 28 31 34 35 34 32 33 34 34 34 33 34 34 34 35 39 47 54 55 54 52 51 49 46 44 44 42 40 36 34 31 29 28 25 22 21
27 28 22 22 13 4 10 14 9 19 22 25 25 28 31 35 37 37 35 34 35 35 35 35 35 36 38 39 43 48 52 53 51 49 47 44 43 42 41 38 35 32 31 29 27 24 23 20 21
28 27 25 23 19 11 8 5 19 18 23 24 26 28 32 36 38 38 37 37 36 36 37 37 37 39 41 46 47 48 49 48 47 46 44 42 40 39 37 34 32 29 27 24 21 20 19 19 21
29 27 25 18 17 21 20 12 23 24 24 25 27 31 35 37 39 38 37 39 39 40 45 46 46 47 48 46 46 46 45 45 44 42 40 38 38 36 33 30 27 25 22 20 19 18 20 21 24

GFSSGP_sfc_30mbdewp_060.txt.gz
Dewpoint
59 55 51 42 34 34 29 27 32 29 28 28 31 31 33 35 39 36 61 67 68 69 72 73 72 72 72 72 72 72 71 69 69 67 66 65 65 65 65 65 64 62 61 62 65 66 65 65 64
58 52 44 40 31 26 26 32 28 30 30 30 30 35 39 40 55 61 63 67 69 70 72 72 73 72 72 72 71 71 70 69 68 67 65 64 63 62 63 62 62 59 61 62 63 66 67 65 64
54 49 41 38 34 27 23 27 28 30 31 29 29 33 36 43 55 61 64 69 69 70 71 72 72 72 72 71 70 70 68 68 67 66 65 64 63 61 61 61 60 62 60 62 63 66 66 64 61
50 46 41 35 32 33 27 29 30 31 30 30 30 33 45 51 56 62 68 69 70 70 71 72 72 72 71 70 69 69 68 68 67 66 64 63 63 59 60 61 62 65 66 66 66 64 63 62 60
46 44 36 36 34 35 34 33 33 31 31 31 29 28 42 55 62 67 69 69 69 70 71 72 72 71 71 70 69 70 69 69 68 65 64 63 61 60 60 61 64 62 63 64 63 63 62 62 62
43 41 35 32 34 34 34 34 33 31 30 28 28 34 46 60 65 67 68 68 68 68 70 71 71 70 69 69 69 69 67 69 68 65 64 62 61 59 59 60 63 63 63 63 63 63 62 62 62
41 40 35 32 32 31 32 32 31 29 29 28 31 34 45 57 66 67 67 69 67 68 70 70 70 70 69 66 68 67 67 66 68 66 64 62 62 60 59 59 60 63 63 63 62 61 61 61 61
40 40 35 35 29 29 30 30 30 29 27 29 32 29 35 54 67 67 68 67 67 68 69 69 69 69 68 67 67 67 66 66 66 65 64 64 63 61 61 61 61 61 62 62 62 61 61 62 62
40 36 33 32 33 31 32 30 33 33 30 30 30 37 49 60 66 66 66 66 65 67 68 69 68 68 67 66 66 66 66 65 65 64 64 64 64 63 62 62 63 63 62 62 62 61 62 63 62
38 35 35 35 34 32 34 34 36 34 33 31 31 45 57 64 65 64 63 63 64 65 67 67 68 67 66 66 65 64 65 64 64 64 64 64 64 64 63 61 63 63 63 63 63 63 64 61 60
39 35 35 37 36 38 37 37 37 36 33 31 33 38 52 62 64 63 63 63 64 64 65 66 67 66 65 65 64 63 64 63 63 64 63 63 63 64 64 62 62 63 63 64 64 63 60 59 57
38 39 37 35 38 38 37 37 37 37 35 36 39 39 38 56 60 63 63 63 64 64 64 65 66 66 65 65 64 63 63 63 63 63 63 62 62 63 63 62 61 62 62 62 62 60 53 56 46
39 38 38 38 38 38 38 36 36 37 38 39 39 39 38 37 39 49 60 64 64 64 64 65 66 65 65 64 65 64 63 63 62 62 62 62 60 61 63 62 61 61 61 60 60 57 46 43 36
39 39 38 38 37 36 36 35 36 36 37 37 38 38 38 38 37 37 42 56 64 65 64 65 65 66 65 64 65 64 63 62 62 61 62 62 61 60 62 62 61 60 60 59 58 54 41 33 29
39 37 37 36 36 36 37 34 35 36 36 36 36 36 36 36 37 36 36 39 54 64 65 65 66 66 65 64 65 64 64 63 62 61 61 61 61 60 62 62 61 60 59 58 56 47 34 30 27
38 37 35 37 36 36 35 28 32 36 36 35 35 36 36 36 36 36 37 36 37 52 63 65 66 66 65 65 65 65 64 64 63 62 60 60 61 60 60 61 61 60 58 57 52 40 33 30 28
36 32 34 34 36 35 35 32 33 34 34 34 34 34 35 36 35 35 36 36 36 37 44 61 65 65 65 65 65 65 64 64 64 63 61 58 59 59 60 59 59 58 56 53 47 36 33 30 26
31 30 33 32 30 33 33 33 33 33 34 34 33 34 34 34 34 34 35 35 36 36 37 42 61 65 65 65 65 65 65 64 64 63 62 59 58 58 59 58 58 56 52 48 40 35 29 29 25
33 32 30 30 30 28 28 27 27 28 28 28 29 30 32 33 34 34 33 34 34 36 36 37 47 62 65 64 64 64 63 63 64 64 63 60 58 57 57 57 56 54 51 47 38 31 29 25 23
32 31 30 30 29 27 27 26 27 27 27 28 27 27 28 28 29 30 30 31 32 33 34 35 38 51 63 64 64 64 64 63 64 64 63 61 59 58 56 56 55 52 48 42 35 32 27 23 24
34 31 30 29 27 26 25 22 22 22 24 25 26 27 27 25 27 28 28 29 30 31 32 34 35 40 57 63 64 62 63 62 62 62 63 61 59 58 57 55 54 50 47 43 37 33 31 27 23
32 32 30 27 26 25 26 20 21 21 18 21 23 21 21 23 23 25 28 28 28 29 30 33 34 36 45 61 62 62 61 61 61 62 63 62 59 58 57 56 54 50 47 44 40 37 37 33 28
29 29 27 26 25 24 23 20 15 18 17 17 22 25 27 29 27 27 29 29 29 29 28 29 31 34 38 48 61 62 61 61 60 61 61 61 58 58 57 55 52 48 46 46 43 41 38 38 32
29 27 27 25 23 17 20 20 9 16 18 22 22 28 31 32 32 32 29 32 32 32 32 30 29 30 35 41 52 60 61 60 58 58 60 58 56 56 55 54 51 48 47 45 45 42 40 35 31
27 25 17 12 16 12 23 21 16 21 23 23 26 29 32 35 35 34 33 33 33 33 33 34 33 32 34 38 45 55 60 59 57 57 58 56 55 54 54 52 49 47 47 45 44 42 39 34 30
27 25 17 4 10 15 22 18 17 21 20 25 27 29 32 35 37 36 35 35 35 35 35 35 34 33 34 35 40 47 55 58 58 57 57 56 55 55 53 51 49 47 47 44 41 39 34 29 27
27 25 24 20 18 18 19 19 16 22 24 26 26 30 31 34 37 38 37 35 36 37 36 36 35 35 35 36 36 38 45 53 55 55 55 54 53 50 49 48 47 45 43 40 37 34 29 24 23
27 27 22 21 11 6 8 11 8 20 22 24 26 28 31 35 37 39 39 37 37 38 38 39 38 37 38 40 42 43 45 49 53 52 52 50 48 47 46 46 44 42 39 35 31 26 23 21 23
27 26 23 22 18 9 5 4 17 20 24 24 26 28 32 37 39 39 39 38 39 40 43 44 44 44 46 46 46 46 47 49 49 49 47 46 45 44 43 41 39 36 32 29 25 23 22 21 21
29 27 23 17 18 20 20 10 21 22 25 25 26 28 37 40 40 40 40 39 41 43 40 37 36 39 42 43 44 44 45 46 46 45 43 41 41 39 38 35 32 28 23 21 20 20 22 22 24

GFSSGP_sfc_30mbdewp_063.txt.gz
Dewpoint
60 53 49 42 33 33 28 27 32 29 29 28 31 32 33 35 41 37 63 67 66 67 70 71 73 73 73 72 72 71 71 70 69 68 66 67 66 66 66 66 65 64 64 64 66 64 64 64 62
57 50 44 40 31 26 26 31 29 31 31 31 30 32 40 40 54 60 63 67 68 69 70 71 73 73 73 73 72 71 70 69 69 68 66 66 65 65 66 64 62 61 61 62 66 66 66 64 59
53 47 39 37 33 27 25 28 29 30 32 30 29 33 35 42 55 61 64 68 68 70 70 71 73 73 73 72 72 71 69 69 68 67 66 64 63 63 62 61 60 61 63 64 65 67 66 62 58
49 45 41 35 32 32 27 29 30 31 30 31 30 28 41 52 55 62 68 68 69 70 70 72 73 73 72 71 71 70 68 67 67 66 66 64 62 60 61 61 63 65 66 67 67 66 63 60 59
46 42 36 36 33 34 33 32 33 31 31 31 29 27 33 55 65 67 68 69 68 70 70 71 72 72 71 70 69 68 66 67 68 65 64 63 62 60 61 62 64 66 66 65 64 63 63 62 60
42 41 34 32 34 35 35 34 34 33 31 29 28 30 40 62 65 67 68 68 68 69 70 70 72 71 70 69 68 67 67 68 68 65 64 63 61 60 60 63 62 63 64 64 64 63 63 62 62
41 39 33 32 31 32 33 34 33 32 30 28 31 31 42 57 65 66 66 68 67 68 70 70 70 70 70 68 67 68 68 69 68 66 65 63 62 60 60 62 64 63 63 64 63 63 61 62 62
42 40 34 34 29 30 31 32 30 30 28 29 33 28 30 55 65 66 66 67 66 68 69 69 69 68 68 67 68 67 65 67 68 66 64 63 61 61 60 61 63 64 63 63 62 61 62 62 62
40 37 31 31 32 30 32 29 32 32 29 31 30 35 47 59 66 65 65 65 66 67 69 69 68 68 68 66 67 67 66 65 65 65 64 63 61 61 60 60 62 63 63 62 62 62 63 63 62
38 33 34 35 35 31 32 32 34 34 33 32 32 43 60 63 64 63 63 63 65 65 66 67 68 68 67 66 66 66 66 64 63 63 63 63 62 61 61 61 63 64 63 63 62 63 63 61 59
39 34 35 37 35 36 36 36 37 35 32 33 32 40 57 62 63 62 62 63 63 64 66 66 66 68 67 66 65 64 65 64 64 63 63 63 63 63 61 61 62 63 63 62 63 63 61 60 54
38 39 36 35 39 39 38 37 36 37 35 36 39 39 43 59 61 61 62 62 63 64 65 65 66 67 66 65 64 63 63 63 63 63 63 63 63 64 64 61 61 62 63 63 63 61 57 57 49
39 38 39 38 38 38 38 37 36 36 38 39 39 39 39 41 54 59 61 62 63 63 64 64 66 66 66 65 64 63 62 62 62 63 63 63 62 63 64 63 61 61 62 61 62 59 51 53 42
39 39 38 38 37 37 36 36 36 36 37 37 38 37 38 38 38 38 49 61 63 63 63 65 65 66 66 64 64 63 62 62 62 62 63 63 62 62 63 63 62 61 61 60 60 56 47 45 37
38 37 38 36 37 36 37 34 35 36 36 35 36 36 37 37 38 37 37 42 59 64 65 64 65 65 66 65 64 64 63 62 61 62 62 62 62 61 61 62 63 62 60 59 59 52 40 35 31
38 37 34 36 36 36 34 26 32 35 36 35 36 36 36 36 36 37 38 38 38 53 64 65 65 65 65 65 65 65 64 63 61 61 61 62 62 61 61 61 62 62 61 59 56 49 39 35 32
38 32 34 33 37 35 33 30 32 35 35 34 34 34 35 35 36 37 37 38 37 37 46 62 66 66 65 65 65 65 64 64 64 63 61 60 61 61 61 61 61 62 61 59 55 45 41 36 33
32 31 34 31 32 36 34 33 35 34 32 32 33 33 34 34 34 35 35 36 36 37 38 45 62 65 66 65 64 65 65 64 64 64 62 61 60 60 60 60 60 61 59 57 52 46 36 36 33
33 31 31 33 31 28 30 30 29 29 28 28 29 29 30 32 34 35 35 35 36 36 37 38 44 60 65 65 63 63 63 64 64 64 64 62 60 59 59 59 59 59 58 55 52 43 36 31 29
32 30 30 30 29 29 27 26 27 28 28 28 28 28 29 29 28 28 30 32 33 34 35 37 39 46 62 64 63 63 63 64 64 64 64 63 61 60 59 58 58 57 57 54 48 41 35 31 29
32 31 30 28 27 26 26 24 23 22 23 23 24 24 25 25 24 24 26 29 31 32 33 34 36 39 53 63 64 63 64 63 63 63 63 63 62 60 59 58 57 56 56 53 47 42 40 34 28
33 33 31 28 28 26 26 20 23 20 20 25 27 29 30 30 30 28 30 29 29 30 31 32 35 36 43 59 63 62 60 60 61 62 63 62 62 61 60 58 58 56 55 53 48 43 42 39 34
34 36 28 26 26 25 24 22 19 18 18 24 27 30 33 33 33 32 31 33 33 32 31 31 31 34 37 48 60 61 60 61 61 62 62 62 61 61 60 59 57 56 54 53 48 45 42 42 39
31 27 26 24 22 18 20 20 12 16 19 22 27 31 33 36 36 35 35 35 35 36 36 35 32 31 33 38 50 61 61 61 61 61 61 62 61 60 59 59 58 56 53 51 49 48 44 43 41
27 25 18 16 18 13 23 21 16 20 23 23 28 30 33 36 38 38 36 36 37 38 37 36 36 34 34 36 39 49 60 61 60 60 60 60 57 57 58 58 56 55 53 51 49 48 46 43 40
26 27 19 6 10 13 22 18 16 21 21 25 27 29 32 37 38 39 39 36 37 39 39 38 37 35 36 36 36 41 48 57 59 59 58 59 59 58 58 56 56 53 51 50 49 48 46 43 39
26 26 22 19 18 17 18 19 18 24 25 26 27 29 32 37 38 39 39 39 38 39 40 42 42 40 39 39 40 40 40 44 52 57 57 57 57 55 56 54 52 51 50 49 47 45 41 38 31
27 26 22 20 7 3 9 11 13 21 23 25 27 28 31 38 39 40 40 39 38 40 43 43 41 43 45 46 46 46 46 47 48 51 53 53 52 51 51 50 49 48 47 45 43 39 32 28 26
26 25 23 21 17 6 3 4 16 22 24 24 26 28 35 40 40 40 39 40 41 42 39 37 37 40 42 43 44 45 46 47 48 48 48 49 48 48 48 47 45 43 41 39 34 28 24 22 22
28 26 22 16 17 19 19 9 19 21 25 25 25 28 39 40 39 37 38 40 42 38 35 34 35 38 40 42 43 44 45 46 46 46 45 45 45 44 43 42 39 36 33 28 25 22 22 22 25

GFSSGP_sfc_30mbdewp_066.txt.gz
Dewpoint
59 55 48 43 32 29 24 24 28 29 30 29 30 30 31 34 35 35 61 64 61 63 68 70 73 73 73 73 72 72 71 70 70 69 68 67 67 66 66 66 65 64 65 66 65 64 64 63 60
57 49 44 39 28 25 23 26 27 27 29 30 31 31 31 36 47 57 60 65 63 66 67 68 73 73 73 72 72 72 71 70 69 68 67 66 66 66 67 65 63 62 64 64 66 65 65 61 60
55 48 39 34 30 25 23 27 25 29 30 30 30 32 35 39 52 57 63 65 64 66 67 69 73 73 73 73 72 71 71 70 69 67 66 65 64 65 64 62 60 62 64 64 67 67 64 59 61
47 43 39 33 29 29 26 26 28 29 31 30 30 29 36 52 53 60 64 64 64 66 67 72 73 73 73 73 72 71 70 68 68 66 65 62 63 62 61 61 64 65 65 65 67 65 61 59 62
47 41 35 34 30 30 31 28 30 29 30 29 27 28 31 54 62 64 65 65 65 65 67 70 73 73 73 72 72 69 67 66 67 66 65 62 61 61 62 63 65 66 67 67 66 63 62 61 63
41 39 33 31 30 31 33 32 30 30 29 29 26 28 33 59 62 64 65 65 66 66 67 69 72 72 71 70 69 68 66 66 67 65 65 64 61 61 62 63 66 66 66 65 64 64 63 61 62
38 36 31 28 29 30 32 33 31 28 28 27 27 27 36 55 64 65 65 65 66 67 66 67 69 69 69 68 67 66 66 68 67 66 65 63 62 61 62 63 63 64 65 64 64 63 62 62 62
36 36 30 29 28 29 31 33 31 30 28 29 30 25 29 53 65 66 66 64 65 67 66 66 66 66 66 65 66 66 67 69 67 66 65 63 62 61 61 64 64 64 64 63 62 61 62 62 62
40 30 25 28 30 28 31 30 31 30 27 28 29 32 45 55 65 65 65 64 65 66 65 65 65 64 63 63 66 66 66 67 67 66 64 62 57 58 59 59 63 64 64 63 62 62 63 63 62
34 28 24 25 29 29 31 29 29 29 27 28 30 39 54 57 64 64 63 62 64 65 66 65 64 63 63 63 63 64 62 62 61 64 63 60 56 55 54 59 63 63 64 63 62 64 63 61 56
35 30 29 35 34 33 33 31 34 30 31 28 29 36 54 59 62 63 62 63 63 64 66 66 66 65 63 62 61 61 61 60 59 60 60 59 57 58 56 58 60 60 62 58 61 62 58 57 55
36 35 33 34 38 37 36 34 33 33 29 33 38 39 44 57 60 62 61 62 63 64 65 65 66 66 64 63 62 59 59 59 58 59 59 59 57 59 57 54 56 57 57 57 58 57 58 58 54
39 36 36 34 38 38 38 36 32 34 35 38 38 39 39 45 58 61 61 62 62 63 64 65 65 65 64 63 62 59 58 58 57 58 59 58 57 58 59 59 56 55 56 56 57 57 56 56 53
39 39 37 35 35 37 36 35 36 34 35 36 37 37 38 38 41 55 60 61 62 63 63 65 65 65 66 64 63 60 59 58 57 57 58 58 57 58 60 61 60 57 56 56 57 57 55 54 50
39 37 37 36 36 35 35 32 33 33 34 32 33 33 35 37 38 39 43 54 60 62 63 64 64 65 66 65 64 63 61 59 58 58 58 59 60 60 60 60 60 61 56 56 56 57 54 50 47
38 36 34 34 34 36 32 20 28 32 31 29 29 29 30 33 35 36 38 39 40 50 59 63 64 65 65 66 65 64 63 61 60 59 58 58 59 60 60 59 59 60 60 57 56 56 52 49 43
35 27 28 31 35 32 33 24 26 30 32 31 31 32 32 32 33 34 35 37 38 38 41 51 60 63 65 66 66 65 64 63 62 60 59 59 59 59 59 59 59 59 60 59 56 55 53 49 44
28 28 28 27 34 33 30 28 33 34 34 33 31 31 32 33 33 33 34 35 36 37 38 37 47 58 62 65 66 65 65 65 64 63 61 60 59 59 59 58 58 58 60 60 58 54 52 50 47
25 29 27 29 30 34 32 31 31 31 32 30 29 28 29 30 31 33 34 35 37 37 37 37 38 47 57 64 64 64 63 63 64 65 64 62 61 60 60 59 58 58 58 60 59 55 51 46 45
30 29 27 31 32 29 29 29 30 30 30 29 29 29 28 29 29 28 28 29 31 34 36 38 37 39 45 56 63 63 63 64 64 64 64 64 63 62 60 60 59 58 57 58 59 55 50 48 42
31 26 26 27 28 28 27 26 27 24 23 24 24 26 27 28 27 28 28 27 30 32 34 35 37 38 40 48 55 60 61 63 63 64 64 64 63 63 62 61 61 60 58 57 58 56 51 48 41
33 32 31 28 28 25 26 17 23 20 24 26 29 31 31 32 31 31 33 32 32 33 34 34 35 36 38 43 51 56 58 58 60 61 63 63 63 63 63 62 61 61 60 58 58 56 52 50 43
36 31 30 29 28 26 25 22 19 20 23 27 30 33 35 35 34 34 35 36 37 39 38 36 33 34 36 38 46 54 56 56 58 60 61 61 63 63 62 62 62 61 60 58 57 55 52 51 49
36 29 27 27 26 24 23 22 15 16 20 26 30 33 36 37 37 36 38 39 40 41 40 40 36 34 34 37 40 49 53 56 57 58 59 60 61 62 62 61 61 61 60 58 58 56 53 51 51
34 33 26 24 23 19 22 22 17 21 22 27 31 34 37 39 39 39 38 38 40 42 42 40 38 36 36 37 37 39 48 54 56 57 58 59 60 60 60 61 60 60 59 58 57 55 53 52 50
31 28 22 14 16 14 23 17 16 21 22 27 30 31 36 39 40 40 41 40 39 41 42 43 43 40 38 38 38 38 42 45 53 57 57 58 58 60 59 59 59 59 59 57 56 55 53 52 51
28 29 23 21 20 17 15 20 20 23 24 26 28 31 37 40 40 41 41 41 39 41 43 43 41 43 44 45 44 41 41 42 45 51 55 57 58 59 59 58 58 57 56 54 53 53 52 50 48
29 26 23 25 15 11 11 13 16 23 25 27 29 30 34 40 40 40 39 41 42 43 42 40 40 41 43 45 45 45 47 47 48 49 49 51 53 55 55 56 55 53 52 52 51 49 49 44 39
26 26 24 22 19 11 4 4 17 23 26 25 27 29 35 39 40 38 39 40 43 40 39 38 38 39 42 43 45 46 47 47 48 48 49 49 50 50 51 52 51 50 48 48 45 40 37 36 34
28 26 23 22 20 21 20 10 19 25 24 25 25 29 36 40 37 39 42 42 39 37 37 36 37 37 40 43 45 46 46 46 47 47 46 47 48 48 48 47 46 45 42 39 34 30 28 27 26

GFSSGP_sfc_30mbdewp_069.txt.gz
Dewpoint
58 56 48 42 33 29 26 26 25 25 26 27 28 29 26 30 28 38 59 61 58 64 68 70 73 73 73 72 72 72 71 71 70 69 67 67 66 66 65 65 65 65 66 66 64 64 64 61 61
54 52 45 38 30 26 24 26 26 24 28 29 30 30 29 29 41 55 59 63 60 64 67 68 73 73 73 72 72 72 71 70 70 69 68 68 67 67 67 65 64 64 64 67 66 65 62 61 61
57 50 39 35 32 25 24 24 26 26 29 29 30 31 34 35 50 55 61 61 60 64 65 69 73 73 73 73 72 72 71 70 69 68 68 66 66 67 65 62 61 62 64 66 67 65 61 61 61
52 45 41 34 29 29 26 25 25 24 28 28 30 29 36 50 52 58 62 61 62 63 64 71 73 73 73 73 72 71 71 69 68 67 65 64 64 63 61 61 63 66 67 67 67 63 61 62 62
47 41 36 33 31 30 29 27 27 24 26 27 28 29 33 55 59 61 61 61 61 62 69 70 73 73 73 72 71 71 69 67 67 66 63 62 62 62 62 65 66 66 67 67 65 62 61 63 63
43 41 34 32 31 31 30 29 28 25 27 27 27 27 38 57 59 61 61 61 62 62 68 69 72 73 72 72 71 69 67 66 66 65 63 62 61 62 63 65 66 67 66 66 65 64 62 62 63
38 36 33 29 28 29 30 31 29 27 26 27 26 26 40 55 61 62 62 63 62 63 68 68 68 70 71 70 69 67 65 66 66 65 65 62 62 62 63 63 66 66 66 65 64 63 62 62 63
37 35 32 30 27 27 30 31 32 28 25 26 27 24 30 57 63 64 62 62 62 64 64 66 66 66 67 67 67 66 66 67 66 66 65 63 62 62 63 61 62 65 65 64 64 62 62 62 62
36 31 29 29 28 27 28 30 32 31 28 27 27 25 46 58 64 64 64 61 64 64 62 64 66 65 64 63 65 66 66 67 66 66 64 62 57 58 60 61 62 64 64 63 62 62 63 63 63
37 30 26 29 29 28 30 30 31 28 27 25 25 30 47 54 62 63 63 61 63 65 62 62 61 61 60 60 64 63 64 65 65 64 62 60 54 54 52 59 63 64 64 63 62 64 64 62 56
37 29 29 24 31 31 31 29 28 27 24 23 24 26 43 48 57 62 62 62 63 64 65 63 61 60 59 59 60 60 60 60 59 61 62 58 54 55 54 57 60 61 63 60 61 63 59 57 54
35 34 31 30 35 34 31 29 25 28 25 27 28 35 42 51 53 59 62 62 62 63 64 65 63 61 60 59 59 58 58 58 57 58 59 57 55 56 52 54 55 57 57 55 57 58 56 56 54
37 33 33 34 37 35 33 31 27 29 32 34 37 38 37 44 52 58 61 62 60 62 64 65 65 63 61 60 60 57 56 57 56 57 57 57 56 56 55 52 53 55 54 54 56 56 55 56 54
40 37 35 34 34 36 36 32 32 31 32 34 35 35 37 37 41 54 59 61 61 61 61 64 65 65 64 61 62 60 58 57 56 55 57 57 56 56 56 57 55 54 54 54 55 55 55 54 54
39 38 37 35 33 33 35 33 33 33 33 32 33 31 32 34 37 39 52 58 60 61 62 63 64 65 65 64 63 62 60 58 58 56 56 57 56 56 56 58 60 59 55 54 54 55 54 53 52
38 36 32 36 34 34 33 25 27 32 32 30 29 28 29 30 34 36 39 44 52 57 60 61 62 64 65 65 64 63 62 61 59 58 57 57 56 57 58 58 58 60 59 54 54 54 55 52 50
35 32 29 28 32 33 33 24 23 29 29 28 27 26 26 26 28 30 35 38 41 43 49 57 61 63 64 65 66 64 63 62 61 60 58 58 57 57 58 58 58 57 59 58 55 55 54 52 50
29 29 25 25 31 31 31 29 27 29 29 28 27 27 27 28 28 28 30 33 36 39 40 41 48 57 62 64 65 66 66 64 63 61 60 59 58 58 58 58 58 57 58 60 58 55 54 52 51
24 25 23 24 31 30 28 26 28 28 31 30 28 27 26 27 28 29 31 33 34 35 36 38 39 41 52 57 64 65 64 65 65 63 62 61 60 59 59 59 58 58 58 59 59 57 54 53 52
27 22 22 25 28 30 27 26 27 29 29 30 28 26 24 25 26 29 31 31 32 34 36 37 37 38 40 50 61 63 63 63 64 65 65 64 62 62 60 60 60 59 58 58 59 58 56 53 51
35 25 23 24 29 30 26 25 26 28 29 28 28 28 28 28 28 27 28 29 30 31 33 35 37 38 38 40 48 61 61 62 64 64 64 63 64 64 63 61 61 60 59 58 59 59 57 53 50
30 27 24 25 27 20 26 12 20 24 24 23 25 27 29 30 30 31 33 33 34 34 35 35 36 37 38 40 41 46 56 58 60 61 62 62 63 63 64 63 62 62 61 60 58 59 58 54 51
35 33 28 28 26 26 26 22 21 21 23 24 28 31 32 33 33 34 36 37 38 41 40 38 35 35 35 37 39 43 49 54 56 56 58 60 63 63 63 63 63 62 62 61 60 59 59 54 52
32 31 30 30 29 27 23 21 18 20 22 26 29 31 34 35 35 35 38 39 41 42 41 40 37 34 34 36 37 40 46 51 55 55 56 57 59 62 62 62 62 62 62 61 61 60 59 56 55
35 33 27 26 26 20 23 22 17 19 23 26 29 32 36 37 38 38 38 38 41 42 43 42 40 37 37 37 36 38 42 48 52 54 55 56 58 60 61 62 61 61 61 61 60 60 58 56 56
35 34 30 20 19 18 21 20 19 21 23 29 32 34 37 38 39 40 41 41 40 42 43 44 43 43 42 40 39 38 39 40 43 50 54 55 56 57 61 61 61 61 60 60 60 59 58 57 56
33 31 26 21 19 16 15 17 21 22 23 28 29 32 37 39 40 41 41 41 41 42 43 42 41 42 43 44 44 43 41 41 42 45 49 53 55 56 58 60 59 59 60 59 58 57 56 55 54
33 30 25 28 15 12 12 13 15 19 23 26 29 31 35 39 40 39 39 40 42 42 41 40 40 41 43 44 45 45 46 47 47 48 48 49 50 51 54 53 56 56 55 55 55 54 53 52 45
28 27 25 24 21 14 6 6 19 21 24 27 29 30 34 38 39 39 40 42 41 40 39 38 39 40 41 43 45 46 46 47 47 48 48 48 48 49 50 50 51 51 51 51 49 46 44 41 38
28 26 24 24 23 22 22 13 21 24 26 25 28 30 35 39 38 40 42 40 39 38 38 37 37 38 40 42 44 44 44 45 45 44 45 45 46 46 47 48 48 47 46 43 41 40 37 37 35

GFSSGP_sfc_30mbdewp_072.txt.gz
Dewpoint
56 53 53 49 39 33 30 29 28 25 25 28 28 28 29 30 45 48 58 60 68 69 72 73 73 73 73 73 73 72 72 71 71 69 68 68 67 66 65 65 65 67 66 64 64 64 62 61 61
55 52 51 45 35 29 27 28 28 25 29 28 28 29 29 34 55 58 59 61 66 68 70 72 74 73 73 73 72 71 71 70 70 69 69 68 67 67 67 66 65 64 66 66 65 63 62 61 61
56 56 49 39 36 29 27 27 28 28 29 28 29 31 30 46 53 58 63 61 65 67 67 72 73 73 73 73 72 71 71 70 70 69 68 67 68 67 65 62 62 64 66 67 66 62 62 61 62
54 52 47 39 32 33 31 28 26 26 28 28 30 29 44 55 56 61 62 60 64 65 70 73 73 73 73 72 72 71 70 69 69 67 66 65 65 64 62 61 66 65 67 67 65 62 62 63 63
53 52 42 38 35 33 32 30 26 25 27 27 29 29 50 56 60 61 60 61 63 68 71 72 73 73 73 73 72 71 70 69 67 64 61 62 63 62 65 65 66 67 68 67 63 62 63 64 63
48 46 41 39 36 34 33 31 27 25 25 27 27 27 53 58 60 60 60 61 65 69 69 71 73 73 73 72 71 70 67 66 65 62 61 61 62 63 64 66 67 67 67 65 63 63 63 64 63
46 42 40 39 36 33 32 33 28 26 26 27 27 25 54 59 61 61 60 61 67 67 69 70 71 72 72 71 70 68 66 66 65 64 64 63 63 63 64 66 67 67 66 66 65 63 62 63 63
44 40 39 39 35 32 32 32 31 29 27 27 27 25 53 60 62 61 62 61 66 68 68 68 68 70 70 69 68 66 66 66 65 64 64 63 62 62 64 64 66 67 66 65 64 63 63 63 63
42 36 35 35 33 31 29 30 32 32 31 28 27 33 57 62 63 63 61 61 63 66 66 66 66 67 67 66 67 66 66 66 66 65 63 62 61 61 62 60 64 65 65 64 63 63 63 63 63
40 34 33 34 33 32 30 30 31 31 31 29 27 45 55 62 63 63 62 62 63 64 64 66 66 64 64 64 65 66 67 67 66 64 62 61 59 57 59 62 63 63 64 63 63 64 64 62 60
41 37 34 32 32 34 31 30 31 31 29 28 26 33 46 59 61 62 62 63 63 64 65 64 64 63 62 63 63 63 65 66 66 64 62 61 57 56 59 62 63 63 63 63 63 65 63 61 58
37 38 37 31 34 34 31 31 29 29 28 29 28 31 47 48 56 61 62 62 62 64 64 65 64 60 59 59 61 61 62 61 61 63 62 61 56 55 56 59 60 62 62 61 61 62 61 59 57
41 37 35 35 35 35 32 30 28 27 29 34 38 38 38 47 50 58 62 62 62 63 64 65 65 63 59 60 59 58 59 59 59 59 61 59 56 56 53 56 57 58 59 58 58 58 58 57 56
41 40 36 33 34 36 35 33 31 28 30 34 37 36 36 36 43 56 59 61 61 62 64 65 65 65 63 60 60 59 57 57 57 58 58 58 57 57 56 54 55 56 57 55 57 57 57 56 56
39 39 39 34 34 35 36 34 32 32 34 33 34 34 34 36 37 40 58 59 61 61 63 65 65 65 64 64 62 62 59 58 57 57 58 58 57 57 57 58 57 56 55 55 55 56 56 55 55
38 38 36 36 35 34 34 30 34 34 34 33 32 32 32 32 33 37 39 54 60 61 61 63 65 65 65 65 65 63 62 60 59 58 57 58 57 57 57 58 60 59 59 55 55 55 55 54 53
37 34 34 33 36 33 33 30 29 31 33 32 31 30 29 29 30 34 36 38 42 50 59 61 63 64 64 65 65 66 63 62 61 60 58 58 57 57 58 59 59 60 59 59 55 55 56 54 51
30 32 31 29 34 33 33 32 28 28 29 30 29 29 28 26 26 28 31 33 35 41 42 46 59 63 64 65 65 66 66 66 63 62 60 59 58 58 58 59 59 58 59 59 57 55 56 54 52
35 31 27 28 28 33 32 33 32 29 30 30 30 28 27 28 29 30 30 30 33 36 39 40 41 47 60 64 65 64 64 65 65 65 62 61 59 58 58 59 59 58 58 60 59 58 55 54 53
34 29 28 27 30 31 30 30 30 30 29 31 31 29 28 27 27 27 31 32 33 34 36 38 38 41 43 52 64 64 64 64 64 65 65 65 63 60 59 59 59 59 58 59 59 58 57 54 54
32 31 31 25 30 30 27 25 28 28 28 29 30 30 29 28 29 29 29 31 32 32 34 37 38 38 40 41 50 64 63 63 63 63 64 64 64 64 63 60 60 60 59 59 59 59 58 55 53
31 33 33 27 27 25 28 20 24 27 28 30 28 26 26 29 30 32 34 34 36 39 38 37 37 37 38 41 41 53 62 61 63 63 64 63 63 64 64 64 62 61 61 60 60 60 59 57 53
35 39 32 32 27 25 26 22 22 26 25 26 24 27 31 32 32 35 36 38 41 42 42 40 37 36 36 36 38 40 43 50 59 61 62 62 63 63 63 63 63 63 62 62 61 60 59 59 55
39 36 36 33 28 26 25 23 20 22 23 23 27 32 33 33 35 38 39 42 43 44 43 41 38 36 35 35 37 38 40 43 50 56 56 56 58 62 63 63 62 62 62 62 62 61 60 59 57
35 32 27 26 25 23 25 24 22 22 24 26 30 33 36 37 37 38 39 40 42 43 45 44 43 41 40 39 37 37 39 43 47 51 55 56 57 58 61 62 61 61 61 61 62 61 61 60 57
33 34 29 21 21 20 22 22 19 23 26 29 31 36 37 39 40 41 42 41 41 43 44 42 42 43 44 45 44 42 39 42 43 45 48 54 55 57 59 60 61 61 61 61 61 60 60 59 58
33 32 34 24 19 19 20 20 21 21 29 31 32 35 38 40 41 40 41 42 43 43 42 41 41 43 44 44 45 45 47 47 48 47 46 49 53 54 56 56 58 59 59 60 60 59 58 58 57
36 34 28 28 18 15 15 17 17 20 26 29 30 33 38 40 40 39 40 41 42 41 40 40 40 41 42 44 46 46 46 47 48 48 48 48 49 50 50 51 53 54 54 54 55 54 53 52 48
33 32 27 26 22 18 11 13 20 21 24 27 29 32 36 39 39 40 41 42 40 39 39 38 39 40 42 43 45 46 46 46 47 46 46 47 47 47 47 49 49 49 49 49 48 47 45 45 42
29 30 27 24 23 22 22 15 21 22 26 29 30 31 37 39 39 41 42 39 38 38 37 36 37 38 40 42 42 41 41 39 37 36 38 39 39 37 37 40 39 38 37 39 41 39 39 38 37

GFSSGP_sfc_30mbdewp_075.txt.gz
Dewpoint
58 54 52 49 38 37 33 30 30 25 25 28 28 28 29 36 48 43 61 67 70 72 73 73 74 74 73 73 73 73 72 72 71 70 69 68 67 67 66 67 67 66 64 64 63 63 61 60 60
56 55 50 46 38 33 30 30 30 27 28 28 27 28 37 53 57 57 65 70 70 72 72 73 74 74 73 73 73 72 72 71 70 69 68 67 67 67 67 65 65 67 66 65 63 62 61 61 60
57 55 46 43 38 34 30 29 28 28 27 28 28 30 38 50 58 59 64 69 71 70 72 73 74 73 73 72 72 72 71 70 70 69 69 68 68 66 63 63 64 66 67 66 63 62 62 62 60
53 48 46 42 39 36 34 33 31 28 28 29 30 32 53 57 58 62 64 69 69 69 72 73 73 73 73 72 72 71 69 69 69 67 67 67 65 63 62 65 65 67 68 66 63 63 63 63 62
53 48 40 38 38 38 37 35 33 27 27 27 29 37 54 60 62 62 64 67 66 70 72 73 73 73 73 72 72 70 70 67 65 63 62 63 63 64 64 65 67 68 68 65 64 63 64 63 63
48 48 38 34 37 37 38 38 31 25 27 28 27 45 55 60 60 60 62 67 69 70 71 72 73 73 73 72 71 70 69 66 64 63 62 63 63 64 66 65 67 68 67 64 63 64 64 63 63
46 44 38 37 36 37 39 39 27 26 25 27 26 42 57 60 60 60 67 69 69 70 71 72 72 72 72 71 70 69 67 65 63 63 63 63 64 65 65 66 67 67 66 65 64 64 64 63 63
47 45 40 39 37 38 39 39 35 29 26 28 27 46 57 60 61 62 67 67 69 69 70 71 72 72 71 70 69 67 66 64 64 63 64 63 63 65 65 66 67 67 67 65 65 63 63 63 63
48 40 38 40 38 38 40 39 37 31 28 29 35 54 60 63 64 62 65 67 67 67 68 69 70 70 69 68 67 66 66 65 64 64 63 62 62 63 62 65 66 66 66 65 64 63 63 64 63
44 39 37 38 39 37 37 39 41 41 31 30 54 61 62 62 63 62 61 64 66 66 66 67 67 68 67 67 66 66 66 65 65 64 62 61 60 61 61 62 65 66 65 64 64 64 64 63 61
43 37 38 36 36 34 36 41 37 38 31 29 49 60 61 61 62 62 62 63 64 65 65 65 65 67 65 65 65 66 66 66 65 63 62 61 59 58 61 62 63 63 63 63 64 65 63 61 59
40 40 38 36 35 35 32 33 35 38 29 35 33 52 60 61 60 61 62 63 63 64 64 65 65 64 63 64 64 65 65 66 65 64 62 61 58 57 60 61 62 62 62 62 62 63 62 61 59
42 40 39 38 38 37 36 31 30 29 29 38 38 44 52 58 61 60 62 62 62 63 64 64 65 63 62 63 62 63 63 64 64 64 63 61 56 56 58 59 61 61 62 61 61 61 60 59 58
41 41 41 38 39 37 35 32 32 29 30 35 36 36 37 44 56 61 61 61 62 62 63 64 65 65 62 60 60 60 61 62 60 63 63 61 57 55 55 57 58 60 60 60 59 58 59 58 57
41 40 41 40 35 35 36 33 32 33 33 33 34 35 35 36 47 57 61 61 62 63 63 63 64 65 64 63 61 59 58 59 58 58 60 60 57 56 56 55 56 57 58 57 57 57 57 57 56
37 38 36 38 35 35 35 31 34 35 33 32 34 33 33 33 37 39 57 60 60 61 63 64 64 64 64 64 65 64 60 58 57 57 58 58 58 57 57 58 56 56 56 55 55 56 56 55 55
36 34 34 35 37 34 33 31 32 34 33 32 33 33 31 31 32 36 37 53 59 61 63 64 65 64 63 64 64 65 65 60 59 58 57 57 58 57 57 58 59 59 58 57 54 55 55 55 53
29 32 34 34 35 35 33 32 31 29 31 32 32 32 31 30 29 31 34 37 38 52 61 62 64 64 64 64 64 65 65 66 62 60 58 57 57 57 57 58 58 60 59 59 57 54 55 55 53
33 33 32 33 33 34 33 33 33 31 29 30 31 31 29 29 29 28 31 33 34 34 41 52 57 64 64 64 64 63 63 64 65 64 62 59 58 58 57 58 59 59 59 59 59 56 54 54 53
34 31 30 29 32 34 33 32 33 32 31 30 30 30 30 28 29 29 31 32 33 34 36 38 39 45 62 64 65 64 64 64 64 64 65 65 64 60 58 58 58 59 58 59 59 58 56 55 53
35 33 31 29 30 31 30 30 31 32 32 31 30 31 30 29 29 29 32 33 33 34 36 36 37 39 39 48 64 64 64 63 63 63 63 64 64 65 63 61 59 59 59 58 59 59 57 56 54
33 34 33 33 30 30 28 23 25 28 30 29 30 30 29 28 30 34 35 36 37 40 40 38 37 36 37 37 44 63 62 62 61 62 63 63 63 63 63 63 63 61 60 59 59 59 59 57 55
33 38 36 35 34 27 27 23 21 24 27 28 29 28 27 30 33 35 37 39 41 42 41 41 37 35 35 36 37 40 49 55 60 62 63 63 63 63 62 62 63 63 61 60 60 60 59 59 57
37 36 36 35 34 27 26 24 17 23 26 27 26 27 32 34 36 37 40 42 44 44 44 44 37 38 38 36 36 37 38 40 42 50 58 61 62 62 62 62 63 62 62 62 62 62 60 60 59
36 33 27 26 26 23 26 24 18 23 25 25 27 32 33 34 37 38 41 42 43 44 43 43 44 44 44 44 43 40 38 39 42 46 51 55 57 57 61 62 62 61 61 60 61 61 61 60 59
34 33 28 20 21 21 24 23 23 22 24 29 32 35 36 37 38 41 41 42 43 43 42 41 43 44 44 45 45 46 46 45 46 46 48 52 55 58 59 60 61 61 61 61 61 60 60 60 59
34 31 35 27 23 19 22 21 20 26 30 32 35 36 38 40 41 41 42 43 43 41 40 40 42 42 44 45 46 46 46 47 48 49 49 49 51 53 53 55 57 57 57 57 57 57 57 57 55
36 35 29 29 21 19 19 19 19 23 30 33 35 36 39 40 40 40 41 42 40 39 39 39 41 42 43 45 46 46 47 47 47 47 47 47 48 49 50 50 50 50 50 51 52 52 51 51 48
33 32 32 30 29 19 14 15 20 21 30 31 32 37 39 40 39 40 42 40 39 38 37 38 39 41 42 44 42 41 39 38 39 39 41 41 40 41 45 46 46 45 46 46 46 44 44 44 42
35 34 30 25 26 21 22 17 21 22 29 29 31 35 39 39 40 42 40 39 38 36 35 36 37 38 40 40 38 37 36 35 33 32 32 32 31 32 33 35 35 33 35 37 39 40 39 39 38

GFSSGP_sfc_30mbdewp_081.txt.gz
Dewpoint
61 57 54 46 34 36 30 29 34 30 26 28 28 28 30 42 44 41 63 68 70 72 73 74 74 74 73 73 73 72 72 71 71 70 69 69 68 68 66 66 64 64 64 63 61 60 59 59 60
60 56 50 43 28 29 27 33 31 31 32 29 34 44 49 49 58 64 65 70 70 72 73 73 74 74 73 73 73 72 72 71 71 70 69 68 67 68 68 67 65 64 64 63 60 59 59 61 62
59 56 46 38 33 26 26 32 31 36 35 28 29 43 51 53 63 64 67 70 71 71 72 73 73 73 73 73 73 72 72 71 71 69 68 67 67 66 66 68 67 65 65 63 61 60 60 63 63
53 50 45 39 33 34 32 33 38 37 36 31 35 48 56 59 62 64 70 71 71 72 72 73 73 73 73 73 72 72 72 71 70 70 69 68 66 64 65 66 68 67 65 63 62 61 61 62 62
52 48 40 39 36 36 38 39 38 37 37 36 32 49 56 61 66 69 70 70 69 71 72 72 73 73 73 73 72 72 71 70 69 69 67 66 64 63 63 67 68 66 65 64 63 62 62 63 62
46 46 38 35 35 36 36 38 38 38 37 38 36 53 56 63 68 69 70 70 69 69 72 72 73 73 73 72 72 71 69 67 65 65 64 64 64 63 65 66 68 66 65 64 64 62 62 63 62
44 42 37 37 34 34 34 38 37 38 38 37 33 53 58 61 68 69 69 70 70 71 72 72 72 72 72 72 71 69 67 65 64 64 63 64 66 65 66 66 68 67 66 65 65 64 63 63 62
48 42 37 36 35 34 35 37 40 38 39 40 41 51 56 59 66 67 69 69 70 70 71 71 72 72 71 71 70 68 66 64 64 64 64 65 65 66 65 67 69 67 66 67 66 65 64 63 63
47 42 37 37 35 35 37 36 37 44 41 41 40 54 59 64 67 67 67 68 67 69 69 71 71 71 70 70 69 67 65 64 64 64 64 63 64 65 65 67 68 67 66 65 65 65 65 63 63
45 40 39 39 38 37 41 39 38 40 41 40 40 60 64 66 66 65 65 66 66 67 67 69 70 70 70 69 68 66 65 64 64 63 63 62 63 63 65 66 67 67 66 65 65 64 65 64 61
45 38 39 40 41 42 41 43 45 42 41 41 40 44 62 65 65 64 65 64 66 67 66 68 69 70 69 67 66 65 64 64 63 62 62 61 61 62 62 65 66 66 65 65 65 64 64 61 59
41 43 40 38 43 43 41 41 44 45 44 44 43 42 46 62 63 64 64 65 66 66 67 68 69 69 67 66 65 65 64 64 63 62 61 60 59 61 60 62 64 64 64 63 63 63 63 61 59
41 42 42 41 42 42 41 39 39 42 45 45 45 39 49 60 62 63 64 65 65 65 66 67 67 67 66 65 65 65 64 64 63 62 61 60 58 57 60 60 62 62 62 61 61 61 62 60 59
41 41 41 41 39 39 37 38 39 39 48 46 47 37 54 59 60 62 63 64 64 65 65 66 66 66 65 65 65 65 65 65 64 63 62 61 59 56 58 60 60 61 61 61 60 60 60 59 58
41 39 42 41 39 37 36 34 36 39 48 45 46 38 47 58 60 61 62 63 64 64 65 65 65 64 65 64 64 64 64 65 64 64 63 62 59 58 57 58 59 60 60 60 60 60 59 59 58
35 38 36 38 40 38 35 31 35 44 46 47 46 42 35 41 57 60 62 63 63 63 64 64 65 64 63 64 63 63 63 63 63 64 64 63 60 58 57 57 58 58 59 60 59 59 58 58 57
34 31 34 34 39 36 34 32 34 38 43 41 39 39 33 33 43 53 60 61 62 63 63 63 64 64 62 63 63 62 62 61 62 61 63 63 61 58 56 56 56 57 57 58 58 58 57 56 56
27 31 34 32 37 35 34 32 33 36 36 36 34 33 32 33 32 34 51 58 61 62 62 63 63 64 64 63 63 64 64 61 59 60 60 61 61 59 57 56 56 56 56 56 56 56 56 56 55
33 31 32 34 35 35 34 33 33 32 33 34 34 37 33 32 33 31 31 38 52 59 61 62 63 64 64 63 63 63 63 64 63 59 59 58 59 59 58 57 57 58 56 56 56 55 55 54 54
33 31 31 33 35 34 34 34 34 34 33 32 30 33 32 32 31 30 30 31 36 40 56 61 62 63 63 63 63 63 63 63 64 64 62 59 58 58 58 58 57 58 58 58 57 56 55 54 54
33 30 31 29 32 34 33 32 34 34 34 34 32 31 31 31 30 30 32 32 34 35 38 47 54 57 63 64 64 63 63 62 62 63 63 64 62 60 58 58 58 58 58 58 58 58 57 57 55
31 33 32 32 29 27 32 26 28 32 33 34 34 34 32 31 29 31 33 35 36 38 38 37 37 38 40 51 63 63 63 62 62 62 63 63 64 64 63 61 59 58 58 58 58 58 58 58 57
34 36 34 34 30 29 28 27 27 25 29 31 33 34 33 32 30 31 34 37 40 40 40 38 36 36 36 36 42 58 62 62 61 61 61 61 62 63 63 64 63 61 59 59 58 58 59 59 58
38 36 36 35 33 26 28 28 27 25 25 28 31 33 33 31 31 34 39 42 43 43 40 43 43 44 42 38 37 40 52 57 56 55 56 57 60 61 61 62 62 62 62 61 60 60 59 59 59
36 32 26 24 25 23 27 27 27 27 24 24 25 28 32 31 34 37 41 43 43 42 43 44 44 44 45 45 44 41 39 39 40 42 44 47 53 57 60 61 61 60 60 61 61 61 60 59 59
33 30 23 17 20 24 26 25 26 27 27 27 25 27 31 34 37 41 42 43 42 42 43 43 43 44 45 45 46 47 47 46 46 46 49 52 55 56 57 58 60 60 60 60 60 59 59 58 57
34 29 31 25 22 20 23 25 24 25 25 27 27 32 34 36 39 41 42 43 41 41 41 42 43 44 45 46 46 46 47 47 47 48 49 50 51 52 53 54 55 54 55 56 56 54 53 51 50
34 35 28 30 20 17 19 20 21 22 24 30 31 32 35 38 40 41 42 41 40 40 41 42 42 44 44 43 44 43 43 43 44 44 44 44 46 48 48 48 48 48 48 48 48 48 48 46 45
33 32 32 29 28 20 18 16 21 21 25 28 33 36 38 40 41 41 41 40 39 39 39 40 41 42 40 39 37 36 35 35 35 35 35 36 38 40 40 40 41 42 44 45 45 45 44 44 42
34 32 32 25 25 25 18 19 23 22 24 33 36 38 40 40 41 41 40 38 37 37 37 38 40 40 38 36 35 34 34 33 33 32 32 32 33 33 33 34 35 37 38 39 41 40 40 40 40

GFSSGP_sfc_30mbdewp_084.txt.gz
Dewpoint
61 57 53 45 32 34 27 27 35 30 26 29 28 28 28 40 44 41 63 67 70 71 73 73 73 73 73 73 72 72 72 71 70 69 68 68 68 66 66 64 64 64 63 61 60 60 60 61 62
60 56 48 42 28 25 25 32 30 31 35 35 33 41 49 46 59 63 65 69 70 72 73 73 73 73 73 73 72 72 71 71 70 70 69 68 69 67 67 65 64 64 63 60 59 60 61 62 63
58 56 45 38 30 25 23 31 31 36 36 29 30 45 51 53 63 64 66 70 71 72 73 73 73 73 73 73 72 72 72 71 71 70 68 67 67 68 68 66 65 65 63 61 60 62 64 64 64
54 50 45 37 30 32 29 33 38 37 37 36 35 42 55 59 63 65 69 70 71 72 72 73 73 73 73 73 73 72 71 71 70 69 68 68 66 66 67 68 67 66 64 62 60 62 64 63 64
51 47 41 38 37 35 37 37 38 36 37 37 33 39 55 61 65 69 70 70 69 70 72 72 73 73 73 73 72 72 71 70 69 69 68 66 65 64 66 69 67 66 64 63 61 62 63 63 63
47 45 39 36 38 39 37 38 37 37 38 38 38 48 55 65 66 67 68 69 69 70 71 72 72 73 73 72 72 71 71 69 70 68 66 65 64 63 65 68 67 66 65 64 62 62 63 63 62
45 41 37 37 36 38 38 38 36 37 37 38 38 47 56 63 66 68 68 67 68 70 71 72 72 72 72 72 72 71 68 66 66 65 65 65 65 64 65 67 68 66 65 65 64 62 63 63 62
47 42 37 36 36 35 37 37 40 37 38 41 41 40 42 59 68 68 67 67 68 69 70 71 72 72 72 71 70 68 66 65 65 64 63 65 66 65 67 67 68 67 67 66 66 64 63 63 62
48 41 37 37 36 37 36 35 39 43 40 41 41 47 55 61 67 67 67 67 67 68 68 70 71 71 70 70 69 66 65 64 63 64 64 64 65 65 66 67 68 67 67 66 66 65 65 63 62
44 40 38 39 38 36 37 37 37 38 39 40 40 42 58 66 66 64 65 65 65 65 67 68 70 70 70 69 68 66 65 64 64 63 63 63 64 64 65 65 67 66 66 65 65 65 64 62 60
44 39 40 40 39 41 40 41 43 39 38 41 39 43 44 53 61 63 64 65 64 65 66 68 68 70 69 68 67 65 64 64 63 62 62 61 62 62 64 65 66 66 65 65 65 64 63 61 58
41 42 40 39 43 43 40 43 42 42 37 44 44 45 43 43 50 61 63 64 63 66 65 67 68 69 68 67 66 65 64 63 62 62 61 59 61 61 62 63 64 64 64 63 63 63 62 61 59
41 42 42 41 43 42 41 40 40 41 44 46 46 46 44 43 49 61 63 64 64 65 66 66 68 68 67 66 65 65 64 63 62 62 61 60 58 60 60 61 62 63 63 62 61 61 61 61 59
40 41 41 42 40 41 39 39 39 39 44 44 46 45 45 43 56 61 63 63 64 65 66 67 67 68 67 66 65 64 64 64 63 62 61 61 59 56 60 59 59 61 62 61 60 60 60 60 59
41 37 39 41 40 38 36 36 38 40 46 43 45 45 46 44 53 59 61 62 64 65 65 66 67 67 66 65 65 64 64 64 64 63 62 61 60 57 56 59 59 60 60 60 60 59 59 59 58
38 38 32 39 40 38 36 33 36 44 43 43 42 44 45 45 41 58 61 62 64 64 64 65 66 65 66 65 64 64 64 64 64 64 63 62 61 59 57 57 58 59 59 60 59 59 58 58 57
34 32 33 35 40 37 35 33 34 45 43 42 42 44 46 40 35 50 60 62 63 64 64 64 65 64 64 65 64 63 63 63 63 63 64 63 62 60 58 58 58 58 58 58 58 58 58 56 56
29 31 32 32 38 37 35 33 33 44 43 44 45 45 45 37 34 38 48 60 61 63 63 64 64 64 63 63 63 63 62 62 62 62 62 63 63 61 59 57 57 57 56 56 57 57 56 57 56
30 32 31 32 35 36 34 34 33 39 43 43 45 46 45 37 35 34 33 38 58 60 62 63 63 64 64 63 62 62 62 63 61 60 61 61 62 61 59 58 57 56 55 55 56 55 55 55 55
28 31 32 34 35 35 34 34 34 33 36 37 42 42 41 37 36 34 31 30 36 54 59 61 62 63 64 63 63 62 62 63 63 63 60 60 59 60 60 59 58 57 57 56 56 55 54 54 54
29 29 30 30 34 34 33 33 34 35 34 34 34 37 38 37 36 33 31 31 32 38 47 56 61 63 63 63 63 63 62 62 62 63 63 62 60 59 59 58 58 58 58 57 58 57 56 55 55
30 30 30 30 30 29 32 25 29 34 34 34 34 32 33 36 33 31 31 33 34 36 37 40 43 49 52 62 63 62 62 61 61 61 62 63 63 62 60 59 58 58 58 58 58 58 58 57 57
33 33 32 31 29 28 28 27 27 27 31 33 34 34 34 33 31 30 32 35 38 39 38 37 36 37 36 38 51 61 62 62 61 61 61 61 62 63 63 63 61 59 58 58 58 58 58 58 57
38 35 35 34 30 24 27 27 25 26 26 27 30 32 34 34 33 31 35 40 42 41 40 41 41 42 41 38 37 38 47 56 58 59 58 59 59 60 61 62 62 62 61 60 59 59 58 58 58
38 32 27 25 24 20 26 27 27 28 25 25 26 28 33 34 32 32 37 41 42 41 43 43 43 44 45 44 43 42 39 39 42 46 47 47 50 55 58 60 60 61 61 61 60 60 59 59 59
35 29 21 17 19 22 27 25 25 28 29 30 28 26 27 32 33 35 40 42 42 43 43 43 44 44 45 45 46 47 47 46 46 47 48 51 53 54 55 57 59 59 60 60 60 59 59 58 56
33 30 27 23 20 21 23 24 25 26 26 26 27 28 28 31 35 39 42 42 41 42 42 43 44 45 45 45 46 46 46 46 47 47 48 49 50 52 52 53 54 55 56 58 57 55 53 51 50
35 34 27 27 18 15 18 19 19 21 22 25 28 29 33 36 40 42 43 41 40 41 42 42 43 43 43 43 42 41 41 42 42 41 42 43 45 47 47 48 48 48 49 50 50 49 48 46 46
32 31 31 28 26 19 17 16 21 22 21 21 28 32 35 38 40 42 41 40 39 40 41 42 43 41 40 38 37 36 35 35 35 35 35 36 37 38 39 40 42 44 45 46 46 46 45 44 43
34 31 30 23 24 23 18 20 22 23 23 25 31 35 38 39 41 41 40 39 38 39 39 41 41 39 38 36 35 34 34 33 33 33 33 33 34 34 35 36 37 38 39 40 41 41 41 41 40

GFSSGP_sfc_30mbdewp_087.txt.gz
Dewpoint
61 57 53 45 32 32 25 26 35 31 28 30 33 27 28 38 44 42 63 67 67 70 71 72 72 73 72 72 72 72 71 71 70 69 68 67 66 66 64 64 64 63 62 61 61 62 62 63 63
60 55 47 41 29 25 25 31 31 32 35 36 32 43 47 44 60 62 65 68 69 70 71 71 72 72 72 72 72 72 72 71 70 69 68 68 67 66 65 64 64 62 60 60 61 62 62 62 62
58 55 45 38 30 24 21 31 31 35 36 35 33 42 51 52 62 62 66 69 69 71 71 72 72 72 73 72 72 72 71 71 71 70 69 69 67 68 66 65 65 62 60 61 62 64 64 65 65
54 51 46 36 28 30 27 33 37 36 37 38 35 38 55 61 62 65 68 68 70 71 71 73 73 73 73 72 71 72 72 71 70 69 68 67 67 68 67 66 66 64 62 62 64 64 64 65 66
51 48 40 38 34 34 35 37 38 36 37 38 38 42 54 63 67 68 68 69 69 70 71 72 73 73 73 72 72 72 71 70 69 68 68 67 66 67 69 67 66 65 62 61 63 64 64 64 65
47 46 37 35 36 37 37 38 38 36 38 38 37 41 56 65 65 68 69 69 68 70 71 71 73 73 73 73 72 72 71 70 69 69 67 66 65 66 68 67 66 65 63 62 63 64 64 63 65
44 42 38 36 36 38 39 38 36 36 36 38 40 46 50 62 66 68 69 69 69 70 70 71 71 71 72 72 72 71 70 69 68 67 66 65 64 65 67 68 67 66 65 64 63 63 63 63 63
46 43 37 38 36 37 39 38 38 36 37 41 41 40 41 59 67 68 67 66 67 70 69 70 71 70 70 70 71 69 67 67 66 66 65 65 65 66 66 68 67 67 67 66 65 63 63 63 62
47 41 37 37 37 37 37 37 39 42 40 41 45 52 55 63 67 67 67 67 67 68 69 69 70 70 70 70 69 67 66 65 65 64 64 64 65 65 65 67 68 67 67 66 66 65 64 63 62
45 39 38 39 38 37 37 36 40 39 39 40 41 45 48 60 65 65 65 65 66 66 66 68 69 70 69 69 67 65 64 63 62 63 63 63 65 64 65 65 67 67 67 66 65 65 64 60 60
43 38 39 39 39 38 38 40 42 38 38 38 38 43 45 47 52 61 64 65 65 65 66 67 68 70 69 68 66 64 63 63 63 62 62 62 63 64 64 65 67 66 65 65 64 64 63 61 58
40 42 40 40 42 41 39 42 40 40 38 41 43 44 44 44 46 51 61 64 64 64 66 68 68 69 69 67 66 64 63 63 62 62 61 61 62 63 64 65 66 66 65 64 64 63 63 62 59
41 41 41 40 43 42 42 40 40 41 44 46 46 46 44 44 46 53 58 64 64 64 64 66 68 69 68 67 66 64 63 63 62 62 61 59 61 61 63 63 64 64 64 63 63 62 62 62 60
40 40 41 41 40 42 39 39 40 39 42 45 45 44 46 45 44 50 60 63 64 65 64 65 68 68 68 67 66 64 64 63 63 62 62 60 58 59 61 61 62 63 63 63 62 61 61 61 60
41 36 40 41 41 39 38 38 38 39 45 43 44 45 44 45 44 43 58 63 64 64 65 65 67 68 68 67 66 65 64 64 63 62 62 61 60 58 58 60 60 60 61 62 62 61 60 60 59
37 36 35 37 40 39 37 35 36 39 42 40 44 44 43 44 43 42 53 62 64 64 65 66 66 67 67 67 66 65 65 64 64 63 63 62 61 60 58 57 58 59 60 60 60 60 59 59 58
35 31 32 34 40 37 36 34 35 39 43 38 42 42 41 43 42 39 47 61 63 64 64 65 66 66 66 66 65 65 65 64 64 64 64 63 62 61 60 59 58 58 59 59 59 59 59 57 57
27 30 32 31 38 37 35 33 33 39 42 39 42 44 41 41 43 40 39 58 62 64 64 65 65 65 65 65 65 64 64 64 64 64 64 64 63 62 61 60 60 59 58 58 58 58 58 57 57
30 32 31 33 37 36 33 34 34 39 43 41 42 45 44 43 44 40 36 42 59 61 63 64 64 64 64 63 63 63 63 63 63 63 63 63 64 63 61 61 60 58 58 57 57 57 56 56 56
30 30 31 33 35 37 34 33 35 35 42 42 42 44 43 42 42 40 36 32 34 56 60 62 63 64 64 64 63 63 63 63 64 63 62 62 62 63 62 61 60 59 58 57 56 56 55 55 55
31 31 31 30 34 33 34 33 34 35 35 40 41 44 42 40 40 40 37 35 32 34 51 60 62 63 64 64 63 63 63 62 63 63 63 62 60 60 61 61 60 59 59 59 58 57 56 56 56
28 32 31 33 32 28 32 25 30 34 34 34 37 37 41 40 39 35 33 33 33 34 37 44 56 61 63 63 63 63 62 61 62 62 63 63 62 61 60 60 59 59 60 59 59 59 58 57 57
34 30 30 31 30 28 30 28 27 29 33 34 35 34 34 37 37 37 34 33 35 38 38 39 41 44 45 56 62 63 62 62 62 62 62 62 63 63 63 61 60 59 59 59 59 59 58 58 58
35 33 32 32 28 25 27 28 25 26 27 32 34 35 35 34 34 34 33 37 39 40 39 39 40 41 39 39 41 53 59 60 60 60 60 60 61 61 62 63 63 62 60 59 59 59 59 58 58
32 30 25 22 22 20 25 28 26 28 28 27 28 32 34 35 35 34 34 38 40 40 41 43 43 43 44 43 42 41 39 40 44 48 50 51 51 54 57 59 61 62 62 62 61 60 60 59 59
33 28 20 16 18 21 27 25 23 28 29 28 28 27 28 34 35 34 36 39 40 41 43 43 44 44 45 45 46 47 47 46 46 47 48 50 52 54 55 56 58 60 60 60 61 60 60 60 59
33 28 25 22 20 21 23 24 24 26 27 27 27 27 28 28 31 34 38 41 41 43 43 44 44 45 45 46 46 45 46 46 47 47 49 49 50 51 52 53 54 55 58 59 59 57 55 54 52
35 34 26 24 18 15 19 20 17 21 22 23 24 28 29 33 34 39 42 41 42 42 43 44 44 44 44 43 43 42 42 41 41 41 42 44 45 46 47 48 49 49 50 52 53 51 49 49 48
33 31 28 27 24 17 15 15 21 21 20 21 22 27 31 36 39 42 41 41 41 41 42 43 42 42 40 39 38 37 36 36 36 36 36 37 38 38 40 42 44 45 46 47 48 47 46 45 44
35 31 28 22 23 20 20 17 21 22 24 25 26 33 36 38 41 41 40 39 40 40 41 42 41 39 38 37 36 35 35 34 35 34 34 35 36 36 37 38 39 40 41 42 43 43 43 42 42

GFSSGP_sfc_30mbdewp_090.txt.gz
Dewpoint
62 57 51 47 30 27 20 23 30 27 27 29 33 27 29 32 43 43 62 63 63 66 68 69 72 72 72 72 72 72 71 70 69 68 67 67 65 64 64 64 63 63 62 62 63 63 62 62 61
59 53 48 41 28 22 20 23 27 29 33 34 33 31 35 34 55 62 62 65 65 66 68 67 72 72 72 72 72 72 71 70 70 69 67 67 65 64 65 63 62 61 62 63 63 62 63 63 63
58 52 40 33 27 23 20 26 26 34 36 35 31 40 43 48 59 61 63 65 65 66 68 68 72 72 72 72 72 72 71 71 70 70 69 68 66 65 66 64 61 61 62 63 64 65 65 65 64
52 48 43 31 27 27 25 26 31 35 37 36 34 38 55 62 61 62 65 65 65 65 67 71 71 72 72 72 72 71 71 71 70 70 69 69 68 66 66 65 62 63 64 64 65 65 66 67 66
53 47 36 31 27 27 30 32 33 34 35 35 36 43 53 63 66 65 64 65 64 65 67 70 71 73 72 72 71 72 71 70 69 68 68 67 68 68 67 65 63 62 63 64 64 64 65 66 66
48 45 34 30 29 31 29 36 34 32 36 36 36 45 57 64 65 66 66 67 67 65 67 69 72 73 72 72 72 72 71 70 68 69 67 66 66 69 67 66 65 62 62 64 64 64 64 66 66
44 40 34 30 28 31 30 35 34 33 33 36 43 45 55 62 67 68 67 66 67 67 67 68 69 71 71 72 72 71 71 70 69 67 67 66 65 67 68 67 66 64 62 64 64 64 63 64 65
45 42 34 31 29 30 35 35 36 34 34 40 41 41 45 54 67 68 67 67 66 65 66 66 68 69 68 69 71 70 70 68 67 67 66 65 65 65 68 67 67 67 65 64 63 64 63 63 63
48 41 36 31 31 31 36 36 39 39 38 40 49 48 58 61 66 67 66 66 65 65 65 65 66 67 67 67 68 68 67 67 66 65 65 63 58 59 64 67 67 67 67 66 64 64 64 63 62
41 38 34 34 34 34 35 37 37 37 37 39 43 47 60 63 65 65 65 64 63 64 65 66 66 67 66 66 67 65 64 63 62 61 61 57 58 59 58 66 67 67 67 67 66 65 62 60 56
40 32 35 36 39 38 36 37 37 36 35 36 37 45 54 53 58 62 64 65 65 65 66 67 67 66 66 66 65 64 63 62 61 58 56 56 59 60 59 62 67 66 65 64 64 63 61 58 52
36 36 35 38 41 40 37 36 37 36 34 38 37 44 48 50 48 52 58 64 66 65 65 67 68 67 65 65 65 63 62 62 60 59 54 55 58 59 57 59 62 63 63 63 63 61 61 60 58
36 34 38 38 40 41 39 38 36 37 39 41 42 44 44 45 47 50 55 61 65 64 65 66 67 67 66 65 64 63 62 62 61 61 58 54 55 58 60 60 61 61 62 61 61 60 60 60 59
33 34 37 38 39 42 38 37 39 38 42 42 43 44 44 43 44 50 56 60 63 64 64 66 66 66 66 65 65 64 62 62 62 61 61 59 56 56 58 60 60 60 60 60 59 58 57 57 58
34 32 38 39 35 37 41 37 38 37 42 41 41 41 44 44 42 44 51 59 63 63 64 64 66 67 67 65 65 64 63 63 62 62 62 61 60 59 59 56 57 58 58 57 59 59 58 56 55
33 32 30 35 37 36 37 31 36 38 39 40 40 40 41 42 41 42 41 58 62 63 64 65 66 67 67 66 65 65 64 63 63 62 62 62 61 61 60 59 56 56 57 58 58 57 57 56 56
32 25 25 31 38 37 36 29 34 38 39 38 37 39 41 41 41 41 41 50 60 62 63 64 66 66 67 67 66 65 65 64 63 63 63 62 62 61 61 60 59 57 57 58 58 57 57 56 56
26 24 24 27 36 37 35 31 34 36 38 37 35 36 39 40 39 41 41 47 60 62 62 63 65 66 67 67 66 66 65 64 64 64 63 63 63 62 62 61 61 60 59 59 58 58 58 57 56
23 23 23 26 35 35 31 31 32 34 37 35 34 37 39 39 39 41 40 40 60 62 62 62 62 65 66 66 65 65 65 65 65 64 65 64 64 63 63 62 61 61 60 59 59 58 57 57 57
32 22 26 25 36 34 31 31 33 34 34 34 34 33 36 41 39 41 41 36 50 60 62 63 62 63 65 65 65 65 65 66 66 66 65 64 64 64 63 62 62 61 61 60 59 58 57 57 57
31 23 24 28 34 35 32 31 30 32 35 35 37 37 36 41 40 40 41 41 39 42 57 62 62 63 65 65 64 64 64 64 64 65 65 64 64 63 63 63 62 62 61 60 60 59 58 57 58
29 25 29 28 28 25 33 19 26 30 32 34 35 37 39 41 41 40 39 39 38 37 38 47 60 63 64 65 64 63 63 62 63 63 65 65 63 62 62 62 62 62 61 61 61 61 60 59 58
33 32 28 29 27 28 30 27 22 29 30 32 33 35 36 39 39 40 39 39 37 40 40 42 47 58 62 64 64 64 63 64 64 63 63 63 64 64 63 62 61 61 60 61 61 61 60 59 59
36 32 31 30 29 25 22 25 17 23 26 29 32 33 35 36 37 38 39 38 39 42 41 42 43 45 47 56 61 63 63 63 62 62 62 63 63 63 64 64 64 63 62 61 60 60 60 60 60
32 30 25 23 23 17 22 26 20 24 28 27 28 30 34 35 36 36 37 38 40 41 41 42 42 43 42 42 43 46 52 55 56 56 56 56 56 58 60 61 62 62 63 62 62 62 61 61 60
31 31 19 12 13 13 27 22 19 25 26 28 29 28 30 35 36 36 36 37 40 41 42 41 42 43 43 43 44 45 43 42 43 45 45 47 50 52 55 55 58 59 60 61 62 62 62 62 61
33 29 27 23 23 17 19 23 24 25 27 28 29 28 29 30 33 35 37 38 39 41 42 42 43 44 45 45 45 46 46 47 47 48 50 50 51 51 53 54 55 56 58 60 61 61 59 59 56
32 36 26 28 19 13 19 18 8 21 23 23 23 26 29 30 30 31 35 38 40 42 43 44 43 44 45 45 45 44 44 44 45 45 46 47 48 48 50 51 52 53 54 55 56 54 52 52 50
31 31 29 27 26 15 15 15 21 21 23 23 23 25 28 31 34 33 37 40 42 43 43 44 43 43 43 42 42 42 41 41 41 41 41 42 42 43 45 45 47 48 49 50 50 49 49 48 47
35 31 28 25 24 22 22 16 21 23 26 27 28 32 34 35 38 39 39 41 41 42 43 42 42 41 41 40 40 39 39 39 39 38 38 39 39 39 40 42 43 43 44 46 47 46 47 46 45

GFSSGP_sfc_30mbdewp_093.txt.gz
Dewpoint
62 59 49 45 34 28 23 19 19 21 24 26 28 28 33 37 45 47 58 56 63 64 66 70 72 72 72 72 71 71 70 70 69 67 66 65 65 65 64 64 64 64 64 63 62 62 61 61 60
56 55 46 40 31 23 22 21 23 25 25 28 30 29 30 39 54 60 58 61 63 64 66 68 72 72 72 71 71 71 70 70 69 68 67 65 64 64 63 62 63 63 63 63 63 64 64 64 63
58 54 40 36 32 24 21 22 25 29 32 30 25 31 32 47 56 59 61 61 63 64 64 68 72 72 72 71 72 71 70 70 70 69 68 66 65 65 63 62 62 63 64 64 64 65 65 65 65
54 49 45 32 29 27 25 23 24 32 33 32 26 27 53 61 59 60 61 62 62 65 64 70 71 72 72 72 72 71 71 70 70 69 69 68 66 66 63 62 64 65 65 65 65 67 67 66 66
53 46 36 34 29 28 27 26 26 32 31 32 31 36 51 63 64 62 61 61 61 64 68 68 71 72 72 72 72 71 71 70 70 69 68 69 67 66 64 63 64 65 65 65 65 66 66 66 67
50 45 36 31 29 29 28 30 29 30 33 34 32 38 57 64 63 62 61 60 60 64 69 67 71 71 72 72 72 71 71 70 69 68 67 67 69 67 65 64 63 64 65 65 65 65 66 66 66
47 40 35 30 27 27 29 31 28 29 33 36 39 38 57 63 65 64 64 65 62 65 68 67 68 70 71 71 71 71 69 68 68 67 67 67 68 68 66 66 64 63 64 65 64 64 65 66 64
47 43 35 30 28 26 31 31 32 29 32 39 43 45 50 63 67 65 66 66 65 66 67 65 66 68 68 69 71 70 70 68 67 67 66 65 66 68 68 67 66 65 64 64 64 64 63 65 64
47 43 37 31 27 26 32 30 32 34 36 37 46 48 55 58 66 66 66 66 61 65 66 65 65 66 67 66 69 70 69 67 67 65 65 63 58 64 67 66 67 67 65 64 64 64 64 62 62
42 40 37 33 29 27 31 33 35 35 35 39 42 55 57 60 64 65 65 63 61 63 64 65 66 66 66 67 67 67 66 64 63 63 62 58 54 55 64 66 66 66 67 66 65 64 62 60 57
39 36 37 33 32 40 36 35 37 35 33 35 38 51 59 63 63 64 64 62 62 64 66 64 66 66 66 66 65 66 63 62 60 58 58 54 56 58 62 66 67 66 65 64 64 63 60 56 51
35 34 32 34 44 40 38 39 34 36 35 36 37 45 54 58 61 63 64 64 61 64 65 67 66 67 65 65 64 65 62 60 59 56 52 54 56 56 55 60 64 65 63 64 63 60 59 59 56
32 32 31 34 41 43 41 38 36 35 37 37 37 43 47 52 56 59 60 64 65 65 64 65 65 66 65 63 64 64 61 60 59 57 53 51 54 55 54 57 59 60 60 62 60 58 58 58 58
30 32 32 32 41 41 39 36 34 36 36 38 39 42 42 46 49 52 57 60 64 65 65 65 65 64 64 64 64 63 62 61 60 59 58 53 52 54 57 58 58 58 59 58 58 57 56 56 56
35 31 32 34 32 38 37 33 33 35 38 39 38 39 42 43 45 49 52 57 61 64 65 66 66 66 64 64 64 63 62 61 61 60 60 59 57 55 56 56 57 57 57 55 56 56 56 54 53
33 33 26 30 32 32 36 29 30 34 35 38 36 37 41 42 41 46 54 57 61 61 63 64 66 65 66 64 64 64 63 62 62 61 61 61 60 59 59 58 55 55 56 56 57 56 56 54 54
34 32 24 24 34 30 35 29 26 32 35 36 36 36 37 40 41 42 51 59 60 60 61 63 64 65 65 66 65 65 64 63 61 61 61 61 61 60 60 59 57 55 56 57 57 56 56 56 56
30 29 23 21 32 32 31 29 27 33 34 33 34 34 36 37 39 41 46 54 59 60 60 62 64 65 65 66 66 66 65 64 62 62 62 61 61 61 61 60 60 58 57 57 58 58 57 57 56
33 26 20 19 28 29 31 28 28 33 34 33 32 32 33 36 39 40 43 55 58 60 60 61 63 64 66 66 66 65 64 65 64 64 64 63 62 62 62 61 60 60 59 59 59 58 58 58 58
33 30 22 18 30 30 30 29 28 31 33 33 32 30 32 34 37 39 41 46 58 59 61 61 60 62 65 66 66 65 65 66 66 66 65 65 65 64 63 62 62 61 61 60 60 59 58 58 58
32 29 25 19 30 32 30 27 28 29 31 32 32 31 31 31 35 38 40 42 55 59 60 60 59 59 63 65 66 65 65 65 65 66 66 66 65 65 65 64 63 63 62 61 61 60 59 58 58
30 28 28 23 28 22 29 22 23 26 28 29 32 31 32 32 36 39 40 42 42 44 55 60 60 62 64 65 64 63 62 59 62 62 64 65 66 65 65 65 64 63 63 63 62 62 61 60 59
33 35 26 28 26 24 26 22 18 23 26 28 30 30 31 34 38 39 41 43 43 42 43 47 58 61 63 64 64 63 61 62 62 63 64 64 65 65 64 64 63 63 63 62 62 62 62 61 60
36 34 34 29 27 25 23 20 13 23 24 26 28 29 30 33 38 39 41 41 42 44 44 45 47 54 60 63 63 60 59 59 61 62 62 63 64 64 64 65 64 63 62 62 62 62 62 61 60
33 32 26 23 24 16 18 22 18 21 24 24 27 29 30 33 36 38 40 40 40 43 44 44 43 45 48 54 58 61 62 61 60 60 60 60 61 62 62 63 63 63 64 63 63 62 62 61 60
31 32 25 17 18 16 22 17 18 21 23 26 27 28 29 32 34 35 37 40 40 42 43 42 43 43 43 44 46 46 46 46 49 48 46 48 49 51 55 56 57 59 61 61 62 63 62 62 61
31 28 30 24 17 16 18 17 22 24 25 27 27 28 29 31 33 34 36 36 39 42 43 42 42 44 44 44 45 45 45 46 46 48 48 49 50 51 52 53 54 55 56 58 60 62 62 62 61
32 34 26 27 17 13 15 10 14 21 23 25 26 27 29 29 30 31 35 36 39 41 42 43 43 43 44 45 44 45 45 45 46 47 48 49 49 50 51 52 53 53 54 55 57 56 55 54 52
30 30 33 28 27 14 15 12 21 21 23 23 24 25 26 29 30 31 32 35 38 41 43 43 43 44 44 44 43 43 42 42 43 43 43 44 44 45 47 47 49 50 51 52 52 52 51 51 50
33 31 28 24 23 24 24 17 23 25 26 26 27 31 32 33 34 34 33 38 40 42 42 42 43 43 42 41 41 41 41 41 40 40 40 40 41 41 42 43 45 45 46 48 49 48 48 48 47

GFSSGP_sfc_30mbdewp_096.txt.gz
Dewpoint
61 62 59 48 42 33 29 24 24 20 26 28 28 28 36 54 54 50 58 62 68 69 71 72 72 72 72 72 71 70 70 69 68 66 65 65 65 65 65 65 65 64 63 62 61 61 60 61 61
56 57 52 44 38 29 25 26 22 22 26 29 29 29 36 53 58 58 58 64 66 68 69 71 72 73 73 72 71 70 70 69 68 67 66 64 64 64 64 64 64 64 63 63 64 64 63 64 66
56 56 47 40 36 30 25 26 22 26 31 29 28 29 41 54 58 59 60 64 64 67 68 70 72 72 71 71 70 70 70 69 69 67 67 66 64 62 62 63 63 63 64 64 65 65 65 66 67
53 54 50 38 33 33 31 25 26 31 31 30 29 41 59 63 59 61 61 63 63 65 69 71 72 71 70 71 71 71 71 70 70 68 68 67 65 62 63 64 65 65 64 65 67 67 66 67 67
52 51 42 39 34 33 32 29 30 32 31 30 29 45 59 62 64 61 61 63 63 64 69 71 72 72 71 71 71 71 71 71 70 69 68 67 65 62 63 65 66 66 65 66 67 66 67 67 67
50 48 39 36 35 32 31 29 30 32 31 30 29 47 60 64 63 61 61 62 63 67 68 70 72 72 72 71 71 71 71 71 70 69 69 68 66 64 63 65 66 65 65 65 66 66 66 66 66
48 44 40 36 34 31 30 28 28 30 32 34 41 37 60 63 64 61 60 61 67 67 67 69 70 71 72 71 71 71 70 69 69 68 69 69 67 66 64 65 65 65 65 65 65 66 66 65 64
50 47 39 36 34 30 31 30 29 31 33 40 46 49 58 64 65 64 65 66 68 67 67 68 69 70 70 70 71 70 68 68 67 67 66 68 67 67 67 65 65 66 66 65 65 64 66 65 64
47 43 39 38 33 30 30 30 32 33 35 40 49 54 63 65 66 65 65 64 66 66 65 67 67 68 69 69 69 69 68 67 66 65 64 65 68 67 66 66 65 65 65 65 65 64 64 63 62
43 40 39 40 36 31 34 30 32 34 36 42 53 55 63 64 66 64 63 62 64 66 65 66 65 67 68 68 68 68 67 66 64 64 63 62 62 67 66 66 66 65 65 65 65 64 62 60 59
41 38 40 40 37 43 41 36 32 34 35 40 50 55 60 63 64 64 63 63 63 65 65 66 66 67 67 67 66 67 66 64 64 63 61 60 57 65 66 66 66 66 65 65 64 62 59 57 56
38 37 37 39 44 46 42 44 42 36 34 39 49 56 61 63 63 63 63 62 64 64 65 65 67 66 67 66 66 66 64 63 61 59 58 57 59 59 65 65 65 65 65 64 64 63 62 59 56
36 34 34 36 41 44 44 41 41 42 39 37 48 54 57 62 63 63 64 64 64 64 65 66 67 66 66 66 65 65 64 61 59 55 52 56 57 57 56 64 65 64 64 63 62 62 59 59 58
38 35 33 34 39 43 42 42 42 42 40 38 42 46 51 54 61 61 63 63 63 65 64 65 66 66 65 65 65 64 63 60 60 58 54 52 55 57 56 58 62 62 63 63 61 58 57 57 57
39 35 33 36 40 43 43 39 42 44 39 37 38 41 43 49 54 59 61 63 64 65 66 65 65 65 65 65 64 63 62 61 61 60 58 56 55 55 58 59 59 59 58 57 58 57 56 55 54
37 34 33 35 37 40 41 36 39 41 40 38 38 38 41 44 46 50 54 61 63 64 65 66 66 66 66 65 65 65 62 62 61 61 60 60 58 58 58 58 57 58 57 56 57 57 56 55 55
35 30 31 29 33 32 38 34 34 35 34 38 38 37 40 42 42 45 53 57 62 64 64 65 66 66 66 65 66 65 64 63 62 62 61 61 61 60 60 60 58 55 57 57 58 57 57 56 56
27 29 28 26 27 33 29 29 29 29 32 33 36 35 36 41 41 43 51 57 61 62 63 64 65 65 66 65 65 65 65 64 63 62 61 62 61 61 61 61 60 56 57 57 58 58 58 57 57
32 28 26 25 27 28 31 31 30 29 31 32 34 35 35 35 38 42 47 57 60 61 62 63 64 65 65 66 65 65 63 64 64 64 63 62 62 62 61 61 61 60 58 58 58 58 58 58 58
33 33 26 27 28 29 31 31 30 29 33 33 33 33 32 33 37 39 46 53 58 60 61 62 64 65 65 65 66 65 65 64 65 65 65 65 64 64 62 62 62 61 61 60 60 59 58 58 59
32 31 30 31 28 32 29 30 30 28 31 33 34 33 32 32 34 38 42 50 57 59 61 62 63 64 66 66 66 65 65 65 64 64 65 65 65 65 65 64 63 63 62 61 61 60 59 58 58
28 32 31 29 28 30 34 26 33 33 30 32 32 32 32 31 33 36 42 46 56 59 61 61 61 62 64 65 65 63 62 61 62 62 63 63 64 65 65 65 65 64 64 63 62 62 61 59 58
31 36 34 35 29 27 29 26 29 31 26 28 30 32 32 32 34 36 41 43 45 50 56 61 61 62 64 64 63 63 60 59 59 61 61 63 63 65 65 64 64 63 63 63 63 63 62 61 60
36 35 34 35 32 26 29 23 17 21 25 27 29 30 32 32 34 37 44 45 44 45 46 47 60 61 62 60 58 56 56 56 59 59 59 61 63 64 64 64 64 63 63 62 63 63 62 62 61
33 32 26 24 24 23 27 23 18 19 24 26 27 30 31 31 34 39 43 43 44 45 46 47 48 53 60 61 61 58 54 55 54 56 56 54 54 56 62 63 63 63 64 63 63 62 62 62 61
31 31 26 17 19 18 23 26 21 22 24 26 27 29 30 31 35 39 42 42 43 45 46 44 45 45 48 52 55 57 59 57 56 55 55 55 55 56 57 56 56 57 60 62 62 62 63 62 62
31 28 34 29 21 20 18 16 18 24 25 26 27 28 29 32 33 38 39 41 43 44 45 44 45 44 45 46 45 45 45 46 47 47 49 50 50 51 52 53 54 54 56 56 58 60 61 62 62
32 33 28 30 22 20 17 14 16 22 23 26 27 28 29 30 31 32 36 39 43 43 43 44 45 44 45 45 45 45 46 47 47 48 49 49 49 50 51 51 52 53 54 54 55 56 56 57 55
29 29 32 31 26 20 15 16 22 23 24 24 24 26 29 30 30 31 33 37 42 43 43 43 44 45 45 45 44 44 43 43 44 44 44 44 44 44 46 47 48 49 50 51 52 53 53 53 52
31 28 31 27 23 28 26 19 26 26 26 27 30 30 31 32 32 32 32 40 42 42 43 43 45 44 44 43 43 42 41 42 41 40 40 41 41 41 42 43 44 45 45 47 49 49 50 50 50

GFSSGP_sfc_30mbdewp_099.txt.gz
Dewpoint
55 60 61 57 41 40 34 25 29 24 25 28 28 50 53 55 52 48 64 69 70 71 72 72 72 72 72 71 70 69 69 67 67 66 65 66 66 66 66 65 64 63 62 61 61 61 60 60 62
54 55 58 50 40 32 26 31 24 25 26 29 29 46 53 53 59 62 66 69 70 71 71 71 72 72 71 70 70 69 69 68 67 66 65 64 64 65 65 64 64 63 63 63 62 63 64 65 67
54 57 53 43 39 33 28 27 28 27 30 29 27 50 56 56 59 60 67 69 70 70 71 71 72 72 71 70 70 69 69 68 67 67 66 63 63 64 64 63 63 64 64 65 65 66 67 68 68
53 55 53 42 36 35 33 27 27 30 30 29 46 53 61 63 60 63 67 68 68 69 71 72 72 72 70 69 70 70 70 69 68 67 66 63 63 63 63 64 65 66 66 66 66 67 67 67 67
54 50 45 40 37 35 34 34 32 30 30 28 30 56 59 62 64 64 66 67 67 69 70 72 72 70 70 71 70 70 70 69 69 68 65 62 63 63 65 65 66 67 68 67 67 67 67 67 66
48 48 40 37 37 36 35 34 32 31 31 30 38 57 59 63 62 63 65 65 68 69 70 71 71 71 70 71 71 70 70 70 69 69 66 63 62 64 65 65 66 65 66 66 66 67 67 67 65
45 44 41 38 37 36 35 34 32 31 31 35 42 55 60 63 63 63 63 67 68 69 70 71 70 71 71 70 71 71 71 70 70 69 68 66 64 65 65 66 66 65 66 66 66 66 65 64 62
47 47 39 38 37 35 35 33 31 31 34 44 47 55 58 62 64 65 65 67 67 68 70 70 70 71 71 70 70 70 69 68 69 69 68 66 66 65 66 66 66 66 66 66 67 66 65 63 61
46 41 39 38 36 36 35 31 32 35 39 51 55 59 61 64 65 66 66 66 66 67 68 69 70 70 70 70 69 68 67 66 66 67 68 66 67 65 64 65 66 66 66 65 64 65 65 63 61
43 40 38 41 40 38 41 34 33 40 46 53 58 63 64 64 64 64 65 65 65 66 67 68 69 69 69 69 68 67 67 65 64 64 66 66 67 66 65 64 64 65 65 65 65 63 62 60 59
40 39 40 42 41 45 42 38 42 39 43 52 56 61 63 64 64 63 63 65 65 65 67 67 68 69 68 67 67 66 65 64 64 63 62 63 66 65 65 65 65 64 64 64 63 62 61 59 59
39 39 40 39 47 46 42 44 42 43 41 53 57 62 63 64 63 63 62 63 65 65 66 66 67 68 67 66 67 66 65 64 63 63 61 60 62 66 65 65 65 64 64 64 63 61 59 58 57
38 39 38 38 46 46 46 44 44 45 45 48 58 61 62 62 63 63 63 64 65 64 66 67 67 67 66 66 67 65 64 64 62 60 58 59 62 65 65 64 65 64 64 64 63 63 62 60 58
40 38 37 36 44 45 45 45 46 44 45 47 56 59 61 62 61 62 63 63 64 65 65 67 67 67 67 66 65 64 64 61 58 56 54 58 58 59 63 64 64 63 63 64 63 62 60 59 58
39 36 35 40 43 43 44 43 43 47 48 47 49 54 58 61 62 61 62 63 64 64 65 66 66 66 66 66 65 64 63 61 57 55 53 53 57 57 57 63 63 63 62 63 62 59 57 55 55
37 36 32 36 40 42 41 36 43 47 49 46 45 46 53 57 60 60 62 63 64 64 65 65 66 66 65 65 65 64 63 61 60 58 57 56 56 57 58 59 60 59 59 57 57 57 56 55 54
34 30 32 32 37 44 39 37 42 45 48 46 45 39 48 50 53 57 60 62 64 64 65 65 66 66 65 65 65 64 64 62 61 60 59 58 58 59 58 58 57 57 57 57 57 57 57 56 55
28 29 31 31 33 40 38 35 36 46 46 45 42 40 42 43 45 50 54 61 62 64 65 65 65 66 66 66 66 65 64 64 62 62 61 60 60 59 59 60 59 56 57 57 58 57 57 57 57
31 31 31 28 29 37 35 35 35 39 43 43 42 41 37 42 43 45 54 58 62 64 64 64 64 65 65 65 64 64 64 64 64 63 63 62 61 60 60 61 60 58 56 57 57 58 58 57 58
32 31 28 28 27 28 31 32 33 30 31 36 38 37 35 37 40 43 53 58 61 62 63 64 64 65 65 65 65 65 64 64 64 64 64 63 63 62 61 61 61 61 57 57 58 58 58 58 58
31 31 28 27 29 30 29 29 32 32 30 34 34 34 34 33 35 43 50 57 59 60 62 63 64 65 65 65 65 65 64 64 64 64 64 65 65 65 64 62 62 62 61 59 60 59 58 57 58
29 36 32 31 29 26 34 24 30 32 30 32 33 33 33 32 33 43 48 54 58 59 61 63 64 64 65 65 65 63 62 61 63 63 63 63 64 65 65 65 65 64 64 63 62 62 61 59 58
32 36 34 33 32 29 33 30 29 32 30 31 31 33 33 32 33 40 45 52 57 59 60 61 62 64 65 65 64 62 61 60 61 61 61 61 62 63 63 64 64 63 63 63 63 63 62 62 60
36 36 36 35 34 25 30 30 19 29 31 31 31 32 32 32 32 38 43 49 54 54 54 59 61 62 64 63 62 61 58 59 59 60 60 61 62 62 63 64 63 63 62 61 61 62 62 61 61
34 32 26 24 25 22 30 28 22 26 28 30 29 30 32 32 32 37 43 45 45 47 50 53 58 61 61 58 57 56 55 55 55 56 56 56 56 55 60 62 62 61 62 60 61 62 61 61 61
31 30 25 19 20 20 28 24 23 23 25 28 28 30 31 32 32 40 44 44 43 43 46 48 52 56 59 59 58 58 57 57 57 57 54 52 52 55 58 60 59 60 61 60 61 62 62 62 62
31 28 33 28 25 20 25 22 20 25 25 26 28 29 30 31 32 39 44 43 44 44 44 43 46 49 51 53 51 52 53 53 51 50 50 51 52 52 52 53 53 54 56 56 57 58 59 60 61
32 33 27 28 20 17 17 16 15 22 23 26 27 28 29 31 33 40 43 42 44 45 45 44 45 44 47 47 47 47 47 48 48 49 49 49 50 50 51 51 52 53 53 53 54 55 55 56 56
28 28 32 32 27 20 16 16 24 24 24 25 26 27 29 30 30 33 39 42 43 44 44 43 44 44 45 45 46 46 46 46 47 46 46 45 45 46 47 47 48 49 49 51 52 52 53 53 53
30 27 32 26 25 28 23 19 26 26 27 29 30 30 32 32 31 32 40 42 43 43 43 43 44 44 45 45 44 44 44 44 43 42 42 43 42 42 42 43 45 45 45 47 49 50 51 51 51

GFSSGP_sfc_30mbdewp_105.txt.gz
Dewpoint
52 54 58 57 46 42 34 33 35 27 28 34 30 42 45 48 45 42 67 68 70 71 72 71 71 71 69 68 67 67 68 70 70 70 70 69 68 68 66 65 63 63 62 63 64 65 66 67 66
57 52 57 51 42 36 32 33 31 32 28 39 47 53 52 50 63 65 66 70 70 71 71 71 71 70 69 67 67 67 67 70 70 69 69 68 67 65 64 63 62 62 61 62 65 67 68 66 65
56 53 49 46 41 34 25 31 26 29 29 35 48 57 55 56 64 65 68 70 70 71 71 71 71 70 69 68 68 67 67 68 69 69 69 67 65 65 63 62 62 63 64 66 67 68 66 66 66
53 49 49 43 37 38 29 27 29 27 27 29 49 54 60 63 65 67 69 70 70 71 71 71 70 70 69 68 68 67 66 66 67 67 68 66 64 64 63 63 65 66 67 67 67 67 65 66 65
52 48 41 39 39 38 37 32 28 25 25 29 55 54 58 62 67 68 69 69 69 70 70 70 70 69 69 69 68 68 66 65 65 66 65 64 64 63 64 65 66 66 67 67 67 66 65 66 65
44 45 37 36 39 38 38 37 34 30 29 39 53 57 59 65 68 68 69 69 69 69 69 69 69 70 70 69 68 68 66 65 64 65 64 63 63 64 65 66 67 67 67 67 67 66 64 64 64
41 40 33 35 37 39 39 37 35 32 31 30 56 54 60 65 67 68 68 69 69 69 69 69 69 70 70 70 69 69 68 66 65 65 64 64 65 66 68 68 68 67 67 67 67 66 64 64 64
41 41 34 34 37 38 40 39 36 33 30 46 57 53 58 65 68 68 68 68 69 69 68 69 69 69 70 70 69 69 69 66 65 65 66 65 65 66 67 67 67 67 67 67 67 65 63 63 63
42 36 32 32 35 40 41 38 37 36 38 45 53 57 61 66 67 67 67 67 67 68 69 69 69 69 70 70 69 69 69 67 66 66 65 65 66 66 66 66 67 68 67 66 65 64 62 61 61
37 35 33 35 35 40 45 43 37 37 41 49 57 62 64 65 65 64 64 64 65 66 67 68 68 69 69 69 69 68 68 67 65 64 65 65 65 65 66 66 66 67 67 67 66 65 62 59 58
36 33 38 36 39 44 45 46 45 42 38 50 54 60 63 64 63 63 63 63 64 65 67 68 68 68 68 68 67 66 67 66 65 64 64 64 64 64 65 65 65 65 65 64 64 62 60 58 57
35 36 37 38 41 42 44 48 46 44 44 47 50 61 62 63 63 62 62 63 63 66 67 68 68 68 67 67 65 64 65 65 65 65 64 64 63 63 63 63 63 62 62 61 60 59 58 58 57
36 33 35 38 39 45 45 46 47 43 47 51 54 60 62 62 63 63 63 64 65 65 66 67 68 68 67 66 64 63 62 63 64 64 64 64 64 63 62 62 62 61 62 61 60 58 57 57 59
38 36 33 36 40 41 42 44 48 47 48 50 55 57 59 61 62 64 64 64 65 65 67 67 67 67 66 65 64 63 63 63 62 63 64 63 64 64 63 62 62 62 62 62 61 61 61 61 61
38 36 36 35 38 41 42 38 45 49 47 47 48 50 55 59 63 64 63 64 65 66 66 67 67 67 66 65 64 63 63 63 63 61 61 62 65 65 64 63 63 63 63 62 63 62 61 60 60
34 35 29 33 36 42 39 33 43 49 46 46 47 47 48 53 61 64 64 64 65 66 66 67 67 66 65 65 65 64 64 63 62 61 59 60 61 64 64 63 63 63 63 62 62 61 59 57 56
33 27 31 31 39 42 38 34 41 50 48 45 46 46 46 47 54 61 64 64 65 65 66 66 67 66 65 65 65 64 64 62 61 59 57 58 59 61 62 63 63 63 62 61 61 59 57 56 55
27 28 31 30 38 39 37 36 40 44 48 46 46 45 45 45 47 57 62 64 65 65 66 66 67 66 65 66 65 64 64 62 59 57 56 56 57 58 60 60 61 61 61 60 59 57 57 56 56
30 30 30 32 38 38 37 35 37 41 41 46 45 44 44 45 45 46 60 63 63 64 65 66 66 66 65 65 64 63 62 61 60 58 57 56 56 57 58 58 58 59 58 58 57 57 56 56 57
30 29 30 32 34 36 37 35 38 40 40 46 45 44 44 45 44 43 52 61 62 63 63 65 65 65 65 65 64 64 63 63 61 61 61 59 59 58 58 59 59 57 57 57 57 57 57 57 57
30 29 31 31 37 37 36 35 38 42 43 44 46 45 45 46 44 41 48 58 61 62 63 64 64 65 65 65 64 64 64 64 63 63 62 62 61 61 60 60 61 60 58 57 57 58 58 57 58
27 32 32 32 32 29 36 27 35 38 40 42 43 44 44 45 44 41 43 54 59 60 63 63 64 65 65 65 64 63 62 61 63 63 64 64 64 63 63 62 62 62 62 61 59 60 60 60 59
31 35 31 33 32 32 32 26 29 37 37 38 39 43 44 45 44 41 39 52 57 60 61 63 63 64 64 64 64 63 62 62 62 63 63 63 64 64 64 64 64 64 64 64 63 62 62 61 60
35 35 32 34 32 24 29 27 25 32 32 34 36 41 44 45 44 38 38 48 56 59 60 62 62 63 63 64 63 63 62 61 61 62 62 62 62 63 63 63 63 63 63 63 63 63 62 62 61
32 29 24 22 22 20 31 26 22 30 30 30 32 33 41 41 35 33 41 48 54 57 59 60 61 61 63 63 63 62 61 60 60 61 60 60 60 61 61 62 62 62 61 62 61 58 57 58 59
31 30 21 17 17 23 32 24 23 27 27 30 31 31 32 33 34 34 41 48 52 56 57 59 60 60 61 61 61 60 60 59 60 59 59 59 59 58 60 60 59 59 59 59 57 57 57 57 57
30 28 33 23 24 23 26 27 23 24 26 27 31 31 31 32 33 33 40 46 51 54 55 58 59 59 60 60 59 58 58 58 57 57 57 56 55 55 56 57 57 57 57 57 58 58 58 58 58
33 34 27 25 16 19 23 18 17 23 24 27 28 31 31 31 33 33 40 44 49 53 53 55 57 58 58 58 57 56 56 55 54 54 54 53 52 53 54 54 53 53 53 53 53 53 53 53 53
29 28 31 29 24 17 18 17 23 25 25 26 28 29 29 30 31 33 38 43 46 48 50 51 54 55 56 55 53 53 53 51 50 51 50 50 49 50 50 50 50 50 49 49 49 50 51 51 51
29 27 31 22 24 23 18 22 25 27 29 29 31 32 33 32 32 35 39 42 44 45 45 45 47 51 52 50 50 50 49 48 48 47 46 46 45 45 45 46 46 45 45 44 45 46 48 49 49

GFSSGP_sfc_30mbdewp_108.txt.gz
Dewpoint
56 55 56 53 44 43 38 35 37 29 28 33 33 40 44 48 46 40 66 67 69 70 71 71 71 69 68 67 68 70 71 71 71 71 70 69 69 68 66 65 64 63 65 64 65 67 66 66 65
56 54 56 50 41 35 35 37 34 31 30 31 38 50 51 43 62 64 66 69 69 70 71 71 70 69 68 67 68 70 70 70 70 70 70 69 68 66 65 64 63 63 65 65 67 67 66 66 66
53 54 45 45 42 35 31 33 32 33 33 39 35 51 55 54 63 64 68 69 70 70 71 71 70 69 68 67 67 70 70 70 70 69 69 68 66 65 64 63 63 65 66 68 68 67 66 65 65
52 50 47 40 39 37 35 28 31 28 28 30 46 44 53 62 64 66 69 69 69 70 70 71 70 69 69 68 68 69 69 70 69 69 68 67 65 64 63 63 65 66 68 68 66 66 66 65 63
52 47 37 35 37 40 38 35 29 28 27 28 50 41 45 64 67 68 69 69 68 70 71 70 70 70 69 68 68 68 69 69 69 68 67 65 64 64 64 65 66 68 68 67 66 66 66 65 63
44 44 35 28 30 41 40 38 37 31 27 40 52 47 49 65 67 68 68 68 68 69 69 70 70 69 69 67 67 67 67 68 68 67 66 64 64 64 64 65 67 68 67 67 65 65 65 65 63
39 40 33 32 29 31 39 41 38 36 32 31 53 50 60 65 67 68 68 68 69 69 69 69 69 69 69 68 67 66 66 67 66 66 65 64 65 65 66 67 68 68 68 67 66 65 65 64 64
41 38 35 33 30 32 38 41 41 39 35 48 57 49 57 65 68 68 67 68 68 68 68 68 68 69 68 68 68 67 66 66 66 65 65 65 66 67 68 68 68 68 68 68 67 64 64 65 64
41 34 30 32 33 32 39 42 43 41 38 41 56 57 60 67 68 66 65 67 67 67 68 68 68 69 69 68 68 67 66 66 66 65 65 65 66 67 67 67 67 68 68 67 65 64 63 63 63
36 32 30 33 34 33 35 41 46 45 40 40 55 61 66 66 66 65 64 64 65 66 67 68 68 68 69 68 69 68 66 65 65 65 65 65 65 65 66 66 67 68 67 66 65 63 61 59 58
37 31 31 33 37 38 37 41 45 46 43 42 51 60 64 65 65 64 64 64 64 66 67 68 68 68 68 67 68 68 66 65 64 64 64 64 64 65 65 65 66 65 65 65 63 61 59 57 57
34 35 34 34 38 38 39 42 43 46 46 47 47 61 63 62 62 64 64 64 65 65 66 68 68 68 67 66 66 66 65 64 63 64 64 63 63 63 63 63 63 63 62 62 60 59 58 57 57
35 34 36 36 35 36 41 42 44 43 46 48 49 57 60 61 62 63 63 64 64 63 66 67 67 67 67 66 65 65 65 64 64 63 64 63 62 62 62 62 61 61 60 59 58 57 56 56 58
36 36 37 37 36 36 38 40 43 43 47 48 53 55 58 61 62 62 61 61 63 64 65 67 67 67 67 66 64 63 64 64 64 64 63 63 63 61 61 60 60 60 60 60 59 58 58 60 61
37 33 35 36 33 35 41 38 37 42 47 48 50 54 57 60 61 61 61 61 58 61 65 67 67 67 66 65 64 62 62 63 64 64 64 63 64 62 62 61 61 61 62 62 62 61 61 61 60
32 33 28 35 32 34 38 31 37 44 45 47 48 51 53 56 57 61 62 62 61 64 65 66 66 67 66 65 64 63 62 63 62 62 63 63 64 64 63 62 62 62 62 62 62 61 60 59 57
31 26 28 30 31 30 37 32 36 42 43 46 46 47 49 52 58 60 63 63 63 64 66 66 66 66 66 65 64 64 63 63 63 61 61 62 63 64 64 63 62 62 62 62 61 61 59 58 56
23 26 29 28 30 30 35 35 40 41 40 42 47 46 47 49 50 57 61 62 64 65 66 66 66 66 65 65 65 64 63 62 62 60 58 59 60 62 64 63 63 62 62 61 60 60 58 56 56
30 27 27 30 34 33 35 34 35 40 39 40 45 45 46 47 47 51 61 63 62 63 66 66 66 66 65 65 64 63 62 61 60 59 58 57 58 59 60 61 61 62 61 61 60 58 57 56 57
30 27 29 32 35 34 36 35 39 38 39 41 44 45 45 46 46 46 58 62 61 61 64 65 66 66 65 65 64 63 63 62 61 60 58 57 57 58 58 59 58 58 59 59 58 57 57 57 57
29 28 30 30 36 38 36 35 37 40 42 43 43 45 45 45 45 45 53 60 62 61 63 64 64 65 65 65 64 64 63 63 62 61 60 60 59 58 58 59 59 58 58 58 57 57 57 56 58
26 33 34 33 31 29 35 26 36 39 39 41 43 44 44 45 45 42 44 55 60 61 63 62 64 65 65 65 64 62 62 61 62 62 62 62 62 61 60 60 61 60 60 59 59 60 59 59 58
30 35 33 34 31 32 31 25 32 38 37 38 40 42 44 45 45 43 42 45 57 61 62 63 63 64 64 64 63 60 61 63 63 63 63 63 63 63 63 62 63 63 63 63 63 62 61 61 60
34 34 32 33 30 24 30 24 27 34 35 36 38 43 44 44 44 43 38 39 53 59 60 61 62 63 63 64 63 63 62 61 62 62 62 63 63 63 64 64 64 63 63 63 63 63 62 61 61
31 28 22 20 20 22 30 24 23 34 35 36 34 40 43 43 44 40 37 42 51 56 59 60 61 61 62 63 63 62 62 61 61 61 61 61 61 61 62 62 62 62 62 62 62 61 61 60 60
31 28 20 15 18 23 30 23 24 26 32 35 36 37 43 43 43 38 36 40 49 54 57 59 60 60 61 61 61 61 61 60 60 60 61 61 60 60 61 61 61 60 60 59 58 57 56 57 57
30 27 32 23 23 21 26 24 22 25 25 27 30 34 36 37 34 34 34 40 49 53 56 57 59 60 60 60 60 60 59 59 59 59 59 58 57 57 60 58 57 56 57 57 57 57 57 57 57
33 35 26 24 16 18 23 18 21 24 25 27 29 31 32 32 33 33 35 40 48 53 55 56 58 58 58 58 58 57 57 57 56 56 56 54 53 54 54 54 54 53 53 52 52 51 51 51 51
29 29 30 27 24 19 17 20 23 26 26 28 30 30 30 30 31 33 35 42 47 50 53 55 56 56 56 56 55 55 54 53 52 52 51 50 50 51 51 51 50 50 49 48 49 49 50 50 50
29 27 30 22 23 20 20 22 25 27 31 31 32 34 33 33 36 37 35 41 44 47 50 52 53 54 54 53 53 52 51 50 49 48 47 47 47 46 47 47 46 45 44 44 44 44 45 46 47

GFSSGP_sfc_30mbdewp_111.txt.gz
Dewpoint
57 56 55 53 42 43 35 36 38 30 29 36 42 47 47 48 46 43 65 67 68 68 70 70 70 70 70 70 71 70 70 71 71 70 70 69 69 67 66 67 66 65 65 67 67 66 64 66 67
55 57 54 50 42 35 33 38 35 35 31 36 40 50 48 43 60 63 65 68 68 69 70 70 70 70 69 70 71 71 71 72 71 70 70 70 69 67 66 65 66 66 67 67 67 67 66 65 66
53 54 46 43 40 36 33 36 37 35 35 35 36 52 52 52 63 64 67 68 69 69 70 69 69 69 69 70 71 71 71 72 70 69 69 70 67 65 64 65 67 67 69 68 67 67 66 65 65
52 51 46 39 35 37 39 34 33 34 33 30 37 39 55 62 63 65 68 69 68 69 69 70 69 69 69 70 71 71 71 70 70 69 69 68 66 64 64 66 67 69 69 68 67 66 65 63 62
51 47 37 34 33 37 40 39 36 31 31 28 39 38 46 64 66 68 68 69 68 69 69 69 70 69 69 70 71 71 70 70 69 69 67 66 65 64 64 66 68 69 68 67 67 66 64 61 61
43 43 35 31 31 32 38 41 39 38 37 29 42 46 44 65 67 68 68 67 68 68 69 69 69 69 69 69 70 70 70 70 69 68 67 65 65 64 65 67 69 69 67 66 66 65 64 61 61
38 39 32 31 30 29 35 42 40 40 39 37 42 46 54 65 68 68 68 67 68 69 69 68 68 68 68 68 69 69 69 69 68 68 67 66 65 65 65 68 69 68 67 67 67 66 65 62 61
40 38 31 33 31 31 32 33 41 41 40 40 52 41 48 62 68 68 67 67 67 68 68 68 67 66 66 67 68 68 68 68 67 66 66 65 65 66 67 68 68 68 68 66 66 66 65 64 62
42 32 28 29 33 33 33 31 39 42 41 40 42 52 57 64 67 66 66 66 66 67 67 68 67 67 67 65 66 67 67 66 66 65 65 65 64 65 66 67 67 67 68 66 66 65 65 65 63
37 31 27 28 30 32 34 34 37 38 41 44 45 51 60 65 65 64 64 64 64 66 66 67 67 66 66 66 65 65 65 64 64 63 64 66 67 66 65 66 67 67 67 66 64 63 62 60 60
36 30 28 30 31 36 37 37 36 42 40 45 44 47 55 64 63 62 63 64 64 65 66 67 66 66 66 66 66 65 65 64 64 64 64 66 66 66 66 66 67 66 65 64 62 60 58 58 58
33 35 34 30 32 34 35 39 39 39 41 41 45 47 47 61 63 62 62 64 64 65 65 66 67 66 66 67 66 65 64 64 64 64 64 65 65 65 65 65 65 64 63 62 61 58 58 58 58
33 33 34 35 36 35 36 36 37 40 45 41 42 46 47 48 61 63 60 63 65 64 65 66 67 66 65 64 66 65 63 63 63 64 64 64 64 63 64 63 63 62 62 60 59 57 57 57 57
34 35 34 35 35 36 33 33 38 42 44 45 44 44 48 50 57 62 61 60 58 64 66 66 66 67 65 64 64 65 63 63 63 63 64 63 63 62 62 62 61 61 60 59 57 56 57 58 60
36 32 34 33 35 34 35 32 32 40 43 44 44 43 45 50 56 62 61 60 61 64 66 66 66 66 66 65 65 64 64 63 62 62 63 62 62 62 61 60 59 59 60 60 60 60 61 62 61
31 31 26 28 33 34 34 26 34 40 42 43 42 41 46 51 54 61 63 63 63 63 65 66 66 66 66 65 64 64 65 64 63 62 62 62 62 61 60 59 60 61 62 62 62 62 61 61 59
28 21 22 24 34 32 33 28 37 41 44 42 39 39 47 51 54 58 62 63 62 63 65 65 66 65 65 65 64 63 63 64 64 63 63 62 63 62 62 61 61 62 62 62 62 61 61 60 59
20 23 26 24 31 31 32 29 39 42 43 40 39 39 45 49 52 56 60 62 61 63 65 66 65 65 65 65 64 63 63 62 63 62 63 63 63 64 64 63 62 62 62 62 62 61 60 59 57
27 26 25 26 28 31 32 28 34 41 40 38 38 40 42 47 48 55 60 61 62 64 65 65 65 65 65 64 63 62 61 62 62 61 60 61 62 63 64 64 63 63 62 62 61 60 60 58 57
27 27 26 28 30 31 30 29 35 39 37 38 40 41 41 45 47 53 61 61 62 63 65 65 65 65 65 65 64 63 63 62 62 61 60 59 60 60 61 62 61 62 62 61 60 59 57 57 58
27 27 27 28 33 34 33 32 37 38 39 41 42 44 44 46 46 49 59 60 61 62 63 65 65 65 65 65 64 64 63 63 62 61 61 59 59 59 59 60 60 60 60 60 59 59 58 57 58
25 33 32 31 31 28 35 26 35 37 37 40 41 42 45 46 45 45 55 60 60 59 63 64 64 63 65 65 64 63 62 61 62 62 62 61 60 60 60 60 60 60 60 60 59 59 59 59 58
29 32 33 34 32 31 31 27 32 37 35 38 41 43 45 45 44 43 49 56 59 62 62 63 63 63 62 64 64 62 61 62 62 62 62 61 61 61 61 61 62 62 62 61 61 60 60 60 60
34 34 33 33 30 24 30 25 28 34 35 37 39 43 46 44 45 43 40 43 55 60 62 62 61 61 62 62 63 61 59 60 62 63 62 62 63 63 63 63 63 63 62 63 63 62 62 61 61
32 26 19 19 20 21 31 26 25 32 36 37 39 43 43 44 44 39 41 45 53 59 61 61 62 62 62 61 59 62 61 62 62 62 62 62 62 62 62 63 63 63 62 63 62 62 62 61 60
30 26 22 14 19 23 28 24 23 25 27 35 38 41 43 44 42 38 37 43 52 57 59 59 61 61 62 62 62 62 62 61 62 62 62 62 62 62 62 62 62 62 62 61 61 59 59 59 59
30 26 32 23 22 21 24 21 23 25 26 28 31 41 42 42 36 35 35 42 48 55 58 59 60 60 61 62 62 61 61 61 60 61 61 60 60 60 61 60 59 59 58 58 57 57 57 58 57
31 34 26 24 17 18 19 21 23 25 27 29 30 35 42 41 39 38 34 40 49 53 56 58 59 59 59 59 59 59 59 59 59 58 57 56 57 58 57 56 55 54 54 54 54 53 52 51 51
29 29 29 26 22 19 17 23 24 27 29 31 32 31 40 41 35 37 34 41 47 52 55 56 57 57 56 57 57 57 56 56 56 55 53 52 53 53 53 52 51 50 49 49 49 49 49 49 50
29 29 30 22 21 20 22 24 26 28 32 33 34 34 35 40 39 38 38 39 44 49 53 54 55 55 55 54 54 53 53 52 52 51 50 50 50 49 49 48 46 45 44 44 44 44 45 46 47

GFSSGP_sfc_30mbdewp_114.txt.gz
Dewpoint
55 52 49 51 40 36 30 29 32 29 30 33 37 38 40 43 45 44 63 63 63 64 67 70 70 69 70 71 71 72 72 72 72 71 70 69 68 68 67 67 66 67 67 66 66 66 68 67 67
54 51 48 44 36 26 26 30 32 32 30 33 33 37 44 42 52 61 63 65 65 64 67 68 70 70 71 71 71 72 72 72 71 71 71 70 68 67 67 67 65 68 68 68 66 66 67 67 67
52 50 38 34 33 26 22 28 33 33 33 33 32 36 38 41 57 60 65 65 65 65 67 68 71 70 70 71 71 71 72 72 71 71 70 69 68 67 67 67 67 69 69 68 67 66 66 66 66
50 48 41 35 23 25 26 27 34 35 32 32 32 32 40 53 60 62 65 66 65 65 66 70 70 70 71 71 71 71 72 72 70 70 69 69 67 67 67 67 69 69 68 68 67 66 65 64 64
49 43 33 28 22 21 23 28 33 32 32 31 31 30 33 59 64 66 66 66 66 65 67 69 70 70 71 72 71 72 71 70 70 70 69 68 67 66 68 68 69 69 68 67 65 63 62 61 61
40 37 29 24 23 22 23 27 36 33 31 33 30 29 32 58 64 66 67 67 67 66 67 68 69 70 71 72 71 71 70 70 70 69 68 67 66 67 67 69 69 68 68 66 65 62 61 61 61
36 32 26 23 22 22 25 26 33 33 35 35 35 29 33 60 62 65 67 67 67 67 67 67 67 68 70 71 71 71 70 70 69 68 67 66 66 66 67 69 68 68 68 67 66 63 61 61 61
38 34 28 25 23 22 25 27 28 32 37 39 39 35 34 51 63 62 65 66 67 67 67 66 65 63 68 70 70 70 69 69 68 67 66 66 66 66 68 69 68 68 68 67 67 65 62 62 62
36 30 25 23 21 22 27 26 29 30 35 39 40 43 42 45 64 65 65 66 66 67 67 65 63 61 61 68 69 69 69 68 67 66 65 65 61 64 67 66 68 67 67 67 67 66 64 63 63
32 27 23 23 22 22 24 32 32 32 28 33 41 41 45 51 60 64 64 62 65 66 66 65 62 61 59 63 67 67 67 65 64 64 63 58 58 61 64 66 67 67 66 66 66 65 64 62 59
31 28 24 23 24 26 26 29 32 33 33 33 35 40 46 48 58 63 64 63 64 65 66 64 62 63 59 59 65 66 65 64 64 63 58 57 58 61 64 66 65 64 63 61 61 60 58 58 57
28 27 27 27 27 27 27 29 29 32 33 35 36 40 45 45 48 53 62 64 64 65 65 64 62 61 58 58 58 61 64 64 60 59 58 61 63 60 62 64 64 62 61 59 58 57 57 57 57
27 26 25 27 30 31 30 28 29 31 34 38 38 40 43 44 46 51 55 63 59 60 65 64 63 60 59 58 57 57 57 58 58 58 61 63 63 62 63 63 63 61 60 59 56 55 56 56 56
26 28 29 30 30 32 31 30 28 31 35 40 42 42 42 42 43 48 53 61 61 62 65 65 64 59 62 61 58 56 57 57 58 57 60 63 62 60 60 60 60 60 58 56 55 53 53 54 55
29 27 28 27 29 31 32 30 29 26 31 38 42 42 40 41 42 48 54 61 61 61 65 65 64 62 62 64 62 59 57 57 58 58 59 61 61 60 59 58 58 57 56 55 54 53 54 56 58
25 25 22 17 24 29 31 25 26 27 27 32 39 41 39 39 41 48 55 56 58 59 65 65 65 64 61 64 64 63 59 56 57 58 59 59 59 59 58 57 56 55 55 54 54 53 56 59 60
24 20 15 15 20 25 30 26 27 32 30 30 37 39 41 39 41 47 56 56 58 56 62 65 65 64 64 65 65 65 64 59 56 55 56 58 57 57 56 55 54 56 58 59 60 60 60 60 60
14 19 19 18 22 30 27 27 30 37 39 40 40 41 40 40 41 44 56 58 61 58 61 65 65 64 64 65 65 65 64 63 62 59 56 56 55 56 56 57 58 60 60 60 60 60 61 60 59
24 23 22 20 22 24 31 28 28 38 40 39 41 40 41 40 41 44 51 54 60 60 63 64 65 65 65 64 63 63 62 62 62 63 62 61 61 61 61 61 61 62 61 61 61 61 61 60 59
24 22 22 22 24 25 28 29 27 33 37 39 40 39 40 40 41 43 49 59 57 62 62 64 64 65 64 64 64 63 63 62 61 61 62 62 62 63 62 62 62 62 62 62 61 61 60 60 58
24 25 23 25 30 28 29 27 28 37 38 38 39 39 42 41 41 44 47 59 59 60 61 63 64 65 65 64 64 64 63 62 61 62 61 61 61 62 62 62 62 62 62 62 61 61 60 58 59
25 31 31 30 28 25 28 22 31 34 37 38 39 41 43 42 43 45 47 58 59 61 63 63 65 65 65 65 64 63 62 61 60 62 62 61 59 60 61 61 61 61 62 61 61 61 61 59 58
29 33 31 32 30 30 29 28 31 37 36 37 38 41 41 44 45 45 47 58 60 61 60 63 64 64 65 65 64 63 62 62 63 63 62 62 61 61 61 61 61 61 61 61 61 60 59 60 59
34 32 32 32 30 25 29 27 29 34 34 36 37 40 42 46 46 46 52 59 59 60 60 61 62 62 63 63 63 62 62 62 62 63 62 62 62 62 62 62 62 62 62 62 61 61 60 60 61
32 30 22 22 23 23 32 23 26 28 35 37 38 40 45 46 47 42 47 57 60 59 59 59 60 60 61 61 61 61 61 61 61 62 61 62 62 62 63 63 63 63 63 63 61 61 62 62 61
30 30 24 18 20 24 29 24 27 27 28 30 40 42 45 46 44 40 46 54 59 60 60 60 60 59 60 60 61 61 61 61 61 61 61 61 61 62 63 63 63 63 63 62 62 62 61 62 61
30 28 33 26 23 22 27 26 27 28 30 30 40 41 44 46 44 39 44 51 58 59 60 60 60 60 60 60 60 59 60 58 61 61 62 62 62 62 63 63 62 63 62 61 61 60 59 59 58
33 34 28 27 19 19 23 26 26 28 30 31 39 40 44 45 38 36 43 48 53 58 59 60 61 60 60 60 60 59 59 58 59 59 61 61 60 61 62 61 61 59 59 58 58 57 57 57 56
30 29 29 26 23 20 20 25 28 30 32 32 37 42 44 44 42 38 38 47 53 56 58 58 58 59 59 60 60 59 59 58 59 59 59 59 59 59 58 57 56 55 54 54 54 53 52 51 51
30 30 30 25 22 23 23 25 26 30 34 34 35 41 44 44 43 41 40 43 50 54 56 56 57 57 58 58 58 58 58 58 58 56 56 56 56 55 54 53 52 50 50 50 50 48 48 48 48

GFSSGP_sfc_30mbdewp_117.txt.gz
Dewpoint
55 49 44 47 39 33 26 26 26 26 25 27 31 36 37 39 40 48 60 60 60 63 66 69 71 71 71 73 73 73 72 72 72 70 70 69 69 68 69 69 68 67 66 65 67 67 67 67 67
50 46 43 36 31 25 22 23 24 25 30 30 30 33 36 38 47 59 58 61 61 63 66 67 71 71 71 72 73 73 72 72 72 71 70 69 68 68 68 69 69 68 67 67 68 68 68 67 66
50 46 37 29 30 26 20 21 23 25 31 30 30 32 34 38 44 56 62 63 62 64 67 67 70 70 71 71 73 73 72 72 72 71 70 69 69 68 68 67 68 68 68 67 67 67 68 67 65
44 43 39 28 19 21 24 22 20 27 32 32 31 29 30 34 40 55 64 62 62 66 67 70 70 69 71 71 72 72 72 71 71 70 70 69 68 68 67 69 69 69 69 67 66 66 66 66 66
42 38 31 23 20 20 20 19 22 23 31 32 32 29 28 36 59 61 63 64 62 66 67 69 71 70 71 71 71 72 72 71 71 70 69 69 68 68 69 70 69 69 68 66 65 64 64 63 62
36 34 26 22 21 20 18 17 17 21 26 30 29 29 28 32 57 63 64 64 63 65 69 68 70 70 71 71 71 72 71 70 70 69 69 68 67 68 70 69 69 68 67 65 62 62 62 62 61
33 30 24 20 17 17 18 20 20 19 24 28 28 29 30 30 54 64 62 66 66 66 68 68 68 68 71 71 71 71 71 70 69 69 68 67 68 68 69 69 68 68 67 65 63 62 62 61 62
33 30 24 22 20 20 21 20 21 22 21 27 28 28 32 32 51 61 63 66 66 67 67 67 66 66 66 70 71 70 70 69 68 68 67 66 67 68 69 68 68 68 67 66 64 63 62 62 62
33 29 26 24 21 20 20 20 22 23 24 24 27 31 36 43 49 58 62 65 66 66 67 67 65 62 63 67 69 70 69 69 68 66 65 65 62 64 67 65 68 68 67 67 65 64 63 63 62
31 26 22 22 22 20 19 19 19 22 24 23 25 32 40 43 47 54 60 61 65 65 66 66 64 59 61 66 69 68 68 67 66 65 64 60 59 63 66 66 67 67 67 67 66 64 62 60 58
31 29 26 24 23 23 22 22 23 24 25 30 25 25 37 42 47 54 59 61 59 63 65 67 62 58 59 64 67 67 67 66 65 64 61 53 57 63 66 66 64 64 64 63 64 62 60 58 56
27 27 25 24 25 25 25 25 23 23 25 27 31 32 30 38 43 49 53 60 60 59 63 66 61 57 57 62 66 66 66 65 64 63 56 53 56 63 65 64 63 60 60 59 59 57 56 56 55
22 23 24 23 22 23 24 25 25 24 25 26 29 35 37 38 42 47 50 53 56 60 61 64 63 58 55 59 64 65 65 63 63 63 53 55 57 59 64 64 63 59 58 57 56 55 55 55 54
23 23 22 22 24 25 25 25 25 26 26 25 28 31 34 39 42 47 46 50 55 59 62 61 65 60 55 55 61 63 64 63 58 57 58 62 59 59 62 63 63 60 58 57 54 53 54 54 53
22 21 21 21 20 21 24 24 24 26 25 24 27 30 34 39 41 45 45 49 56 57 64 64 65 58 55 54 53 55 60 59 56 56 61 63 60 59 61 60 59 58 58 55 53 52 52 53 54
23 23 20 18 15 15 20 24 25 26 27 25 25 31 34 37 40 42 45 48 56 59 63 64 64 59 57 55 54 54 55 55 55 56 59 61 58 59 59 58 58 57 55 54 52 52 53 56 58
19 18 14 12 10 12 17 27 26 26 26 25 25 24 31 36 39 40 43 49 57 57 62 64 64 60 62 60 58 55 54 55 56 56 58 58 58 58 58 56 56 55 54 52 53 53 55 58 59
14 16 15 13 13 20 26 26 26 25 26 25 24 25 30 36 40 41 43 54 58 60 59 62 64 63 63 63 63 60 55 54 56 57 57 57 57 57 56 55 53 54 56 57 59 58 59 59 58
20 19 19 16 16 16 16 22 31 27 30 30 29 33 33 39 39 41 45 55 58 59 59 63 64 63 63 63 64 63 59 55 54 55 54 56 54 55 54 54 55 57 58 58 59 59 59 60 60
17 16 15 17 18 19 21 21 22 27 32 36 35 36 39 39 39 40 45 53 56 59 57 60 63 64 63 63 63 63 63 62 61 60 56 54 54 56 56 58 58 59 60 60 60 60 60 60 60
19 20 20 20 23 28 28 23 21 26 30 33 37 38 38 38 39 39 44 51 56 55 58 58 61 63 64 63 64 63 62 62 62 62 62 61 61 61 61 61 60 61 61 61 61 61 61 59 59
24 25 30 28 26 22 24 21 25 25 29 34 34 37 38 39 39 40 44 49 57 56 56 61 60 63 64 64 63 62 61 60 61 61 62 62 61 63 63 63 63 62 63 62 62 62 62 62 60
27 31 31 30 28 28 26 25 28 26 31 34 36 39 40 41 40 42 44 49 58 58 58 61 61 63 64 63 63 63 62 61 61 62 61 61 61 62 63 62 62 62 63 63 62 62 61 61 60
34 31 31 31 29 23 25 26 28 31 35 35 39 40 42 45 45 45 46 49 58 59 60 61 61 61 63 63 62 63 62 62 61 62 61 61 61 61 62 62 62 62 62 62 62 62 62 61 61
32 30 25 22 21 21 32 28 29 34 34 39 39 41 45 45 45 45 46 55 59 59 59 58 60 61 61 63 63 62 62 63 62 62 62 62 61 61 62 62 62 62 63 62 61 62 61 61 61
29 31 25 18 21 23 24 25 29 35 34 39 39 43 45 44 42 40 48 57 59 59 59 58 58 58 60 59 60 61 61 61 61 61 62 62 62 62 62 62 63 62 62 62 63 62 61 62 62
29 29 32 27 28 24 28 31 35 34 37 38 39 43 44 43 42 43 47 57 58 58 58 58 59 59 59 59 59 61 60 61 60 61 62 60 62 62 63 63 62 62 62 62 62 62 61 61 61
34 35 28 29 22 20 25 26 25 33 36 38 39 42 44 44 42 43 50 57 58 58 58 59 59 59 59 60 59 60 60 60 61 61 60 61 61 62 62 62 62 62 62 62 62 60 59 58 58
32 29 28 27 22 23 21 24 35 34 35 39 40 43 43 44 44 43 51 57 58 59 59 60 60 60 60 60 60 60 59 59 60 59 60 60 60 61 61 61 61 61 60 60 58 57 56 56 54
32 30 28 29 22 26 22 25 33 34 36 39 40 43 44 44 43 44 49 55 56 57 57 58 59 59 60 60 59 59 58 58 58 58 59 60 60 60 60 59 58 57 57 56 55 53 52 51 50

GFSSGP_sfc_30mbdewp_120.txt.gz
Dewpoint
56 54 46 43 42 38 31 31 30 29 28 25 25 28 32 35 38 45 62 64 64 68 70 72 72 73 73 73 73 73 73 72 71 70 69 69 69 69 69 68 68 68 66 67 67 66 65 66 66
56 46 43 39 36 31 28 28 26 27 27 28 30 28 30 34 53 59 60 65 66 67 69 70 72 72 73 73 73 73 73 72 71 70 71 70 69 69 69 68 68 67 68 68 68 68 68 67 67
50 46 41 33 30 27 24 25 24 24 24 26 29 30 31 33 51 60 61 62 64 65 67 69 72 72 73 73 73 73 73 72 71 70 70 70 69 69 69 68 68 69 69 68 68 68 66 64 66
43 43 41 33 23 24 26 26 26 23 23 29 30 28 30 31 36 61 62 63 64 66 66 70 71 72 72 73 73 73 72 72 71 70 70 69 69 68 69 69 69 69 68 68 67 67 65 64 66
42 40 35 29 26 24 23 22 20 19 20 26 32 30 29 32 60 61 62 61 66 66 67 69 70 71 71 72 72 73 72 72 71 70 70 68 69 69 69 69 69 68 67 66 66 66 65 65 63
37 36 31 28 28 25 22 20 18 17 17 18 30 31 31 33 59 62 62 62 66 66 69 69 69 69 71 72 72 72 72 71 71 70 69 68 68 70 69 69 69 68 66 65 63 63 62 62 61
36 33 28 24 22 21 21 20 19 19 18 17 19 29 29 31 59 63 63 63 66 69 69 69 69 69 70 71 72 72 71 71 70 69 68 68 68 70 69 69 68 67 65 64 63 62 62 62 61
34 32 29 28 24 23 22 22 22 21 20 22 22 20 27 31 52 57 63 64 66 69 69 68 68 68 69 70 71 72 71 71 70 69 68 68 69 69 69 69 68 67 65 64 64 63 62 62 62
32 30 28 27 24 23 24 21 21 21 21 22 23 23 25 36 48 52 57 61 65 67 68 68 67 67 67 69 71 71 70 69 68 68 67 67 68 68 67 67 68 67 66 65 64 63 63 63 60
31 28 27 26 23 22 22 22 22 20 19 20 22 23 26 32 45 48 53 58 61 65 67 67 67 66 65 67 70 70 69 68 67 66 65 64 65 66 66 67 67 67 67 66 64 64 62 59 58
32 30 30 29 27 27 26 25 24 22 22 23 23 29 31 30 40 47 53 55 60 63 67 67 66 64 63 65 69 68 68 67 65 64 63 61 63 66 66 66 66 67 67 66 65 63 61 60 58
28 29 28 28 27 25 24 25 25 26 24 24 25 27 29 32 36 45 50 52 55 57 57 66 66 67 64 67 68 67 67 66 65 63 61 58 62 66 65 64 64 64 64 64 62 61 61 60 57
23 23 23 23 23 25 24 23 24 24 25 26 26 26 27 32 36 43 52 53 55 55 56 61 64 63 65 66 67 67 66 65 64 63 59 58 63 65 63 63 62 61 61 61 60 59 57 56 55
25 24 23 22 23 23 21 24 26 25 26 25 26 26 27 28 34 39 46 49 55 57 56 56 63 62 61 66 66 67 66 64 64 62 56 55 63 64 63 62 62 60 59 59 58 56 56 55 54
23 21 22 21 20 20 21 20 21 24 25 25 26 26 26 28 33 36 43 46 52 57 57 56 58 61 61 64 65 66 65 64 63 62 61 60 60 63 62 61 62 61 59 56 54 54 54 53 55
25 25 22 22 20 18 19 19 21 23 23 24 24 25 25 25 30 34 43 46 47 57 55 57 61 60 60 61 64 65 64 63 59 60 62 61 61 62 61 60 62 60 57 55 54 53 53 56 57
25 21 20 18 17 14 12 14 20 20 23 25 26 26 25 25 29 37 43 45 47 56 55 55 61 60 61 63 57 61 63 59 56 61 61 60 61 61 61 60 59 57 55 54 53 53 54 58 59
18 19 18 16 16 15 14 14 21 26 27 29 29 27 25 25 26 36 42 48 52 57 57 56 57 63 62 60 56 55 55 56 56 58 60 60 59 59 58 57 56 55 54 55 55 54 58 59 59
24 23 21 18 16 14 15 16 17 20 25 30 31 28 26 25 26 38 43 49 55 58 59 57 60 61 61 60 57 54 54 56 56 57 59 59 58 58 56 55 54 55 57 58 59 59 59 60 60
17 17 17 17 18 19 22 26 23 23 24 31 32 31 28 25 30 40 42 50 56 58 59 58 58 62 62 61 59 55 55 55 57 58 58 58 57 57 55 55 55 58 58 59 59 60 60 60 60
19 18 19 19 20 24 25 24 25 27 28 30 34 36 37 37 38 40 41 49 56 58 58 58 58 62 63 62 60 59 57 55 56 55 57 56 56 56 56 58 58 59 60 59 60 61 61 59 60
22 23 24 26 26 21 25 19 25 26 24 29 33 37 37 38 39 39 40 48 56 57 58 58 59 61 64 63 61 61 59 57 57 56 56 56 57 58 60 61 60 61 62 61 62 62 62 62 59
27 31 31 30 27 27 25 25 25 25 23 27 32 34 38 37 39 39 41 46 57 56 57 59 58 59 60 61 62 61 60 60 61 61 61 60 61 62 63 62 63 63 63 63 62 61 61 60 60
32 32 32 30 27 21 22 26 28 30 34 36 33 37 41 44 42 41 44 46 57 57 57 59 59 57 59 62 63 61 61 61 61 61 61 61 62 63 63 63 63 63 63 62 62 61 61 60 60
32 29 22 20 20 17 30 25 29 33 36 37 39 43 44 44 45 45 45 47 57 57 57 59 58 59 60 59 63 61 62 61 61 61 61 60 61 61 61 62 62 62 62 62 61 60 61 60 60
29 29 24 17 20 23 30 25 28 36 40 41 42 44 43 43 41 42 45 48 57 57 58 58 56 56 56 61 61 62 62 61 61 62 61 60 61 61 62 62 62 62 62 61 61 61 61 61 61
30 29 33 27 29 23 26 29 33 35 34 39 43 42 43 43 43 45 46 54 57 57 57 55 56 56 58 59 60 60 61 61 61 62 61 61 61 61 61 62 62 61 62 61 61 60 61 61 61
33 35 28 29 21 19 24 25 26 31 32 39 41 41 42 43 44 48 51 57 57 57 56 55 56 56 58 58 59 60 60 60 60 60 60 61 62 62 62 62 61 61 61 61 62 61 61 60 59
31 30 30 31 27 22 20 24 34 33 35 39 41 42 43 43 44 47 54 57 57 58 58 58 58 58 58 59 59 59 59 60 60 60 60 60 61 61 61 61 62 61 61 61 61 60 59 58 57
31 32 28 27 25 29 26 25 36 38 38 39 40 42 43 44 45 48 55 56 57 57 58 59 59 59 59 59 59 59 59 59 59 59 60 60 60 61 60 60 60 60 60 60 59 58 58 56 54

GFSSGP_sfc_30mbdewp_123.txt.gz
Dewpoint
56 56 54 43 42 41 36 35 36 32 28 30 29 26 28 34 39 41 63 66 69 71 72 73 74 74 73 73 73 72 72 72 71 71 69 69 69 69 68 68 68 66 67 67 65 66 66 66 68
55 53 44 40 38 34 28 32 31 29 29 29 28 28 29 30 58 59 62 68 70 70 72 72 74 73 73 73 73 72 72 72 71 70 70 70 69 69 68 69 68 68 68 68 67 67 67 67 66
52 50 41 36 33 27 29 28 28 27 27 23 25 30 30 32 58 60 61 67 69 70 71 72 73 73 73 72 73 72 72 72 71 71 71 70 70 70 69 69 70 69 69 68 68 67 67 66 64
45 43 42 36 28 29 28 26 25 23 20 21 25 28 30 33 48 60 61 66 68 69 70 72 72 73 72 72 72 72 72 72 71 70 70 70 70 69 69 70 70 69 69 69 66 65 66 65 63
43 41 36 34 31 30 28 26 24 21 19 18 17 20 30 55 61 61 62 65 66 67 70 71 72 72 72 72 72 72 72 72 71 70 70 70 70 69 70 70 69 69 68 66 64 63 66 65 62
39 38 34 33 32 30 28 25 24 22 19 18 17 20 29 59 58 61 63 65 66 66 69 70 71 71 72 72 72 72 72 71 71 70 70 69 69 70 70 69 68 68 67 66 64 65 64 62 62
36 35 31 29 27 26 26 25 21 21 21 20 19 19 21 35 60 63 63 66 67 68 68 69 70 71 71 71 71 71 71 71 71 70 69 69 70 70 69 69 68 67 65 65 64 62 61 61 62
36 34 31 31 29 28 26 25 24 22 20 22 23 21 20 47 50 53 62 66 68 68 68 68 68 69 70 71 71 71 71 71 70 69 69 69 69 69 69 69 67 66 65 64 64 62 61 62 60
33 30 29 29 28 28 26 25 25 24 21 21 21 23 24 30 45 47 52 57 65 67 68 68 68 69 70 70 71 70 70 70 70 68 67 68 69 69 68 68 66 66 65 65 64 63 62 60 59
30 29 29 30 28 26 27 27 26 25 24 23 23 25 28 31 42 47 47 51 55 61 66 68 68 68 68 69 70 70 70 70 69 67 67 68 67 67 68 67 66 66 65 65 64 63 60 58 57
32 29 30 30 31 31 30 27 26 25 25 26 23 25 26 28 32 44 53 52 53 59 63 63 67 67 67 67 69 69 69 68 67 67 66 66 66 66 67 67 66 65 65 64 64 62 59 55 56
31 31 31 31 30 30 28 27 25 24 24 26 26 27 27 27 28 35 43 51 53 58 58 58 60 67 66 68 68 68 68 67 66 65 63 65 65 66 66 66 66 65 65 63 62 60 60 59 58
27 27 28 27 26 27 25 24 25 24 25 25 25 25 26 27 29 39 48 51 54 53 57 57 58 64 66 68 68 68 67 65 65 64 62 63 66 65 64 64 64 64 64 63 61 60 60 60 58
26 24 23 22 22 22 21 21 22 22 26 26 25 25 26 26 28 30 44 51 54 55 54 56 57 58 64 67 67 67 67 65 65 63 59 62 66 64 62 63 63 62 62 62 60 59 58 56 54
27 24 25 25 24 23 23 21 20 22 22 22 22 24 27 27 28 29 35 45 53 55 53 53 55 59 61 62 62 65 66 65 65 63 58 61 65 63 62 61 61 61 60 60 59 57 56 54 55
25 26 21 22 23 23 23 19 20 22 22 22 22 23 24 25 26 28 30 41 51 55 55 55 55 56 60 61 62 61 66 65 65 63 57 62 64 62 61 61 61 61 60 57 55 54 53 54 56
25 21 20 21 22 21 19 16 17 20 20 24 23 23 23 25 25 27 29 36 46 54 56 55 55 53 60 61 61 59 66 65 65 62 57 61 63 62 60 60 60 60 57 55 54 53 54 56 58
18 19 20 20 19 22 20 17 17 19 19 21 25 26 27 28 27 28 29 38 46 48 54 55 55 53 58 61 61 61 63 64 63 60 59 62 62 61 60 59 61 57 55 54 53 52 56 59 59
23 23 22 23 22 18 17 17 17 20 23 22 22 22 28 32 31 29 29 42 49 52 55 56 56 55 58 60 60 62 63 60 60 59 59 60 61 61 60 59 58 55 54 54 54 55 57 59 59
23 18 16 17 17 19 20 21 22 24 26 27 25 27 28 30 32 28 30 45 49 52 54 56 56 58 60 61 60 62 62 58 59 59 58 59 59 59 58 57 55 55 55 56 57 58 59 60 59
20 19 19 19 20 23 24 23 23 25 26 26 28 29 31 33 29 27 30 45 48 51 56 57 57 58 57 62 59 59 59 58 57 59 58 59 59 57 56 55 56 56 57 58 59 60 60 59 60
18 22 22 23 25 21 25 18 20 23 29 28 28 29 36 37 37 40 39 44 48 49 53 58 58 57 57 63 58 57 56 55 56 58 58 58 58 56 57 57 57 58 59 60 60 61 61 60 58
26 29 30 30 27 26 24 23 22 32 28 27 29 35 35 36 38 39 40 42 48 50 54 58 58 57 61 61 60 56 56 55 56 57 57 57 57 57 58 57 58 60 61 61 62 61 61 60 59
31 30 30 31 28 20 21 24 21 29 32 33 36 38 37 38 40 39 40 45 48 51 56 58 58 57 56 56 61 57 56 56 56 56 56 57 57 57 60 60 60 62 62 62 62 61 61 60 60
32 29 20 19 19 16 27 26 25 33 33 35 36 40 42 43 43 42 42 44 48 52 57 58 58 58 59 57 61 60 58 58 56 57 56 58 57 58 62 62 62 62 62 62 61 61 60 60 59
30 28 23 16 19 22 30 24 29 35 36 38 40 44 43 43 42 43 45 45 48 54 57 57 58 58 59 58 58 57 60 58 59 59 58 60 59 60 62 62 62 62 62 61 61 60 60 60 60
30 28 33 26 28 25 25 29 33 34 34 37 41 42 43 43 44 43 44 46 50 56 56 56 56 56 57 59 59 58 61 60 60 60 60 60 61 61 62 62 62 62 61 61 60 60 60 60 60
33 35 27 28 20 19 23 26 24 30 31 37 40 41 42 44 45 47 48 47 52 57 56 55 56 57 59 60 60 59 59 60 60 61 60 60 61 61 61 61 61 61 61 60 60 59 60 60 60
32 30 32 31 29 21 19 23 32 32 32 34 37 40 42 44 45 48 50 52 56 56 55 55 56 57 58 58 59 59 59 60 60 60 61 61 61 61 61 61 60 60 60 60 60 60 60 59 58
31 30 29 25 24 27 26 25 36 35 36 35 36 40 42 45 49 52 51 56 56 55 56 57 57 57 58 58 59 59 59 59 59 59 60 61 60 61 61 60 60 60 60 60 60 59 59 58 57